<?xml version="1.0" encoding="UTF-8" standalone="no" ?>
<gpx xmlns="http://www.topografix.com/GPX/1/1" xmlns:xsi="http://www.w3.org/2001/XMLSchema-instance" xsi:schemaLocation="http://www.topografix.com/GPX/1/1 http://www.topografix.com/GPX/1/1/gpx.xsd" version="1.1" creator="VisuGPX - https://www.visugpx.com">
  <metadata>
    <name>Paneyron_Mortice Sud</name>
    <desc><![CDATA[Prépa Séjour Estival 2023]]></desc>
  </metadata>
  <trk>
    <name><![CDATA[Paneyron_Mortice Sud]]></name>
    <extensions>
      <line xmlns="http://www.topografix.com/GPX/gpx_style/0/2">
        <width>3</width>
      </line>
    </extensions>
    <trkseg>
      <trkpt lat="44.51501" lon="6.75183">
        <ele>1472.2</ele>
        <time>2013-08-18T07:31:39.000Z</time>
      </trkpt>
      <trkpt lat="44.51486" lon="6.75157">
        <ele>1473.4</ele>
        <time>2013-08-18T07:31:48.000Z</time>
      </trkpt>
      <trkpt lat="44.51476" lon="6.75126">
        <ele>1476.8</ele>
        <time>2013-08-18T07:31:56.000Z</time>
      </trkpt>
      <trkpt lat="44.51469" lon="6.75096">
        <ele>1480.7</ele>
        <time>2013-08-18T07:32:02.000Z</time>
      </trkpt>
      <trkpt lat="44.51459" lon="6.75066">
        <ele>1487.1</ele>
        <time>2013-08-18T07:32:10.000Z</time>
      </trkpt>
      <trkpt lat="44.51454" lon="6.75034">
        <ele>1492.6</ele>
        <time>2013-08-18T07:32:21.000Z</time>
      </trkpt>
      <trkpt lat="44.51436" lon="6.7503">
        <ele>1478.6</ele>
        <time>2013-08-18T07:32:46.000Z</time>
      </trkpt>
      <trkpt lat="44.51415" lon="6.75039">
        <ele>1477.1</ele>
        <time>2013-08-18T07:32:51.000Z</time>
      </trkpt>
      <trkpt lat="44.51397" lon="6.75021">
        <ele>1478</ele>
        <time>2013-08-18T07:32:58.000Z</time>
      </trkpt>
      <trkpt lat="44.51385" lon="6.74988">
        <ele>1475.8</ele>
        <time>2013-08-18T07:33:02.000Z</time>
      </trkpt>
      <trkpt lat="44.51378" lon="6.74956">
        <ele>1472.8</ele>
        <time>2013-08-18T07:33:04.000Z</time>
      </trkpt>
      <trkpt lat="44.51373" lon="6.74925">
        <ele>1469.7</ele>
        <time>2013-08-18T07:33:07.000Z</time>
      </trkpt>
      <trkpt lat="44.51365" lon="6.74895">
        <ele>1464.3</ele>
        <time>2013-08-18T07:33:14.000Z</time>
      </trkpt>
      <trkpt lat="44.51353" lon="6.74867">
        <ele>1459.1</ele>
        <time>2013-08-18T07:33:19.000Z</time>
      </trkpt>
      <trkpt lat="44.51336" lon="6.74842">
        <ele>1456.3</ele>
        <time>2013-08-18T07:33:25.000Z</time>
      </trkpt>
      <trkpt lat="44.51318" lon="6.74818">
        <ele>1454.8</ele>
        <time>2013-08-18T07:33:30.000Z</time>
      </trkpt>
      <trkpt lat="44.51302" lon="6.74795">
        <ele>1452.1</ele>
        <time>2013-08-18T07:33:37.000Z</time>
      </trkpt>
      <trkpt lat="44.513" lon="6.74763">
        <ele>1444.4</ele>
        <time>2013-08-18T07:33:48.000Z</time>
      </trkpt>
      <trkpt lat="44.51315" lon="6.74729">
        <ele>1438.7</ele>
        <time>2013-08-18T07:33:53.000Z</time>
      </trkpt>
      <trkpt lat="44.51317" lon="6.74697">
        <ele>1435</ele>
        <time>2013-08-18T07:33:57.000Z</time>
      </trkpt>
      <trkpt lat="44.5131" lon="6.7467">
        <ele>1431</ele>
        <time>2013-08-18T07:34:08.000Z</time>
      </trkpt>
      <trkpt lat="44.51326" lon="6.74648">
        <ele>1430.1</ele>
        <time>2013-08-18T07:34:21.000Z</time>
      </trkpt>
      <trkpt lat="44.51346" lon="6.7463">
        <ele>1435.3</ele>
        <time>2013-08-18T07:34:39.000Z</time>
      </trkpt>
      <trkpt lat="44.51342" lon="6.74605">
        <ele>1438</ele>
        <time>2013-08-18T07:38:19.000Z</time>
      </trkpt>
      <trkpt lat="44.51321" lon="6.74603">
        <ele>1439.3</ele>
        <time>2013-08-18T07:38:34.000Z</time>
      </trkpt>
      <trkpt lat="44.51299" lon="6.74602">
        <ele>1437.1</ele>
        <time>2013-08-18T07:38:39.000Z</time>
      </trkpt>
      <trkpt lat="44.51275" lon="6.74593">
        <ele>1434.7</ele>
        <time>2013-08-18T07:38:46.000Z</time>
      </trkpt>
      <trkpt lat="44.51253" lon="6.74587">
        <ele>1434.1</ele>
        <time>2013-08-18T07:38:54.000Z</time>
      </trkpt>
      <trkpt lat="44.51231" lon="6.74574">
        <ele>1434.1</ele>
        <time>2013-08-18T07:39:01.000Z</time>
      </trkpt>
      <trkpt lat="44.51215" lon="6.74551">
        <ele>1436.8</ele>
        <time>2013-08-18T07:39:10.000Z</time>
      </trkpt>
      <trkpt lat="44.51196" lon="6.74537">
        <ele>1439.3</ele>
        <time>2013-08-18T07:39:18.000Z</time>
      </trkpt>
      <trkpt lat="44.51173" lon="6.74529">
        <ele>1440.8</ele>
        <time>2013-08-18T07:39:28.000Z</time>
      </trkpt>
      <trkpt lat="44.51151" lon="6.74518">
        <ele>1442.6</ele>
        <time>2013-08-18T07:39:40.000Z</time>
      </trkpt>
      <trkpt lat="44.51131" lon="6.74506">
        <ele>1444.1</ele>
        <time>2013-08-18T07:39:49.000Z</time>
      </trkpt>
      <trkpt lat="44.51112" lon="6.74486">
        <ele>1445.4</ele>
        <time>2013-08-18T07:40:02.000Z</time>
      </trkpt>
      <trkpt lat="44.51091" lon="6.74471">
        <ele>1447.5</ele>
        <time>2013-08-18T07:40:11.000Z</time>
      </trkpt>
      <trkpt lat="44.51103" lon="6.74448">
        <ele>1447.5</ele>
        <time>2013-08-18T07:40:26.000Z</time>
      </trkpt>
      <trkpt lat="44.51123" lon="6.74433">
        <ele>1447.5</ele>
        <time>2013-08-18T07:40:38.000Z</time>
      </trkpt>
      <trkpt lat="44.51132" lon="6.74413">
        <ele>1448.1</ele>
        <time>2013-08-18T07:40:48.000Z</time>
      </trkpt>
      <trkpt lat="44.51111" lon="6.7442">
        <ele>1448.1</ele>
        <time>2013-08-18T07:40:57.000Z</time>
      </trkpt>
      <trkpt lat="44.51091" lon="6.74438">
        <ele>1447.2</ele>
        <time>2013-08-18T07:41:05.000Z</time>
      </trkpt>
      <trkpt lat="44.51069" lon="6.74443">
        <ele>1449.9</ele>
        <time>2013-08-18T07:41:19.000Z</time>
      </trkpt>
      <trkpt lat="44.51054" lon="6.7442">
        <ele>1457.6</ele>
        <time>2013-08-18T07:41:36.000Z</time>
      </trkpt>
      <trkpt lat="44.51039" lon="6.74399">
        <ele>1463</ele>
        <time>2013-08-18T07:41:55.000Z</time>
      </trkpt>
      <trkpt lat="44.51017" lon="6.74404">
        <ele>1462.4</ele>
        <time>2013-08-18T07:42:19.000Z</time>
      </trkpt>
      <trkpt lat="44.50998" lon="6.7442">
        <ele>1464.3</ele>
        <time>2013-08-18T07:42:44.000Z</time>
      </trkpt>
      <trkpt lat="44.50979" lon="6.74435">
        <ele>1469.7</ele>
        <time>2013-08-18T07:43:09.000Z</time>
      </trkpt>
      <trkpt lat="44.5096" lon="6.74451">
        <ele>1483.5</ele>
        <time>2013-08-18T07:43:58.000Z</time>
      </trkpt>
      <trkpt lat="44.5094" lon="6.74445">
        <ele>1491.1</ele>
        <time>2013-08-18T07:44:48.000Z</time>
      </trkpt>
      <trkpt lat="44.50938" lon="6.7442">
        <ele>1499.9</ele>
        <time>2013-08-18T07:45:34.000Z</time>
      </trkpt>
      <trkpt lat="44.50948" lon="6.74394">
        <ele>1503.9</ele>
        <time>2013-08-18T07:46:06.000Z</time>
      </trkpt>
      <trkpt lat="44.50928" lon="6.744">
        <ele>1511.2</ele>
        <time>2013-08-18T07:46:37.000Z</time>
      </trkpt>
      <trkpt lat="44.50906" lon="6.74401">
        <ele>1516.1</ele>
        <time>2013-08-18T07:47:10.000Z</time>
      </trkpt>
      <trkpt lat="44.50885" lon="6.74392">
        <ele>1518.2</ele>
        <time>2013-08-18T07:47:42.000Z</time>
      </trkpt>
      <trkpt lat="44.50887" lon="6.74368">
        <ele>1525.2</ele>
        <time>2013-08-18T07:48:25.000Z</time>
      </trkpt>
      <trkpt lat="44.50903" lon="6.74348">
        <ele>1529.2</ele>
        <time>2013-08-18T07:48:59.000Z</time>
      </trkpt>
      <trkpt lat="44.50909" lon="6.74325">
        <ele>1550.2</ele>
        <time>2013-08-18T07:49:46.000Z</time>
      </trkpt>
      <trkpt lat="44.509" lon="6.74321">
        <ele>1556.3</ele>
        <time>2013-08-18T07:50:14.000Z</time>
      </trkpt>
      <trkpt lat="44.50881" lon="6.7433">
        <ele>1560.6</ele>
        <time>2013-08-18T07:50:36.000Z</time>
      </trkpt>
      <trkpt lat="44.50866" lon="6.74319">
        <ele>1568.8</ele>
        <time>2013-08-18T07:51:13.000Z</time>
      </trkpt>
      <trkpt lat="44.50857" lon="6.74302">
        <ele>1583.7</ele>
        <time>2013-08-18T07:51:54.000Z</time>
      </trkpt>
      <trkpt lat="44.50836" lon="6.74291">
        <ele>1576.7</ele>
        <time>2013-08-18T07:52:13.000Z</time>
      </trkpt>
      <trkpt lat="44.50815" lon="6.74278">
        <ele>1570.9</ele>
        <time>2013-08-18T07:52:35.000Z</time>
      </trkpt>
      <trkpt lat="44.50792" lon="6.74272">
        <ele>1570.9</ele>
        <time>2013-08-18T07:52:47.000Z</time>
      </trkpt>
      <trkpt lat="44.50772" lon="6.7426">
        <ele>1580.7</ele>
        <time>2013-08-18T07:52:57.000Z</time>
      </trkpt>
      <trkpt lat="44.50751" lon="6.74247">
        <ele>1587.4</ele>
        <time>2013-08-18T07:53:06.000Z</time>
      </trkpt>
      <trkpt lat="44.50734" lon="6.74229">
        <ele>1582.5</ele>
        <time>2013-08-18T07:53:26.000Z</time>
      </trkpt>
      <trkpt lat="44.50755" lon="6.74236">
        <ele>1579.8</ele>
        <time>2013-08-18T07:53:53.000Z</time>
      </trkpt>
      <trkpt lat="44.50777" lon="6.74241">
        <ele>1581.3</ele>
        <time>2013-08-18T07:54:12.000Z</time>
      </trkpt>
      <trkpt lat="44.50799" lon="6.74235">
        <ele>1585.3</ele>
        <time>2013-08-18T07:54:34.000Z</time>
      </trkpt>
      <trkpt lat="44.50821" lon="6.74226">
        <ele>1587.7</ele>
        <time>2013-08-18T07:54:53.000Z</time>
      </trkpt>
      <trkpt lat="44.50845" lon="6.7422">
        <ele>1587.7</ele>
        <time>2013-08-18T07:55:06.000Z</time>
      </trkpt>
      <trkpt lat="44.50867" lon="6.74207">
        <ele>1587.4</ele>
        <time>2013-08-18T07:55:17.000Z</time>
      </trkpt>
      <trkpt lat="44.50886" lon="6.74191">
        <ele>1588.9</ele>
        <time>2013-08-18T07:55:30.000Z</time>
      </trkpt>
      <trkpt lat="44.50906" lon="6.74177">
        <ele>1590.4</ele>
        <time>2013-08-18T07:55:45.000Z</time>
      </trkpt>
      <trkpt lat="44.50924" lon="6.74157">
        <ele>1591.7</ele>
        <time>2013-08-18T07:55:57.000Z</time>
      </trkpt>
      <trkpt lat="44.50942" lon="6.74134">
        <ele>1592.3</ele>
        <time>2013-08-18T07:56:11.000Z</time>
      </trkpt>
      <trkpt lat="44.50961" lon="6.74116">
        <ele>1592.6</ele>
        <time>2013-08-18T07:56:23.000Z</time>
      </trkpt>
      <trkpt lat="44.5098" lon="6.74098">
        <ele>1593.8</ele>
        <time>2013-08-18T07:56:38.000Z</time>
      </trkpt>
      <trkpt lat="44.50998" lon="6.7408">
        <ele>1596.2</ele>
        <time>2013-08-18T07:56:49.000Z</time>
      </trkpt>
      <trkpt lat="44.51019" lon="6.74072">
        <ele>1597.8</ele>
        <time>2013-08-18T07:57:00.000Z</time>
      </trkpt>
      <trkpt lat="44.51041" lon="6.74081">
        <ele>1599.9</ele>
        <time>2013-08-18T07:57:12.000Z</time>
      </trkpt>
      <trkpt lat="44.5106" lon="6.74098">
        <ele>1600.8</ele>
        <time>2013-08-18T07:57:24.000Z</time>
      </trkpt>
      <trkpt lat="44.51076" lon="6.74122">
        <ele>1602</ele>
        <time>2013-08-18T07:57:36.000Z</time>
      </trkpt>
      <trkpt lat="44.51097" lon="6.74134">
        <ele>1603.9</ele>
        <time>2013-08-18T07:57:48.000Z</time>
      </trkpt>
      <trkpt lat="44.51119" lon="6.74139">
        <ele>1606</ele>
        <time>2013-08-18T07:58:02.000Z</time>
      </trkpt>
      <trkpt lat="44.51142" lon="6.74136">
        <ele>1608.7</ele>
        <time>2013-08-18T07:58:16.000Z</time>
      </trkpt>
      <trkpt lat="44.51165" lon="6.74138">
        <ele>1611.5</ele>
        <time>2013-08-18T07:58:30.000Z</time>
      </trkpt>
      <trkpt lat="44.51188" lon="6.74134">
        <ele>1614.5</ele>
        <time>2013-08-18T07:58:45.000Z</time>
      </trkpt>
      <trkpt lat="44.51209" lon="6.7412">
        <ele>1616.4</ele>
        <time>2013-08-18T07:58:58.000Z</time>
      </trkpt>
      <trkpt lat="44.51228" lon="6.74105">
        <ele>1617.6</ele>
        <time>2013-08-18T07:59:13.000Z</time>
      </trkpt>
      <trkpt lat="44.51248" lon="6.74091">
        <ele>1619.7</ele>
        <time>2013-08-18T07:59:27.000Z</time>
      </trkpt>
      <trkpt lat="44.51268" lon="6.74077">
        <ele>1622.8</ele>
        <time>2013-08-18T07:59:40.000Z</time>
      </trkpt>
      <trkpt lat="44.51289" lon="6.74067">
        <ele>1627</ele>
        <time>2013-08-18T07:59:55.000Z</time>
      </trkpt>
      <trkpt lat="44.51312" lon="6.74061">
        <ele>1630.1</ele>
        <time>2013-08-18T08:00:07.000Z</time>
      </trkpt>
      <trkpt lat="44.51333" lon="6.74048">
        <ele>1631</ele>
        <time>2013-08-18T08:00:22.000Z</time>
      </trkpt>
      <trkpt lat="44.51352" lon="6.7403">
        <ele>1631</ele>
        <time>2013-08-18T08:00:34.000Z</time>
      </trkpt>
      <trkpt lat="44.51368" lon="6.74008">
        <ele>1629.8</ele>
        <time>2013-08-18T08:00:48.000Z</time>
      </trkpt>
      <trkpt lat="44.51386" lon="6.73987">
        <ele>1632.8</ele>
        <time>2013-08-18T08:01:01.000Z</time>
      </trkpt>
      <trkpt lat="44.51402" lon="6.73964">
        <ele>1634.9</ele>
        <time>2013-08-18T08:01:16.000Z</time>
      </trkpt>
      <trkpt lat="44.51418" lon="6.73941">
        <ele>1640.1</ele>
        <time>2013-08-18T08:01:31.000Z</time>
      </trkpt>
      <trkpt lat="44.51434" lon="6.73917">
        <ele>1641.7</ele>
        <time>2013-08-18T08:01:43.000Z</time>
      </trkpt>
      <trkpt lat="44.51449" lon="6.73893">
        <ele>1640.7</ele>
        <time>2013-08-18T08:01:58.000Z</time>
      </trkpt>
      <trkpt lat="44.51467" lon="6.73877">
        <ele>1647.1</ele>
        <time>2013-08-18T08:02:07.000Z</time>
      </trkpt>
      <trkpt lat="44.51486" lon="6.73858">
        <ele>1652.3</ele>
        <time>2013-08-18T08:02:19.000Z</time>
      </trkpt>
      <trkpt lat="44.51495" lon="6.73829">
        <ele>1653.2</ele>
        <time>2013-08-18T08:02:34.000Z</time>
      </trkpt>
      <trkpt lat="44.51508" lon="6.73802">
        <ele>1658.4</ele>
        <time>2013-08-18T08:02:49.000Z</time>
      </trkpt>
      <trkpt lat="44.51527" lon="6.73775">
        <ele>1663</ele>
        <time>2013-08-18T08:03:05.000Z</time>
      </trkpt>
      <trkpt lat="44.51549" lon="6.73772">
        <ele>1664.5</ele>
        <time>2013-08-18T08:03:16.000Z</time>
      </trkpt>
      <trkpt lat="44.5157" lon="6.73773">
        <ele>1663.9</ele>
        <time>2013-08-18T08:03:30.000Z</time>
      </trkpt>
      <trkpt lat="44.51556" lon="6.73756">
        <ele>1663.6</ele>
        <time>2013-08-18T08:03:45.000Z</time>
      </trkpt>
      <trkpt lat="44.51535" lon="6.73744">
        <ele>1663.3</ele>
        <time>2013-08-18T08:03:58.000Z</time>
      </trkpt>
      <trkpt lat="44.51517" lon="6.7376">
        <ele>1667</ele>
        <time>2013-08-18T08:04:13.000Z</time>
      </trkpt>
      <trkpt lat="44.515" lon="6.73783">
        <ele>1670.9</ele>
        <time>2013-08-18T08:04:28.000Z</time>
      </trkpt>
      <trkpt lat="44.51485" lon="6.73807">
        <ele>1671.8</ele>
        <time>2013-08-18T08:04:40.000Z</time>
      </trkpt>
      <trkpt lat="44.51466" lon="6.73827">
        <ele>1674.6</ele>
        <time>2013-08-18T08:04:52.000Z</time>
      </trkpt>
      <trkpt lat="44.51447" lon="6.73844">
        <ele>1675.5</ele>
        <time>2013-08-18T08:05:04.000Z</time>
      </trkpt>
      <trkpt lat="44.51432" lon="6.73845">
        <ele>1680.4</ele>
        <time>2013-08-18T08:05:19.000Z</time>
      </trkpt>
      <trkpt lat="44.5145" lon="6.73826">
        <ele>1680.1</ele>
        <time>2013-08-18T08:05:34.000Z</time>
      </trkpt>
      <trkpt lat="44.51467" lon="6.73803">
        <ele>1680.1</ele>
        <time>2013-08-18T08:05:49.000Z</time>
      </trkpt>
      <trkpt lat="44.51482" lon="6.73778">
        <ele>1684.3</ele>
        <time>2013-08-18T08:06:02.000Z</time>
      </trkpt>
      <trkpt lat="44.51492" lon="6.73751">
        <ele>1688.3</ele>
        <time>2013-08-18T08:06:17.000Z</time>
      </trkpt>
      <trkpt lat="44.51502" lon="6.73725">
        <ele>1692.2</ele>
        <time>2013-08-18T08:06:32.000Z</time>
      </trkpt>
      <trkpt lat="44.51524" lon="6.73719">
        <ele>1698.3</ele>
        <time>2013-08-18T08:06:44.000Z</time>
      </trkpt>
      <trkpt lat="44.51546" lon="6.73718">
        <ele>1695.3</ele>
        <time>2013-08-18T08:07:00.000Z</time>
      </trkpt>
      <trkpt lat="44.51569" lon="6.7372">
        <ele>1692.2</ele>
        <time>2013-08-18T08:07:14.000Z</time>
      </trkpt>
      <trkpt lat="44.51591" lon="6.73712">
        <ele>1691</ele>
        <time>2013-08-18T08:07:25.000Z</time>
      </trkpt>
      <trkpt lat="44.51613" lon="6.73701">
        <ele>1691.3</ele>
        <time>2013-08-18T08:07:35.000Z</time>
      </trkpt>
      <trkpt lat="44.51634" lon="6.73693">
        <ele>1697.7</ele>
        <time>2013-08-18T08:07:46.000Z</time>
      </trkpt>
      <trkpt lat="44.51655" lon="6.73679">
        <ele>1700.2</ele>
        <time>2013-08-18T08:07:57.000Z</time>
      </trkpt>
      <trkpt lat="44.51677" lon="6.7367">
        <ele>1704.1</ele>
        <time>2013-08-18T08:08:08.000Z</time>
      </trkpt>
      <trkpt lat="44.51696" lon="6.7365">
        <ele>1705.1</ele>
        <time>2013-08-18T08:08:17.000Z</time>
      </trkpt>
      <trkpt lat="44.51712" lon="6.73628">
        <ele>1704.1</ele>
        <time>2013-08-18T08:08:28.000Z</time>
      </trkpt>
      <trkpt lat="44.51729" lon="6.73606">
        <ele>1702.9</ele>
        <time>2013-08-18T08:08:40.000Z</time>
      </trkpt>
      <trkpt lat="44.51747" lon="6.73586">
        <ele>1705.7</ele>
        <time>2013-08-18T08:08:51.000Z</time>
      </trkpt>
      <trkpt lat="44.51762" lon="6.73564">
        <ele>1707.2</ele>
        <time>2013-08-18T08:09:03.000Z</time>
      </trkpt>
      <trkpt lat="44.51777" lon="6.7354">
        <ele>1708.4</ele>
        <time>2013-08-18T08:09:17.000Z</time>
      </trkpt>
      <trkpt lat="44.51793" lon="6.73515">
        <ele>1710.5</ele>
        <time>2013-08-18T08:09:29.000Z</time>
      </trkpt>
      <trkpt lat="44.51807" lon="6.73491">
        <ele>1716</ele>
        <time>2013-08-18T08:09:41.000Z</time>
      </trkpt>
      <trkpt lat="44.51818" lon="6.73463">
        <ele>1716.9</ele>
        <time>2013-08-18T08:09:53.000Z</time>
      </trkpt>
      <trkpt lat="44.51829" lon="6.73432">
        <ele>1718.5</ele>
        <time>2013-08-18T08:10:07.000Z</time>
      </trkpt>
      <trkpt lat="44.51842" lon="6.73406">
        <ele>1723</ele>
        <time>2013-08-18T08:10:17.000Z</time>
      </trkpt>
      <trkpt lat="44.51851" lon="6.73378">
        <ele>1722.4</ele>
        <time>2013-08-18T08:10:29.000Z</time>
      </trkpt>
      <trkpt lat="44.51856" lon="6.73348">
        <ele>1723</ele>
        <time>2013-08-18T08:10:40.000Z</time>
      </trkpt>
      <trkpt lat="44.51861" lon="6.73315">
        <ele>1728.2</ele>
        <time>2013-08-18T08:10:51.000Z</time>
      </trkpt>
      <trkpt lat="44.5187" lon="6.73286">
        <ele>1732.2</ele>
        <time>2013-08-18T08:11:02.000Z</time>
      </trkpt>
      <trkpt lat="44.51876" lon="6.73256">
        <ele>1732.2</ele>
        <time>2013-08-18T08:11:13.000Z</time>
      </trkpt>
      <trkpt lat="44.51881" lon="6.73224">
        <ele>1727.9</ele>
        <time>2013-08-18T08:11:25.000Z</time>
      </trkpt>
      <trkpt lat="44.51889" lon="6.73195">
        <ele>1729.4</ele>
        <time>2013-08-18T08:11:37.000Z</time>
      </trkpt>
      <trkpt lat="44.519" lon="6.73167">
        <ele>1731.3</ele>
        <time>2013-08-18T08:11:49.000Z</time>
      </trkpt>
      <trkpt lat="44.5192" lon="6.73155">
        <ele>1733.1</ele>
        <time>2013-08-18T08:11:59.000Z</time>
      </trkpt>
      <trkpt lat="44.51934" lon="6.73133">
        <ele>1733.4</ele>
        <time>2013-08-18T08:12:08.000Z</time>
      </trkpt>
      <trkpt lat="44.51932" lon="6.73102">
        <ele>1730.7</ele>
        <time>2013-08-18T08:12:16.000Z</time>
      </trkpt>
      <trkpt lat="44.51927" lon="6.7307">
        <ele>1734.3</ele>
        <time>2013-08-18T08:12:24.000Z</time>
      </trkpt>
      <trkpt lat="44.51942" lon="6.73047">
        <ele>1736.1</ele>
        <time>2013-08-18T08:12:34.000Z</time>
      </trkpt>
      <trkpt lat="44.51956" lon="6.7302">
        <ele>1737.4</ele>
        <time>2013-08-18T08:12:43.000Z</time>
      </trkpt>
      <trkpt lat="44.51955" lon="6.72986">
        <ele>1739.5</ele>
        <time>2013-08-18T08:12:51.000Z</time>
      </trkpt>
      <trkpt lat="44.51966" lon="6.72961">
        <ele>1739.8</ele>
        <time>2013-08-18T08:12:59.000Z</time>
      </trkpt>
      <trkpt lat="44.51986" lon="6.7295">
        <ele>1735.5</ele>
        <time>2013-08-18T08:13:10.000Z</time>
      </trkpt>
      <trkpt lat="44.52" lon="6.72925">
        <ele>1733.7</ele>
        <time>2013-08-18T08:13:17.000Z</time>
      </trkpt>
      <trkpt lat="44.52017" lon="6.72899">
        <ele>1735.2</ele>
        <time>2013-08-18T08:13:25.000Z</time>
      </trkpt>
      <trkpt lat="44.52031" lon="6.72872">
        <ele>1738.6</ele>
        <time>2013-08-18T08:13:33.000Z</time>
      </trkpt>
      <trkpt lat="44.52039" lon="6.72843">
        <ele>1738</ele>
        <time>2013-08-18T08:13:43.000Z</time>
      </trkpt>
      <trkpt lat="44.5205" lon="6.72813">
        <ele>1738</ele>
        <time>2013-08-18T08:13:52.000Z</time>
      </trkpt>
      <trkpt lat="44.52057" lon="6.72781">
        <ele>1737.1</ele>
        <time>2013-08-18T08:14:00.000Z</time>
      </trkpt>
      <trkpt lat="44.5206" lon="6.72749">
        <ele>1736.8</ele>
        <time>2013-08-18T08:14:10.000Z</time>
      </trkpt>
      <trkpt lat="44.52067" lon="6.72719">
        <ele>1739.8</ele>
        <time>2013-08-18T08:14:18.000Z</time>
      </trkpt>
      <trkpt lat="44.52076" lon="6.72686">
        <ele>1742.2</ele>
        <time>2013-08-18T08:14:27.000Z</time>
      </trkpt>
      <trkpt lat="44.52088" lon="6.72658">
        <ele>1745</ele>
        <time>2013-08-18T08:14:34.000Z</time>
      </trkpt>
      <trkpt lat="44.521" lon="6.72627">
        <ele>1747.1</ele>
        <time>2013-08-18T08:14:42.000Z</time>
      </trkpt>
      <trkpt lat="44.52106" lon="6.72595">
        <ele>1747.1</ele>
        <time>2013-08-18T08:14:50.000Z</time>
      </trkpt>
      <trkpt lat="44.52106" lon="6.72562">
        <ele>1742.8</ele>
        <time>2013-08-18T08:14:58.000Z</time>
      </trkpt>
      <trkpt lat="44.5211" lon="6.72531">
        <ele>1736.1</ele>
        <time>2013-08-18T08:15:06.000Z</time>
      </trkpt>
      <trkpt lat="44.52115" lon="6.72499">
        <ele>1734.3</ele>
        <time>2013-08-18T08:15:14.000Z</time>
      </trkpt>
      <trkpt lat="44.52115" lon="6.72465">
        <ele>1736.4</ele>
        <time>2013-08-18T08:15:22.000Z</time>
      </trkpt>
      <trkpt lat="44.52103" lon="6.72436">
        <ele>1743.2</ele>
        <time>2013-08-18T08:15:31.000Z</time>
      </trkpt>
      <trkpt lat="44.52105" lon="6.72406">
        <ele>1750.2</ele>
        <time>2013-08-18T08:15:39.000Z</time>
      </trkpt>
      <trkpt lat="44.52125" lon="6.72386">
        <ele>1756.9</ele>
        <time>2013-08-18T08:15:45.000Z</time>
      </trkpt>
      <trkpt lat="44.52143" lon="6.72369">
        <ele>1760.5</ele>
        <time>2013-08-18T08:15:52.000Z</time>
      </trkpt>
      <trkpt lat="44.52147" lon="6.72338">
        <ele>1759.3</ele>
        <time>2013-08-18T08:16:00.000Z</time>
      </trkpt>
      <trkpt lat="44.52158" lon="6.72311">
        <ele>1753.2</ele>
        <time>2013-08-18T08:16:10.000Z</time>
      </trkpt>
      <trkpt lat="44.52177" lon="6.72294">
        <ele>1752</ele>
        <time>2013-08-18T08:16:18.000Z</time>
      </trkpt>
      <trkpt lat="44.52184" lon="6.72264">
        <ele>1749.6</ele>
        <time>2013-08-18T08:16:26.000Z</time>
      </trkpt>
      <trkpt lat="44.52188" lon="6.72232">
        <ele>1749.9</ele>
        <time>2013-08-18T08:16:34.000Z</time>
      </trkpt>
      <trkpt lat="44.52207" lon="6.72214">
        <ele>1751.7</ele>
        <time>2013-08-18T08:16:42.000Z</time>
      </trkpt>
      <trkpt lat="44.52216" lon="6.72184">
        <ele>1749.6</ele>
        <time>2013-08-18T08:16:49.000Z</time>
      </trkpt>
      <trkpt lat="44.52225" lon="6.72155">
        <ele>1748.9</ele>
        <time>2013-08-18T08:16:57.000Z</time>
      </trkpt>
      <trkpt lat="44.52239" lon="6.72132">
        <ele>1750.8</ele>
        <time>2013-08-18T08:17:05.000Z</time>
      </trkpt>
      <trkpt lat="44.5226" lon="6.72113">
        <ele>1755.3</ele>
        <time>2013-08-18T08:17:12.000Z</time>
      </trkpt>
      <trkpt lat="44.52276" lon="6.72088">
        <ele>1756.3</ele>
        <time>2013-08-18T08:17:19.000Z</time>
      </trkpt>
      <trkpt lat="44.5228" lon="6.72057">
        <ele>1754.4</ele>
        <time>2013-08-18T08:17:25.000Z</time>
      </trkpt>
      <trkpt lat="44.52284" lon="6.72026">
        <ele>1752.3</ele>
        <time>2013-08-18T08:17:32.000Z</time>
      </trkpt>
      <trkpt lat="44.52293" lon="6.71993">
        <ele>1752</ele>
        <time>2013-08-18T08:17:40.000Z</time>
      </trkpt>
      <trkpt lat="44.52301" lon="6.71962">
        <ele>1752</ele>
        <time>2013-08-18T08:17:47.000Z</time>
      </trkpt>
      <trkpt lat="44.5231" lon="6.71933">
        <ele>1751.7</ele>
        <time>2013-08-18T08:17:55.000Z</time>
      </trkpt>
      <trkpt lat="44.52325" lon="6.7191">
        <ele>1751.1</ele>
        <time>2013-08-18T08:18:02.000Z</time>
      </trkpt>
      <trkpt lat="44.52343" lon="6.7189">
        <ele>1750.8</ele>
        <time>2013-08-18T08:18:09.000Z</time>
      </trkpt>
      <trkpt lat="44.52362" lon="6.71869">
        <ele>1749.6</ele>
        <time>2013-08-18T08:18:17.000Z</time>
      </trkpt>
      <trkpt lat="44.52379" lon="6.71846">
        <ele>1748.9</ele>
        <time>2013-08-18T08:18:25.000Z</time>
      </trkpt>
      <trkpt lat="44.52395" lon="6.71823">
        <ele>1751.4</ele>
        <time>2013-08-18T08:18:31.000Z</time>
      </trkpt>
      <trkpt lat="44.52417" lon="6.71813">
        <ele>1755.6</ele>
        <time>2013-08-18T08:18:38.000Z</time>
      </trkpt>
      <trkpt lat="44.52436" lon="6.71797">
        <ele>1756.6</ele>
        <time>2013-08-18T08:18:45.000Z</time>
      </trkpt>
      <trkpt lat="44.52441" lon="6.71768">
        <ele>1754.7</ele>
        <time>2013-08-18T08:18:52.000Z</time>
      </trkpt>
      <trkpt lat="44.52435" lon="6.71735">
        <ele>1754.1</ele>
        <time>2013-08-18T08:19:00.000Z</time>
      </trkpt>
      <trkpt lat="44.52427" lon="6.71703">
        <ele>1755</ele>
        <time>2013-08-18T08:19:08.000Z</time>
      </trkpt>
      <trkpt lat="44.52422" lon="6.71671">
        <ele>1755.3</ele>
        <time>2013-08-18T08:19:15.000Z</time>
      </trkpt>
      <trkpt lat="44.52418" lon="6.71638">
        <ele>1755.3</ele>
        <time>2013-08-18T08:19:21.000Z</time>
      </trkpt>
      <trkpt lat="44.52415" lon="6.71606">
        <ele>1755</ele>
        <time>2013-08-18T08:19:28.000Z</time>
      </trkpt>
      <trkpt lat="44.52413" lon="6.71571">
        <ele>1754.1</ele>
        <time>2013-08-18T08:19:36.000Z</time>
      </trkpt>
      <trkpt lat="44.52413" lon="6.71539">
        <ele>1755.3</ele>
        <time>2013-08-18T08:19:43.000Z</time>
      </trkpt>
      <trkpt lat="44.52414" lon="6.71509">
        <ele>1755</ele>
        <time>2013-08-18T08:19:51.000Z</time>
      </trkpt>
      <trkpt lat="44.52419" lon="6.71478">
        <ele>1754.7</ele>
        <time>2013-08-18T08:19:58.000Z</time>
      </trkpt>
      <trkpt lat="44.52428" lon="6.71444">
        <ele>1752.6</ele>
        <time>2013-08-18T08:20:03.000Z</time>
      </trkpt>
      <trkpt lat="44.52435" lon="6.71412">
        <ele>1750.2</ele>
        <time>2013-08-18T08:20:07.000Z</time>
      </trkpt>
      <trkpt lat="44.52442" lon="6.71379">
        <ele>1747.4</ele>
        <time>2013-08-18T08:20:11.000Z</time>
      </trkpt>
      <trkpt lat="44.52445" lon="6.71344">
        <ele>1744.7</ele>
        <time>2013-08-18T08:20:15.000Z</time>
      </trkpt>
      <trkpt lat="44.52455" lon="6.71313">
        <ele>1743.2</ele>
        <time>2013-08-18T08:20:19.000Z</time>
      </trkpt>
      <trkpt lat="44.52465" lon="6.71285">
        <ele>1743.2</ele>
        <time>2013-08-18T08:20:24.000Z</time>
      </trkpt>
      <trkpt lat="44.52458" lon="6.7125">
        <ele>1742.2</ele>
        <time>2013-08-18T08:20:29.000Z</time>
      </trkpt>
      <trkpt lat="44.52457" lon="6.71219">
        <ele>1740.7</ele>
        <time>2013-08-18T08:20:33.000Z</time>
      </trkpt>
      <trkpt lat="44.5247" lon="6.71196">
        <ele>1739.2</ele>
        <time>2013-08-18T08:20:41.000Z</time>
      </trkpt>
      <trkpt lat="44.52487" lon="6.71193">
        <ele>1743.8</ele>
        <time>2013-08-18T08:21:07.000Z</time>
      </trkpt>
      <trkpt lat="44.52488" lon="6.71209">
        <ele>1737.7</ele>
        <time>2013-08-18T08:21:36.000Z</time>
      </trkpt>
      <trkpt lat="44.52502" lon="6.71203">
        <ele>1734.6</ele>
        <time>2013-08-18T08:26:00.000Z</time>
      </trkpt>
      <trkpt lat="44.52488" lon="6.71202">
        <ele>1727.9</ele>
        <time>2013-08-18T08:27:25.000Z</time>
      </trkpt>
      <trkpt lat="44.52492" lon="6.71198">
        <ele>1719.1</ele>
        <time>2013-08-18T08:28:07.000Z</time>
      </trkpt>
      <trkpt lat="44.52493" lon="6.71202">
        <ele>1723</ele>
        <time>2013-08-18T08:28:48.000Z</time>
      </trkpt>
      <trkpt lat="44.52494" lon="6.71206">
        <ele>1727</ele>
        <time>2013-08-18T08:34:11.000Z</time>
      </trkpt>
      <trkpt lat="44.52515" lon="6.7121">
        <ele>1735.8</ele>
        <time>2013-08-18T08:35:55.000Z</time>
      </trkpt>
      <trkpt lat="44.52538" lon="6.712">
        <ele>1734</ele>
        <time>2013-08-18T08:36:03.000Z</time>
      </trkpt>
      <trkpt lat="44.52556" lon="6.71222">
        <ele>1732.2</ele>
        <time>2013-08-18T08:36:11.000Z</time>
      </trkpt>
      <trkpt lat="44.52571" lon="6.71247">
        <ele>1731.3</ele>
        <time>2013-08-18T08:36:18.000Z</time>
      </trkpt>
      <trkpt lat="44.52587" lon="6.71272">
        <ele>1731.6</ele>
        <time>2013-08-18T08:36:25.000Z</time>
      </trkpt>
      <trkpt lat="44.52607" lon="6.71284">
        <ele>1731</ele>
        <time>2013-08-18T08:36:34.000Z</time>
      </trkpt>
      <trkpt lat="44.52626" lon="6.71302">
        <ele>1732.8</ele>
        <time>2013-08-18T08:36:44.000Z</time>
      </trkpt>
      <trkpt lat="44.52639" lon="6.71331">
        <ele>1733.1</ele>
        <time>2013-08-18T08:36:53.000Z</time>
      </trkpt>
      <trkpt lat="44.52646" lon="6.71363">
        <ele>1734.9</ele>
        <time>2013-08-18T08:37:01.000Z</time>
      </trkpt>
      <trkpt lat="44.5265" lon="6.71395">
        <ele>1737.1</ele>
        <time>2013-08-18T08:37:11.000Z</time>
      </trkpt>
      <trkpt lat="44.52651" lon="6.7143">
        <ele>1738.3</ele>
        <time>2013-08-18T08:37:20.000Z</time>
      </trkpt>
      <trkpt lat="44.52658" lon="6.71461">
        <ele>1739.5</ele>
        <time>2013-08-18T08:37:27.000Z</time>
      </trkpt>
      <trkpt lat="44.52662" lon="6.71492">
        <ele>1739.5</ele>
        <time>2013-08-18T08:37:35.000Z</time>
      </trkpt>
      <trkpt lat="44.52665" lon="6.71524">
        <ele>1739.2</ele>
        <time>2013-08-18T08:37:43.000Z</time>
      </trkpt>
      <trkpt lat="44.52666" lon="6.71556">
        <ele>1738.3</ele>
        <time>2013-08-18T08:37:51.000Z</time>
      </trkpt>
      <trkpt lat="44.52671" lon="6.71587">
        <ele>1737.1</ele>
        <time>2013-08-18T08:37:58.000Z</time>
      </trkpt>
      <trkpt lat="44.52676" lon="6.71621">
        <ele>1735.8</ele>
        <time>2013-08-18T08:38:05.000Z</time>
      </trkpt>
      <trkpt lat="44.52676" lon="6.71654">
        <ele>1735.5</ele>
        <time>2013-08-18T08:38:11.000Z</time>
      </trkpt>
      <trkpt lat="44.52679" lon="6.71688">
        <ele>1734.3</ele>
        <time>2013-08-18T08:38:18.000Z</time>
      </trkpt>
      <trkpt lat="44.52679" lon="6.71722">
        <ele>1733.7</ele>
        <time>2013-08-18T08:38:26.000Z</time>
      </trkpt>
      <trkpt lat="44.52736" lon="6.71726">
        <ele>1731.6</ele>
        <time>2013-08-18T07:31:39.000Z</time>
      </trkpt>
      <trkpt lat="44.52736" lon="6.71726">
        <ele>1731.6</ele>
        <time>2013-08-18T07:31:39.000Z</time>
      </trkpt>
      <trkpt lat="44.52721" lon="6.71694">
        <ele>1735.8</ele>
        <time>2013-08-18T07:31:42.000Z</time>
      </trkpt>
      <trkpt lat="44.52718" lon="6.71661">
        <ele>1740.4</ele>
        <time>2013-08-18T07:31:46.000Z</time>
      </trkpt>
      <trkpt lat="44.52718" lon="6.71626">
        <ele>1742.8</ele>
        <time>2013-08-18T07:31:49.000Z</time>
      </trkpt>
      <trkpt lat="44.52716" lon="6.71596">
        <ele>1745.9</ele>
        <time>2013-08-18T07:31:51.000Z</time>
      </trkpt>
      <trkpt lat="44.52717" lon="6.71561">
        <ele>1751.1</ele>
        <time>2013-08-18T07:31:55.000Z</time>
      </trkpt>
      <trkpt lat="44.52715" lon="6.71525">
        <ele>1755.3</ele>
        <time>2013-08-18T07:32:00.000Z</time>
      </trkpt>
      <trkpt lat="44.52718" lon="6.71501">
        <ele>1762.4</ele>
        <time>2013-08-18T07:32:05.000Z</time>
      </trkpt>
      <trkpt lat="44.52725" lon="6.71531">
        <ele>1763.9</ele>
        <time>2013-08-18T07:32:09.000Z</time>
      </trkpt>
      <trkpt lat="44.5273" lon="6.71566">
        <ele>1765.7</ele>
        <time>2013-08-18T07:32:12.000Z</time>
      </trkpt>
      <trkpt lat="44.52741" lon="6.71602">
        <ele>1769.7</ele>
        <time>2013-08-18T07:32:16.000Z</time>
      </trkpt>
      <trkpt lat="44.52753" lon="6.71637">
        <ele>1771.5</ele>
        <time>2013-08-18T07:32:20.000Z</time>
      </trkpt>
      <trkpt lat="44.52764" lon="6.71675">
        <ele>1773</ele>
        <time>2013-08-18T07:32:24.000Z</time>
      </trkpt>
      <trkpt lat="44.52782" lon="6.71705">
        <ele>1773.6</ele>
        <time>2013-08-18T07:32:28.000Z</time>
      </trkpt>
      <trkpt lat="44.52793" lon="6.71739">
        <ele>1774.9</ele>
        <time>2013-08-18T07:32:32.000Z</time>
      </trkpt>
      <trkpt lat="44.52796" lon="6.71773">
        <ele>1776.7</ele>
        <time>2013-08-18T07:32:35.000Z</time>
      </trkpt>
      <trkpt lat="44.52796" lon="6.71807">
        <ele>1778.5</ele>
        <time>2013-08-18T07:32:37.000Z</time>
      </trkpt>
      <trkpt lat="44.52801" lon="6.71838">
        <ele>1780.6</ele>
        <time>2013-08-18T07:32:40.000Z</time>
      </trkpt>
      <trkpt lat="44.52808" lon="6.71871">
        <ele>1781.6</ele>
        <time>2013-08-18T07:32:44.000Z</time>
      </trkpt>
      <trkpt lat="44.52817" lon="6.71906">
        <ele>1781.3</ele>
        <time>2013-08-18T07:32:47.000Z</time>
      </trkpt>
      <trkpt lat="44.52826" lon="6.71942">
        <ele>1780</ele>
        <time>2013-08-18T07:32:49.000Z</time>
      </trkpt>
      <trkpt lat="44.52832" lon="6.71978">
        <ele>1779.1</ele>
        <time>2013-08-18T07:32:52.000Z</time>
      </trkpt>
      <trkpt lat="44.52835" lon="6.72009">
        <ele>1782.2</ele>
        <time>2013-08-18T07:32:55.000Z</time>
      </trkpt>
      <trkpt lat="44.5284" lon="6.72041">
        <ele>1787.7</ele>
        <time>2013-08-18T07:32:59.000Z</time>
      </trkpt>
      <trkpt lat="44.52847" lon="6.72079">
        <ele>1794.1</ele>
        <time>2013-08-18T07:33:03.000Z</time>
      </trkpt>
      <trkpt lat="44.52853" lon="6.72111">
        <ele>1798.6</ele>
        <time>2013-08-18T07:33:06.000Z</time>
      </trkpt>
      <trkpt lat="44.52857" lon="6.72148">
        <ele>1803.8</ele>
        <time>2013-08-18T07:33:08.000Z</time>
      </trkpt>
      <trkpt lat="44.52858" lon="6.72181">
        <ele>1807.8</ele>
        <time>2013-08-18T07:33:11.000Z</time>
      </trkpt>
      <trkpt lat="44.52859" lon="6.72219">
        <ele>1811.4</ele>
        <time>2013-08-18T07:33:15.000Z</time>
      </trkpt>
      <trkpt lat="44.5288" lon="6.72215">
        <ele>1815.4</ele>
        <time>2013-08-18T07:33:21.000Z</time>
      </trkpt>
      <trkpt lat="44.52884" lon="6.72182">
        <ele>1816.9</ele>
        <time>2013-08-18T07:33:23.000Z</time>
      </trkpt>
      <trkpt lat="44.52888" lon="6.72142">
        <ele>1818.4</ele>
        <time>2013-08-18T07:33:26.000Z</time>
      </trkpt>
      <trkpt lat="44.52893" lon="6.72098">
        <ele>1819.7</ele>
        <time>2013-08-18T07:33:30.000Z</time>
      </trkpt>
      <trkpt lat="44.52895" lon="6.72067">
        <ele>1821.5</ele>
        <time>2013-08-18T07:33:31.000Z</time>
      </trkpt>
      <trkpt lat="44.52899" lon="6.72035">
        <ele>1824.2</ele>
        <time>2013-08-18T07:33:34.000Z</time>
      </trkpt>
      <trkpt lat="44.52903" lon="6.72004">
        <ele>1827.6</ele>
        <time>2013-08-18T07:33:35.000Z</time>
      </trkpt>
      <trkpt lat="44.52906" lon="6.71972">
        <ele>1830.6</ele>
        <time>2013-08-18T07:33:38.000Z</time>
      </trkpt>
      <trkpt lat="44.52911" lon="6.7194">
        <ele>1833.4</ele>
        <time>2013-08-18T07:33:39.000Z</time>
      </trkpt>
      <trkpt lat="44.52916" lon="6.71906">
        <ele>1835.8</ele>
        <time>2013-08-18T07:33:42.000Z</time>
      </trkpt>
      <trkpt lat="44.5292" lon="6.71872">
        <ele>1838.6</ele>
        <time>2013-08-18T07:33:44.000Z</time>
      </trkpt>
      <trkpt lat="44.52924" lon="6.71836">
        <ele>1841.6</ele>
        <time>2013-08-18T07:33:45.000Z</time>
      </trkpt>
      <trkpt lat="44.52928" lon="6.71801">
        <ele>1845.3</ele>
        <time>2013-08-18T07:33:48.000Z</time>
      </trkpt>
      <trkpt lat="44.52932" lon="6.71768">
        <ele>1848.6</ele>
        <time>2013-08-18T07:33:49.000Z</time>
      </trkpt>
      <trkpt lat="44.52939" lon="6.71726">
        <ele>1854.7</ele>
        <time>2013-08-18T07:33:53.000Z</time>
      </trkpt>
      <trkpt lat="44.52946" lon="6.71691">
        <ele>1860.2</ele>
        <time>2013-08-18T07:33:56.000Z</time>
      </trkpt>
      <trkpt lat="44.52943" lon="6.71654">
        <ele>1864.2</ele>
        <time>2013-08-18T07:33:58.000Z</time>
      </trkpt>
      <trkpt lat="44.5294" lon="6.71612">
        <ele>1867.2</ele>
        <time>2013-08-18T07:34:01.000Z</time>
      </trkpt>
      <trkpt lat="44.52942" lon="6.71571">
        <ele>1868.7</ele>
        <time>2013-08-18T07:34:05.000Z</time>
      </trkpt>
      <trkpt lat="44.52947" lon="6.71529">
        <ele>1870.3</ele>
        <time>2013-08-18T07:34:08.000Z</time>
      </trkpt>
      <trkpt lat="44.5295" lon="6.71485">
        <ele>1872.7</ele>
        <time>2013-08-18T07:34:11.000Z</time>
      </trkpt>
      <trkpt lat="44.52954" lon="6.71438">
        <ele>1875.7</ele>
        <time>2013-08-18T07:34:13.000Z</time>
      </trkpt>
      <trkpt lat="44.52959" lon="6.71407">
        <ele>1878.5</ele>
        <time>2013-08-18T07:34:16.000Z</time>
      </trkpt>
      <trkpt lat="44.52965" lon="6.71377">
        <ele>1881.8</ele>
        <time>2013-08-18T07:34:17.000Z</time>
      </trkpt>
      <trkpt lat="44.52969" lon="6.71345">
        <ele>1884.9</ele>
        <time>2013-08-18T07:34:20.000Z</time>
      </trkpt>
      <trkpt lat="44.52969" lon="6.7128">
        <ele>1891.6</ele>
        <time>2013-08-18T07:34:24.000Z</time>
      </trkpt>
      <trkpt lat="44.52967" lon="6.71249">
        <ele>1894.6</ele>
        <time>2013-08-18T07:34:25.000Z</time>
      </trkpt>
      <trkpt lat="44.52969" lon="6.71206">
        <ele>1898.6</ele>
        <time>2013-08-18T07:34:28.000Z</time>
      </trkpt>
      <trkpt lat="44.52975" lon="6.71167">
        <ele>1901.6</ele>
        <time>2013-08-18T07:34:32.000Z</time>
      </trkpt>
      <trkpt lat="44.52987" lon="6.71132">
        <ele>1903.8</ele>
        <time>2013-08-18T07:34:35.000Z</time>
      </trkpt>
      <trkpt lat="44.53005" lon="6.71102">
        <ele>1905.9</ele>
        <time>2013-08-18T07:34:38.000Z</time>
      </trkpt>
      <trkpt lat="44.53024" lon="6.71071">
        <ele>1909.3</ele>
        <time>2013-08-18T07:34:40.000Z</time>
      </trkpt>
      <trkpt lat="44.53045" lon="6.71037">
        <ele>1912.3</ele>
        <time>2013-08-18T07:34:43.000Z</time>
      </trkpt>
      <trkpt lat="44.5306" lon="6.71002">
        <ele>1915.4</ele>
        <time>2013-08-18T07:34:47.000Z</time>
      </trkpt>
      <trkpt lat="44.53077" lon="6.70983">
        <ele>1920.2</ele>
        <time>2013-08-18T07:34:51.000Z</time>
      </trkpt>
      <trkpt lat="44.5308" lon="6.71015">
        <ele>1924.8</ele>
        <time>2013-08-18T07:34:55.000Z</time>
      </trkpt>
      <trkpt lat="44.5307" lon="6.71044">
        <ele>1926</ele>
        <time>2013-08-18T07:34:58.000Z</time>
      </trkpt>
      <trkpt lat="44.53055" lon="6.71077">
        <ele>1927.9</ele>
        <time>2013-08-18T07:35:00.000Z</time>
      </trkpt>
      <trkpt lat="44.53043" lon="6.71115">
        <ele>1928.5</ele>
        <time>2013-08-18T07:35:03.000Z</time>
      </trkpt>
      <trkpt lat="44.5304" lon="6.71161">
        <ele>1930</ele>
        <time>2013-08-18T07:35:06.000Z</time>
      </trkpt>
      <trkpt lat="44.53046" lon="6.71192">
        <ele>1931.2</ele>
        <time>2013-08-18T07:35:09.000Z</time>
      </trkpt>
      <trkpt lat="44.53057" lon="6.71221">
        <ele>1932.4</ele>
        <time>2013-08-18T07:35:10.000Z</time>
      </trkpt>
      <trkpt lat="44.53069" lon="6.7125">
        <ele>1933.3</ele>
        <time>2013-08-18T07:35:13.000Z</time>
      </trkpt>
      <trkpt lat="44.53086" lon="6.71287">
        <ele>1936.1</ele>
        <time>2013-08-18T07:35:15.000Z</time>
      </trkpt>
      <trkpt lat="44.53107" lon="6.71312">
        <ele>1938.8</ele>
        <time>2013-08-18T07:35:18.000Z</time>
      </trkpt>
      <trkpt lat="44.53129" lon="6.71312">
        <ele>1941.3</ele>
        <time>2013-08-18T07:35:22.000Z</time>
      </trkpt>
      <trkpt lat="44.53147" lon="6.71284">
        <ele>1943.7</ele>
        <time>2013-08-18T07:35:25.000Z</time>
      </trkpt>
      <trkpt lat="44.53148" lon="6.71245">
        <ele>1943.7</ele>
        <time>2013-08-18T07:35:27.000Z</time>
      </trkpt>
      <trkpt lat="44.53135" lon="6.71207">
        <ele>1944.9</ele>
        <time>2013-08-18T07:35:30.000Z</time>
      </trkpt>
      <trkpt lat="44.53124" lon="6.71172">
        <ele>1947.4</ele>
        <time>2013-08-18T07:35:33.000Z</time>
      </trkpt>
      <trkpt lat="44.53119" lon="6.71136">
        <ele>1949.8</ele>
        <time>2013-08-18T07:35:37.000Z</time>
      </trkpt>
      <trkpt lat="44.53122" lon="6.711">
        <ele>1952.2</ele>
        <time>2013-08-18T07:35:40.000Z</time>
      </trkpt>
      <trkpt lat="44.53132" lon="6.71066">
        <ele>1954.4</ele>
        <time>2013-08-18T07:35:42.000Z</time>
      </trkpt>
      <trkpt lat="44.53148" lon="6.71037">
        <ele>1956.2</ele>
        <time>2013-08-18T07:35:45.000Z</time>
      </trkpt>
      <trkpt lat="44.53171" lon="6.71012">
        <ele>1957.7</ele>
        <time>2013-08-18T07:35:49.000Z</time>
      </trkpt>
      <trkpt lat="44.53199" lon="6.70988">
        <ele>1960.8</ele>
        <time>2013-08-18T07:35:52.000Z</time>
      </trkpt>
      <trkpt lat="44.53226" lon="6.70964">
        <ele>1965.4</ele>
        <time>2013-08-18T07:35:54.000Z</time>
      </trkpt>
      <trkpt lat="44.53252" lon="6.70935">
        <ele>1970.2</ele>
        <time>2013-08-18T07:35:57.000Z</time>
      </trkpt>
      <trkpt lat="44.53268" lon="6.7091">
        <ele>1972.4</ele>
        <time>2013-08-18T07:36:00.000Z</time>
      </trkpt>
      <trkpt lat="44.53282" lon="6.70883">
        <ele>1975.1</ele>
        <time>2013-08-18T07:36:01.000Z</time>
      </trkpt>
      <trkpt lat="44.53299" lon="6.70852">
        <ele>1979.4</ele>
        <time>2013-08-18T07:36:04.000Z</time>
      </trkpt>
      <trkpt lat="44.53304" lon="6.70823">
        <ele>1982.1</ele>
        <time>2013-08-18T07:36:08.000Z</time>
      </trkpt>
      <trkpt lat="44.53297" lon="6.70791">
        <ele>1984.9</ele>
        <time>2013-08-18T07:36:11.000Z</time>
      </trkpt>
      <trkpt lat="44.53275" lon="6.70767">
        <ele>1988.2</ele>
        <time>2013-08-18T07:36:13.000Z</time>
      </trkpt>
      <trkpt lat="44.53253" lon="6.70747">
        <ele>1991.3</ele>
        <time>2013-08-18T07:36:16.000Z</time>
      </trkpt>
      <trkpt lat="44.53241" lon="6.70718">
        <ele>1993.7</ele>
        <time>2013-08-18T07:36:20.000Z</time>
      </trkpt>
      <trkpt lat="44.53238" lon="6.70678">
        <ele>1996.1</ele>
        <time>2013-08-18T07:36:23.000Z</time>
      </trkpt>
      <trkpt lat="44.53236" lon="6.70637">
        <ele>1999.2</ele>
        <time>2013-08-18T07:36:26.000Z</time>
      </trkpt>
      <trkpt lat="44.53235" lon="6.70594">
        <ele>2001.6</ele>
        <time>2013-08-18T07:36:28.000Z</time>
      </trkpt>
      <trkpt lat="44.53234" lon="6.70547">
        <ele>2004.1</ele>
        <time>2013-08-18T07:36:31.000Z</time>
      </trkpt>
      <trkpt lat="44.53231" lon="6.70514">
        <ele>2006.2</ele>
        <time>2013-08-18T07:36:34.000Z</time>
      </trkpt>
      <trkpt lat="44.53223" lon="6.70483">
        <ele>2008</ele>
        <time>2013-08-18T07:36:35.000Z</time>
      </trkpt>
      <trkpt lat="44.53215" lon="6.70451">
        <ele>2010.5</ele>
        <time>2013-08-18T07:36:38.000Z</time>
      </trkpt>
      <trkpt lat="44.53212" lon="6.7042">
        <ele>2012.6</ele>
        <time>2013-08-18T07:36:39.000Z</time>
      </trkpt>
      <trkpt lat="44.53214" lon="6.70387">
        <ele>2014.4</ele>
        <time>2013-08-18T07:36:42.000Z</time>
      </trkpt>
      <trkpt lat="44.53217" lon="6.70355">
        <ele>2016.6</ele>
        <time>2013-08-18T07:36:43.000Z</time>
      </trkpt>
      <trkpt lat="44.53218" lon="6.70324">
        <ele>2018.7</ele>
        <time>2013-08-18T07:36:46.000Z</time>
      </trkpt>
      <trkpt lat="44.53215" lon="6.7028">
        <ele>2021.7</ele>
        <time>2013-08-18T07:36:48.000Z</time>
      </trkpt>
      <trkpt lat="44.53208" lon="6.7024">
        <ele>2024.5</ele>
        <time>2013-08-18T07:36:51.000Z</time>
      </trkpt>
      <trkpt lat="44.53197" lon="6.70204">
        <ele>2029.1</ele>
        <time>2013-08-18T07:36:54.000Z</time>
      </trkpt>
      <trkpt lat="44.53182" lon="6.70176">
        <ele>2037.3</ele>
        <time>2013-08-18T07:36:59.000Z</time>
      </trkpt>
      <trkpt lat="44.53168" lon="6.70147">
        <ele>2045.2</ele>
        <time>2013-08-18T07:37:05.000Z</time>
      </trkpt>
      <trkpt lat="44.53169" lon="6.70152">
        <ele>2033.3</ele>
        <time>2013-08-18T07:37:45.000Z</time>
      </trkpt>
      <trkpt lat="44.53185" lon="6.70147">
        <ele>2025.7</ele>
        <time>2013-08-18T07:38:09.000Z</time>
      </trkpt>
      <trkpt lat="44.53181" lon="6.70149">
        <ele>2028.1</ele>
        <time>2013-08-18T07:38:55.000Z</time>
      </trkpt>
      <trkpt lat="44.53176" lon="6.70147">
        <ele>2029.4</ele>
        <time>2013-08-18T07:40:00.000Z</time>
      </trkpt>
      <trkpt lat="44.53198" lon="6.70149">
        <ele>2029.4</ele>
        <time>2013-08-18T07:40:07.000Z</time>
      </trkpt>
      <trkpt lat="44.53212" lon="6.70175">
        <ele>2030.9</ele>
        <time>2013-08-18T07:40:14.000Z</time>
      </trkpt>
      <trkpt lat="44.53222" lon="6.70206">
        <ele>2033.6</ele>
        <time>2013-08-18T07:40:22.000Z</time>
      </trkpt>
      <trkpt lat="44.53231" lon="6.70238">
        <ele>2036.7</ele>
        <time>2013-08-18T07:40:30.000Z</time>
      </trkpt>
      <trkpt lat="44.53239" lon="6.70268">
        <ele>2039.7</ele>
        <time>2013-08-18T07:40:38.000Z</time>
      </trkpt>
      <trkpt lat="44.53248" lon="6.70297">
        <ele>2043.1</ele>
        <time>2013-08-18T07:40:49.000Z</time>
      </trkpt>
      <trkpt lat="44.5326" lon="6.70324">
        <ele>2046.4</ele>
        <time>2013-08-18T07:40:58.000Z</time>
      </trkpt>
      <trkpt lat="44.53274" lon="6.70349">
        <ele>2048.3</ele>
        <time>2013-08-18T07:41:09.000Z</time>
      </trkpt>
      <trkpt lat="44.53285" lon="6.70376">
        <ele>2050.4</ele>
        <time>2013-08-18T07:41:18.000Z</time>
      </trkpt>
      <trkpt lat="44.53292" lon="6.70407">
        <ele>2054</ele>
        <time>2013-08-18T07:41:28.000Z</time>
      </trkpt>
      <trkpt lat="44.53298" lon="6.70438">
        <ele>2057.7</ele>
        <time>2013-08-18T07:41:39.000Z</time>
      </trkpt>
      <trkpt lat="44.53309" lon="6.70466">
        <ele>2059.8</ele>
        <time>2013-08-18T07:41:48.000Z</time>
      </trkpt>
      <trkpt lat="44.5333" lon="6.7048">
        <ele>2061.7</ele>
        <time>2013-08-18T07:41:59.000Z</time>
      </trkpt>
      <trkpt lat="44.53353" lon="6.70477">
        <ele>2062.9</ele>
        <time>2013-08-18T07:42:08.000Z</time>
      </trkpt>
      <trkpt lat="44.53375" lon="6.70465">
        <ele>2063.8</ele>
        <time>2013-08-18T07:42:18.000Z</time>
      </trkpt>
      <trkpt lat="44.53397" lon="6.70456">
        <ele>2064.4</ele>
        <time>2013-08-18T07:42:29.000Z</time>
      </trkpt>
      <trkpt lat="44.53421" lon="6.70458">
        <ele>2066.2</ele>
        <time>2013-08-18T07:42:39.000Z</time>
      </trkpt>
      <trkpt lat="44.53442" lon="6.70469">
        <ele>2068.7</ele>
        <time>2013-08-18T07:42:49.000Z</time>
      </trkpt>
      <trkpt lat="44.53464" lon="6.70484">
        <ele>2072</ele>
        <time>2013-08-18T07:43:01.000Z</time>
      </trkpt>
      <trkpt lat="44.53487" lon="6.70491">
        <ele>2075.1</ele>
        <time>2013-08-18T07:43:10.000Z</time>
      </trkpt>
      <trkpt lat="44.5351" lon="6.70488">
        <ele>2077.5</ele>
        <time>2013-08-18T07:43:20.000Z</time>
      </trkpt>
      <trkpt lat="44.53532" lon="6.70475">
        <ele>2079.7</ele>
        <time>2013-08-18T07:43:31.000Z</time>
      </trkpt>
      <trkpt lat="44.5355" lon="6.70453">
        <ele>2081.2</ele>
        <time>2013-08-18T07:43:40.000Z</time>
      </trkpt>
      <trkpt lat="44.53565" lon="6.70427">
        <ele>2083</ele>
        <time>2013-08-18T07:43:51.000Z</time>
      </trkpt>
      <trkpt lat="44.53579" lon="6.70403">
        <ele>2084.5</ele>
        <time>2013-08-18T07:43:59.000Z</time>
      </trkpt>
      <trkpt lat="44.53595" lon="6.70379">
        <ele>2086.1</ele>
        <time>2013-08-18T07:44:09.000Z</time>
      </trkpt>
      <trkpt lat="44.5361" lon="6.70356">
        <ele>2087.9</ele>
        <time>2013-08-18T07:44:18.000Z</time>
      </trkpt>
      <trkpt lat="44.53632" lon="6.70343">
        <ele>2090</ele>
        <time>2013-08-18T07:44:26.000Z</time>
      </trkpt>
      <trkpt lat="44.53656" lon="6.70338">
        <ele>2093.4</ele>
        <time>2013-08-18T07:44:36.000Z</time>
      </trkpt>
      <trkpt lat="44.5368" lon="6.70335">
        <ele>2096.7</ele>
        <time>2013-08-18T07:44:45.000Z</time>
      </trkpt>
      <trkpt lat="44.53702" lon="6.70329">
        <ele>2098.5</ele>
        <time>2013-08-18T07:44:54.000Z</time>
      </trkpt>
      <trkpt lat="44.53724" lon="6.70318">
        <ele>2099.2</ele>
        <time>2013-08-18T07:45:04.000Z</time>
      </trkpt>
      <trkpt lat="44.53746" lon="6.70307">
        <ele>2100.1</ele>
        <time>2013-08-18T07:45:12.000Z</time>
      </trkpt>
      <trkpt lat="44.53769" lon="6.70303">
        <ele>2102.2</ele>
        <time>2013-08-18T07:45:23.000Z</time>
      </trkpt>
      <trkpt lat="44.53792" lon="6.70304">
        <ele>2105.3</ele>
        <time>2013-08-18T07:45:32.000Z</time>
      </trkpt>
      <trkpt lat="44.53816" lon="6.70304">
        <ele>2107.7</ele>
        <time>2013-08-18T07:45:43.000Z</time>
      </trkpt>
      <trkpt lat="44.53838" lon="6.70302">
        <ele>2109.8</ele>
        <time>2013-08-18T07:45:51.000Z</time>
      </trkpt>
      <trkpt lat="44.53861" lon="6.70296">
        <ele>2113.8</ele>
        <time>2013-08-18T07:45:59.000Z</time>
      </trkpt>
      <trkpt lat="44.53883" lon="6.70289">
        <ele>2120.2</ele>
        <time>2013-08-18T07:46:11.000Z</time>
      </trkpt>
      <trkpt lat="44.53884" lon="6.70287">
        <ele>2133</ele>
        <time>2013-08-18T07:47:36.000Z</time>
      </trkpt>
      <trkpt lat="44.53877" lon="6.70289">
        <ele>2149.8</ele>
        <time>2013-08-18T07:48:14.000Z</time>
      </trkpt>
      <trkpt lat="44.53869" lon="6.70284">
        <ele>2178.7</ele>
        <time>2013-08-18T07:49:00.000Z</time>
      </trkpt>
      <trkpt lat="44.53888" lon="6.70295">
        <ele>2114.1</ele>
        <time>2013-08-18T07:49:41.000Z</time>
      </trkpt>
      <trkpt lat="44.53864" lon="6.70296">
        <ele>2143.7</ele>
        <time>2013-08-18T07:50:51.000Z</time>
      </trkpt>
      <trkpt lat="44.53842" lon="6.70299">
        <ele>2145.8</ele>
        <time>2013-08-18T07:50:56.000Z</time>
      </trkpt>
      <trkpt lat="44.53818" lon="6.70305">
        <ele>2141.8</ele>
        <time>2013-08-18T07:51:03.000Z</time>
      </trkpt>
      <trkpt lat="44.53794" lon="6.70315">
        <ele>2135.1</ele>
        <time>2013-08-18T07:51:07.000Z</time>
      </trkpt>
      <trkpt lat="44.5377" lon="6.70328">
        <ele>2127.8</ele>
        <time>2013-08-18T07:51:11.000Z</time>
      </trkpt>
      <trkpt lat="44.5375" lon="6.70343">
        <ele>2119.3</ele>
        <time>2013-08-18T07:51:18.000Z</time>
      </trkpt>
      <trkpt lat="44.53737" lon="6.70368">
        <ele>2118.1</ele>
        <time>2013-08-18T07:51:27.000Z</time>
      </trkpt>
      <trkpt lat="44.53721" lon="6.7039">
        <ele>2121.4</ele>
        <time>2013-08-18T07:51:38.000Z</time>
      </trkpt>
      <trkpt lat="44.53704" lon="6.70414">
        <ele>2122.6</ele>
        <time>2013-08-18T07:51:50.000Z</time>
      </trkpt>
      <trkpt lat="44.53688" lon="6.70435">
        <ele>2125.1</ele>
        <time>2013-08-18T07:52:02.000Z</time>
      </trkpt>
      <trkpt lat="44.53671" lon="6.70457">
        <ele>2125.7</ele>
        <time>2013-08-18T07:52:16.000Z</time>
      </trkpt>
      <trkpt lat="44.53656" lon="6.70481">
        <ele>2128.1</ele>
        <time>2013-08-18T07:52:28.000Z</time>
      </trkpt>
      <trkpt lat="44.53644" lon="6.70508">
        <ele>2131.5</ele>
        <time>2013-08-18T07:52:39.000Z</time>
      </trkpt>
      <trkpt lat="44.53635" lon="6.70538">
        <ele>2133.6</ele>
        <time>2013-08-18T07:52:52.000Z</time>
      </trkpt>
      <trkpt lat="44.53632" lon="6.70569">
        <ele>2132.1</ele>
        <time>2013-08-18T07:53:06.000Z</time>
      </trkpt>
      <trkpt lat="44.53644" lon="6.70597">
        <ele>2130.6</ele>
        <time>2013-08-18T07:53:21.000Z</time>
      </trkpt>
      <trkpt lat="44.53659" lon="6.70622">
        <ele>2129.6</ele>
        <time>2013-08-18T07:53:36.000Z</time>
      </trkpt>
      <trkpt lat="44.53672" lon="6.70647">
        <ele>2130.2</ele>
        <time>2013-08-18T07:53:49.000Z</time>
      </trkpt>
      <trkpt lat="44.53662" lon="6.70676">
        <ele>2135.7</ele>
        <time>2013-08-18T07:54:00.000Z</time>
      </trkpt>
      <trkpt lat="44.53656" lon="6.70705">
        <ele>2140.3</ele>
        <time>2013-08-18T07:54:12.000Z</time>
      </trkpt>
      <trkpt lat="44.53653" lon="6.70737">
        <ele>2142.1</ele>
        <time>2013-08-18T07:54:24.000Z</time>
      </trkpt>
      <trkpt lat="44.53646" lon="6.70767">
        <ele>2144.6</ele>
        <time>2013-08-18T07:54:36.000Z</time>
      </trkpt>
      <trkpt lat="44.53642" lon="6.70799">
        <ele>2146.4</ele>
        <time>2013-08-18T07:54:50.000Z</time>
      </trkpt>
      <trkpt lat="44.53634" lon="6.70828">
        <ele>2148.8</ele>
        <time>2013-08-18T07:55:02.000Z</time>
      </trkpt>
      <trkpt lat="44.53647" lon="6.70846">
        <ele>2148.5</ele>
        <time>2013-08-18T07:55:14.000Z</time>
      </trkpt>
      <trkpt lat="44.5367" lon="6.70846">
        <ele>2147.3</ele>
        <time>2013-08-18T07:55:25.000Z</time>
      </trkpt>
      <trkpt lat="44.53684" lon="6.70863">
        <ele>2146.4</ele>
        <time>2013-08-18T07:55:36.000Z</time>
      </trkpt>
      <trkpt lat="44.53691" lon="6.70894">
        <ele>2149.4</ele>
        <time>2013-08-18T07:55:48.000Z</time>
      </trkpt>
      <trkpt lat="44.53705" lon="6.70919">
        <ele>2152.2</ele>
        <time>2013-08-18T07:56:00.000Z</time>
      </trkpt>
      <trkpt lat="44.5372" lon="6.70943">
        <ele>2154</ele>
        <time>2013-08-18T07:56:11.000Z</time>
      </trkpt>
      <trkpt lat="44.5374" lon="6.7096">
        <ele>2154.3</ele>
        <time>2013-08-18T07:56:22.000Z</time>
      </trkpt>
      <trkpt lat="44.53762" lon="6.70957">
        <ele>2157.4</ele>
        <time>2013-08-18T07:56:32.000Z</time>
      </trkpt>
      <trkpt lat="44.53785" lon="6.70961">
        <ele>2158</ele>
        <time>2013-08-18T07:56:43.000Z</time>
      </trkpt>
      <trkpt lat="44.53799" lon="6.70988">
        <ele>2160.4</ele>
        <time>2013-08-18T07:56:55.000Z</time>
      </trkpt>
      <trkpt lat="44.53809" lon="6.71016">
        <ele>2163.5</ele>
        <time>2013-08-18T07:57:08.000Z</time>
      </trkpt>
      <trkpt lat="44.53825" lon="6.7104">
        <ele>2165.6</ele>
        <time>2013-08-18T07:57:20.000Z</time>
      </trkpt>
      <trkpt lat="44.53848" lon="6.71048">
        <ele>2167.1</ele>
        <time>2013-08-18T07:57:32.000Z</time>
      </trkpt>
      <trkpt lat="44.53869" lon="6.71064">
        <ele>2167.7</ele>
        <time>2013-08-18T07:57:44.000Z</time>
      </trkpt>
      <trkpt lat="44.53886" lon="6.71082">
        <ele>2166.5</ele>
        <time>2013-08-18T07:57:52.000Z</time>
      </trkpt>
      <trkpt lat="44.53907" lon="6.71097">
        <ele>2165</ele>
        <time>2013-08-18T07:58:00.000Z</time>
      </trkpt>
      <trkpt lat="44.53931" lon="6.71103">
        <ele>2163.8</ele>
        <time>2013-08-18T07:58:07.000Z</time>
      </trkpt>
      <trkpt lat="44.53955" lon="6.71111">
        <ele>2162.9</ele>
        <time>2013-08-18T07:58:14.000Z</time>
      </trkpt>
      <trkpt lat="44.53978" lon="6.71126">
        <ele>2162.3</ele>
        <time>2013-08-18T07:58:19.000Z</time>
      </trkpt>
      <trkpt lat="44.53997" lon="6.71141">
        <ele>2164.4</ele>
        <time>2013-08-18T07:58:27.000Z</time>
      </trkpt>
      <trkpt lat="44.54019" lon="6.71148">
        <ele>2167.4</ele>
        <time>2013-08-18T07:58:35.000Z</time>
      </trkpt>
      <trkpt lat="44.54042" lon="6.71146">
        <ele>2169.6</ele>
        <time>2013-08-18T07:58:45.000Z</time>
      </trkpt>
      <trkpt lat="44.54066" lon="6.71144">
        <ele>2171.7</ele>
        <time>2013-08-18T07:58:54.000Z</time>
      </trkpt>
      <trkpt lat="44.54089" lon="6.71143">
        <ele>2173.5</ele>
        <time>2013-08-18T07:59:05.000Z</time>
      </trkpt>
      <trkpt lat="44.54111" lon="6.71151">
        <ele>2175.7</ele>
        <time>2013-08-18T07:59:16.000Z</time>
      </trkpt>
      <trkpt lat="44.54135" lon="6.71153">
        <ele>2176.3</ele>
        <time>2013-08-18T07:59:25.000Z</time>
      </trkpt>
      <trkpt lat="44.54158" lon="6.71155">
        <ele>2176.3</ele>
        <time>2013-08-18T07:59:33.000Z</time>
      </trkpt>
      <trkpt lat="44.5416" lon="6.71175">
        <ele>2176.3</ele>
        <time>2013-08-18T08:00:22.000Z</time>
      </trkpt>
      <trkpt lat="44.54139" lon="6.71188">
        <ele>2176</ele>
        <time>2013-08-18T08:00:31.000Z</time>
      </trkpt>
      <trkpt lat="44.54118" lon="6.71199">
        <ele>2176</ele>
        <time>2013-08-18T08:00:41.000Z</time>
      </trkpt>
      <trkpt lat="44.54096" lon="6.71215">
        <ele>2175.7</ele>
        <time>2013-08-18T08:00:49.000Z</time>
      </trkpt>
      <trkpt lat="44.54075" lon="6.71226">
        <ele>2175.1</ele>
        <time>2013-08-18T08:00:56.000Z</time>
      </trkpt>
      <trkpt lat="44.54055" lon="6.71242">
        <ele>2173.8</ele>
        <time>2013-08-18T08:01:01.000Z</time>
      </trkpt>
      <trkpt lat="44.54042" lon="6.71268">
        <ele>2173.2</ele>
        <time>2013-08-18T08:01:08.000Z</time>
      </trkpt>
      <trkpt lat="44.54039" lon="6.71297">
        <ele>2170.2</ele>
        <time>2013-08-18T08:01:27.000Z</time>
      </trkpt>
      <trkpt lat="44.54059" lon="6.71307">
        <ele>2172.9</ele>
        <time>2013-08-18T08:01:46.000Z</time>
      </trkpt>
      <trkpt lat="44.54081" lon="6.71308">
        <ele>2173.5</ele>
        <time>2013-08-18T08:01:55.000Z</time>
      </trkpt>
      <trkpt lat="44.54104" lon="6.71304">
        <ele>2175.4</ele>
        <time>2013-08-18T08:02:06.000Z</time>
      </trkpt>
      <trkpt lat="44.54126" lon="6.71297">
        <ele>2175.7</ele>
        <time>2013-08-18T08:02:15.000Z</time>
      </trkpt>
      <trkpt lat="44.54148" lon="6.71283">
        <ele>2175.7</ele>
        <time>2013-08-18T08:02:26.000Z</time>
      </trkpt>
      <trkpt lat="44.54168" lon="6.71279">
        <ele>2178.1</ele>
        <time>2013-08-18T08:02:53.000Z</time>
      </trkpt>
      <trkpt lat="44.54176" lon="6.71306">
        <ele>2187.2</ele>
        <time>2013-08-18T08:03:35.000Z</time>
      </trkpt>
      <trkpt lat="44.54174" lon="6.71333">
        <ele>2197</ele>
        <time>2013-08-18T08:04:25.000Z</time>
      </trkpt>
      <trkpt lat="44.54154" lon="6.71349">
        <ele>2199.7</ele>
        <time>2013-08-18T08:04:53.000Z</time>
      </trkpt>
      <trkpt lat="44.54132" lon="6.71355">
        <ele>2202.5</ele>
        <time>2013-08-18T08:05:12.000Z</time>
      </trkpt>
      <trkpt lat="44.54111" lon="6.71366">
        <ele>2203.7</ele>
        <time>2013-08-18T08:05:31.000Z</time>
      </trkpt>
      <trkpt lat="44.54109" lon="6.71393">
        <ele>2209.2</ele>
        <time>2013-08-18T08:06:01.000Z</time>
      </trkpt>
      <trkpt lat="44.5411" lon="6.71421">
        <ele>2216.5</ele>
        <time>2013-08-18T08:06:40.000Z</time>
      </trkpt>
      <trkpt lat="44.54105" lon="6.71445">
        <ele>2223.8</ele>
        <time>2013-08-18T08:07:50.000Z</time>
      </trkpt>
      <trkpt lat="44.54087" lon="6.71462">
        <ele>2225.3</ele>
        <time>2013-08-18T08:08:09.000Z</time>
      </trkpt>
      <trkpt lat="44.5407" lon="6.71484">
        <ele>2226.3</ele>
        <time>2013-08-18T08:08:24.000Z</time>
      </trkpt>
      <trkpt lat="44.54054" lon="6.71505">
        <ele>2227.2</ele>
        <time>2013-08-18T08:08:39.000Z</time>
      </trkpt>
      <trkpt lat="44.54038" lon="6.71518">
        <ele>2226.6</ele>
        <time>2013-08-18T08:10:13.000Z</time>
      </trkpt>
      <trkpt lat="44.54021" lon="6.7154">
        <ele>2228.4</ele>
        <time>2013-08-18T08:10:23.000Z</time>
      </trkpt>
      <trkpt lat="44.54014" lon="6.71568">
        <ele>2233.6</ele>
        <time>2013-08-18T08:10:33.000Z</time>
      </trkpt>
      <trkpt lat="44.5402" lon="6.71601">
        <ele>2234.5</ele>
        <time>2013-08-18T08:10:43.000Z</time>
      </trkpt>
      <trkpt lat="44.54022" lon="6.71632">
        <ele>2234.8</ele>
        <time>2013-08-18T08:10:58.000Z</time>
      </trkpt>
      <trkpt lat="44.54017" lon="6.71661">
        <ele>2241.8</ele>
        <time>2013-08-18T08:11:49.000Z</time>
      </trkpt>
      <trkpt lat="44.54015" lon="6.71692">
        <ele>2246.1</ele>
        <time>2013-08-18T08:12:20.000Z</time>
      </trkpt>
      <trkpt lat="44.54014" lon="6.71722">
        <ele>2252.2</ele>
        <time>2013-08-18T08:12:50.000Z</time>
      </trkpt>
      <trkpt lat="44.54005" lon="6.7175">
        <ele>2258.9</ele>
        <time>2013-08-18T08:13:18.000Z</time>
      </trkpt>
      <trkpt lat="44.53995" lon="6.71778">
        <ele>2263.4</ele>
        <time>2013-08-18T08:13:36.000Z</time>
      </trkpt>
      <trkpt lat="44.53988" lon="6.71808">
        <ele>2268.9</ele>
        <time>2013-08-18T08:13:53.000Z</time>
      </trkpt>
      <trkpt lat="44.53989" lon="6.7184">
        <ele>2270.8</ele>
        <time>2013-08-18T08:14:11.000Z</time>
      </trkpt>
      <trkpt lat="44.54001" lon="6.71855">
        <ele>2274.4</ele>
        <time>2013-08-18T08:14:31.000Z</time>
      </trkpt>
      <trkpt lat="44.54014" lon="6.7183">
        <ele>2273.8</ele>
        <time>2013-08-18T08:14:51.000Z</time>
      </trkpt>
      <trkpt lat="44.5403" lon="6.7181">
        <ele>2276.2</ele>
        <time>2013-08-18T08:15:12.000Z</time>
      </trkpt>
      <trkpt lat="44.54049" lon="6.71796">
        <ele>2282</ele>
        <time>2013-08-18T08:16:24.000Z</time>
      </trkpt>
      <trkpt lat="44.54067" lon="6.71789">
        <ele>2288.4</ele>
        <time>2013-08-18T08:16:51.000Z</time>
      </trkpt>
      <trkpt lat="44.54087" lon="6.71805">
        <ele>2290</ele>
        <time>2013-08-18T08:17:06.000Z</time>
      </trkpt>
      <trkpt lat="44.54111" lon="6.71809">
        <ele>2291.8</ele>
        <time>2013-08-18T08:18:07.000Z</time>
      </trkpt>
      <trkpt lat="44.54133" lon="6.71813">
        <ele>2297.6</ele>
        <time>2013-08-18T08:18:26.000Z</time>
      </trkpt>
      <trkpt lat="44.54156" lon="6.71815">
        <ele>2304</ele>
        <time>2013-08-18T08:18:45.000Z</time>
      </trkpt>
      <trkpt lat="44.54177" lon="6.71822">
        <ele>2309.8</ele>
        <time>2013-08-18T08:19:05.000Z</time>
      </trkpt>
      <trkpt lat="44.54199" lon="6.71828">
        <ele>2313.1</ele>
        <time>2013-08-18T08:19:24.000Z</time>
      </trkpt>
      <trkpt lat="44.54223" lon="6.71832">
        <ele>2315</ele>
        <time>2013-08-18T08:19:43.000Z</time>
      </trkpt>
      <trkpt lat="44.54242" lon="6.71846">
        <ele>2317.1</ele>
        <time>2013-08-18T08:20:00.000Z</time>
      </trkpt>
      <trkpt lat="44.54262" lon="6.71861">
        <ele>2322.3</ele>
        <time>2013-08-18T08:20:19.000Z</time>
      </trkpt>
      <trkpt lat="44.54284" lon="6.71855">
        <ele>2324.7</ele>
        <time>2013-08-18T08:20:37.000Z</time>
      </trkpt>
      <trkpt lat="44.54307" lon="6.71854">
        <ele>2328.1</ele>
        <time>2013-08-18T08:20:56.000Z</time>
      </trkpt>
      <trkpt lat="44.54327" lon="6.71839">
        <ele>2333.2</ele>
        <time>2013-08-18T08:21:17.000Z</time>
      </trkpt>
      <trkpt lat="44.54346" lon="6.71824">
        <ele>2336.6</ele>
        <time>2013-08-18T08:21:38.000Z</time>
      </trkpt>
      <trkpt lat="44.54366" lon="6.71809">
        <ele>2338.1</ele>
        <time>2013-08-18T08:21:53.000Z</time>
      </trkpt>
      <trkpt lat="44.5439" lon="6.71802">
        <ele>2339.3</ele>
        <time>2013-08-18T08:22:03.000Z</time>
      </trkpt>
      <trkpt lat="44.54411" lon="6.71799">
        <ele>2340.9</ele>
        <time>2013-08-18T08:22:14.000Z</time>
      </trkpt>
      <trkpt lat="44.54418" lon="6.71789">
        <ele>2351.5</ele>
        <time>2013-08-18T08:23:19.000Z</time>
      </trkpt>
      <trkpt lat="44.54432" lon="6.71796">
        <ele>2346.7</ele>
        <time>2013-08-18T08:27:03.000Z</time>
      </trkpt>
      <trkpt lat="44.54454" lon="6.71797">
        <ele>2354.3</ele>
        <time>2013-08-18T08:27:43.000Z</time>
      </trkpt>
      <trkpt lat="44.54464" lon="6.7182">
        <ele>2360.1</ele>
        <time>2013-08-18T08:28:24.000Z</time>
      </trkpt>
      <trkpt lat="44.54468" lon="6.71848">
        <ele>2365.9</ele>
        <time>2013-08-18T08:29:03.000Z</time>
      </trkpt>
      <trkpt lat="44.54476" lon="6.71874">
        <ele>2373.2</ele>
        <time>2013-08-18T08:29:49.000Z</time>
      </trkpt>
      <trkpt lat="44.54484" lon="6.71901">
        <ele>2381.7</ele>
        <time>2013-08-18T08:30:31.000Z</time>
      </trkpt>
      <trkpt lat="44.54498" lon="6.71899">
        <ele>2389.6</ele>
        <time>2013-08-18T08:31:15.000Z</time>
      </trkpt>
      <trkpt lat="44.54516" lon="6.71893">
        <ele>2399.1</ele>
        <time>2013-08-18T08:32:07.000Z</time>
      </trkpt>
      <trkpt lat="44.54534" lon="6.71884">
        <ele>2405.8</ele>
        <time>2013-08-18T08:33:02.000Z</time>
      </trkpt>
      <trkpt lat="44.54554" lon="6.7187">
        <ele>2411.3</ele>
        <time>2013-08-18T08:33:44.000Z</time>
      </trkpt>
      <trkpt lat="44.54575" lon="6.71868">
        <ele>2418.6</ele>
        <time>2013-08-18T08:34:29.000Z</time>
      </trkpt>
      <trkpt lat="44.54596" lon="6.71861">
        <ele>2421.3</ele>
        <time>2013-08-18T08:34:54.000Z</time>
      </trkpt>
      <trkpt lat="44.54618" lon="6.71862">
        <ele>2422.2</ele>
        <time>2013-08-18T08:35:20.000Z</time>
      </trkpt>
      <trkpt lat="44.54638" lon="6.71862">
        <ele>2428</ele>
        <time>2013-08-18T08:35:55.000Z</time>
      </trkpt>
      <trkpt lat="44.54654" lon="6.71878">
        <ele>2437.8</ele>
        <time>2013-08-18T08:36:48.000Z</time>
      </trkpt>
      <trkpt lat="44.54668" lon="6.71896">
        <ele>2446.3</ele>
        <time>2013-08-18T08:37:32.000Z</time>
      </trkpt>
      <trkpt lat="44.54676" lon="6.71919">
        <ele>2452.1</ele>
        <time>2013-08-18T08:38:15.000Z</time>
      </trkpt>
      <trkpt lat="44.54683" lon="6.7194">
        <ele>2460.7</ele>
        <time>2013-08-18T08:38:58.000Z</time>
      </trkpt>
      <trkpt lat="44.54691" lon="6.71962">
        <ele>2466.7</ele>
        <time>2013-08-18T08:39:50.000Z</time>
      </trkpt>
      <trkpt lat="44.54705" lon="6.71978">
        <ele>2475</ele>
        <time>2013-08-18T08:40:34.000Z</time>
      </trkpt>
      <trkpt lat="44.54714" lon="6.72003">
        <ele>2480.8</ele>
        <time>2013-08-18T08:41:15.000Z</time>
      </trkpt>
      <trkpt lat="44.54721" lon="6.72029">
        <ele>2487.5</ele>
        <time>2013-08-18T08:42:01.000Z</time>
      </trkpt>
      <trkpt lat="44.54732" lon="6.7205">
        <ele>2496</ele>
        <time>2013-08-18T08:42:47.000Z</time>
      </trkpt>
      <trkpt lat="44.54745" lon="6.72074">
        <ele>2503.3</ele>
        <time>2013-08-18T08:43:29.000Z</time>
      </trkpt>
      <trkpt lat="44.54748" lon="6.72104">
        <ele>2508.2</ele>
        <time>2013-08-18T08:43:57.000Z</time>
      </trkpt>
      <trkpt lat="44.54749" lon="6.72136">
        <ele>2512.2</ele>
        <time>2013-08-18T08:44:20.000Z</time>
      </trkpt>
      <trkpt lat="44.54751" lon="6.72168">
        <ele>2513.7</ele>
        <time>2013-08-18T08:44:40.000Z</time>
      </trkpt>
      <trkpt lat="44.54759" lon="6.72193">
        <ele>2517.3</ele>
        <time>2013-08-18T08:46:44.000Z</time>
      </trkpt>
      <trkpt lat="44.5477" lon="6.72218">
        <ele>2527.4</ele>
        <time>2013-08-18T08:47:27.000Z</time>
      </trkpt>
      <trkpt lat="44.54785" lon="6.72233">
        <ele>2538.1</ele>
        <time>2013-08-18T08:48:13.000Z</time>
      </trkpt>
      <trkpt lat="44.54797" lon="6.72256">
        <ele>2543.3</ele>
        <time>2013-08-18T08:49:03.000Z</time>
      </trkpt>
      <trkpt lat="44.54808" lon="6.72279">
        <ele>2546.6</ele>
        <time>2013-08-18T08:49:45.000Z</time>
      </trkpt>
      <trkpt lat="44.54817" lon="6.72306">
        <ele>2553.6</ele>
        <time>2013-08-18T08:50:27.000Z</time>
      </trkpt>
      <trkpt lat="44.5483" lon="6.72326">
        <ele>2559.7</ele>
        <time>2013-08-18T08:51:09.000Z</time>
      </trkpt>
      <trkpt lat="44.54843" lon="6.72346">
        <ele>2570.7</ele>
        <time>2013-08-18T08:51:55.000Z</time>
      </trkpt>
      <trkpt lat="44.54853" lon="6.72371">
        <ele>2575.6</ele>
        <time>2013-08-18T08:52:41.000Z</time>
      </trkpt>
      <trkpt lat="44.54865" lon="6.72392">
        <ele>2585.9</ele>
        <time>2013-08-18T08:53:29.000Z</time>
      </trkpt>
      <trkpt lat="44.54875" lon="6.72412">
        <ele>2596</ele>
        <time>2013-08-18T08:54:22.000Z</time>
      </trkpt>
      <trkpt lat="44.54891" lon="6.72427">
        <ele>2602.7</ele>
        <time>2013-08-18T08:55:11.000Z</time>
      </trkpt>
      <trkpt lat="44.54903" lon="6.72448">
        <ele>2609.1</ele>
        <time>2013-08-18T08:56:02.000Z</time>
      </trkpt>
      <trkpt lat="44.54917" lon="6.72465">
        <ele>2620.1</ele>
        <time>2013-08-18T08:56:42.000Z</time>
      </trkpt>
      <trkpt lat="44.54936" lon="6.72483">
        <ele>2623.1</ele>
        <time>2013-08-18T08:57:19.000Z</time>
      </trkpt>
      <trkpt lat="44.54951" lon="6.72502">
        <ele>2626.2</ele>
        <time>2013-08-18T08:57:40.000Z</time>
      </trkpt>
      <trkpt lat="44.54971" lon="6.72519">
        <ele>2627.1</ele>
        <time>2013-08-18T08:57:54.000Z</time>
      </trkpt>
      <trkpt lat="44.54991" lon="6.72536">
        <ele>2631.3</ele>
        <time>2013-08-18T08:58:17.000Z</time>
      </trkpt>
      <trkpt lat="44.55011" lon="6.72547">
        <ele>2631</ele>
        <time>2013-08-18T08:58:53.000Z</time>
      </trkpt>
      <trkpt lat="44.55032" lon="6.72561">
        <ele>2630.1</ele>
        <time>2013-08-18T08:59:05.000Z</time>
      </trkpt>
      <trkpt lat="44.55049" lon="6.72581">
        <ele>2633.5</ele>
        <time>2013-08-18T08:59:22.000Z</time>
      </trkpt>
      <trkpt lat="44.55068" lon="6.72598">
        <ele>2636.2</ele>
        <time>2013-08-18T08:59:38.000Z</time>
      </trkpt>
      <trkpt lat="44.55086" lon="6.72609">
        <ele>2642.6</ele>
        <time>2013-08-18T09:00:21.000Z</time>
      </trkpt>
      <trkpt lat="44.55099" lon="6.72629">
        <ele>2649</ele>
        <time>2013-08-18T09:01:07.000Z</time>
      </trkpt>
      <trkpt lat="44.55111" lon="6.72645">
        <ele>2659.1</ele>
        <time>2013-08-18T09:02:18.000Z</time>
      </trkpt>
      <trkpt lat="44.55124" lon="6.72668">
        <ele>2666.4</ele>
        <time>2013-08-18T09:03:15.000Z</time>
      </trkpt>
      <trkpt lat="44.55135" lon="6.72686">
        <ele>2675.2</ele>
        <time>2013-08-18T09:04:05.000Z</time>
      </trkpt>
      <trkpt lat="44.55148" lon="6.72704">
        <ele>2681.9</ele>
        <time>2013-08-18T09:04:50.000Z</time>
      </trkpt>
      <trkpt lat="44.55163" lon="6.72725">
        <ele>2684.7</ele>
        <time>2013-08-18T09:05:32.000Z</time>
      </trkpt>
      <trkpt lat="44.55176" lon="6.72741">
        <ele>2689.3</ele>
        <time>2013-08-18T09:06:24.000Z</time>
      </trkpt>
      <trkpt lat="44.55189" lon="6.72757">
        <ele>2700.2</ele>
        <time>2013-08-18T09:07:13.000Z</time>
      </trkpt>
      <trkpt lat="44.55196" lon="6.7278">
        <ele>2707.8</ele>
        <time>2013-08-18T09:08:04.000Z</time>
      </trkpt>
      <trkpt lat="44.55204" lon="6.72805">
        <ele>2717.9</ele>
        <time>2013-08-18T09:08:54.000Z</time>
      </trkpt>
      <trkpt lat="44.55214" lon="6.72824">
        <ele>2726.1</ele>
        <time>2013-08-18T09:09:40.000Z</time>
      </trkpt>
      <trkpt lat="44.55225" lon="6.72848">
        <ele>2734.4</ele>
        <time>2013-08-18T09:10:35.000Z</time>
      </trkpt>
      <trkpt lat="44.55229" lon="6.72877">
        <ele>2740.5</ele>
        <time>2013-08-18T09:11:14.000Z</time>
      </trkpt>
      <trkpt lat="44.55227" lon="6.72907">
        <ele>2743.8</ele>
        <time>2013-08-18T09:11:48.000Z</time>
      </trkpt>
      <trkpt lat="44.55228" lon="6.72937">
        <ele>2751.4</ele>
        <time>2013-08-18T09:12:30.000Z</time>
      </trkpt>
      <trkpt lat="44.55222" lon="6.72965">
        <ele>2754.5</ele>
        <time>2013-08-18T09:13:04.000Z</time>
      </trkpt>
      <trkpt lat="44.55228" lon="6.7298">
        <ele>2762.4</ele>
        <time>2013-08-18T09:14:03.000Z</time>
      </trkpt>
      <trkpt lat="44.55247" lon="6.72977">
        <ele>2767.6</ele>
        <time>2013-08-18T09:16:37.000Z</time>
      </trkpt>
      <trkpt lat="44.55263" lon="6.72956">
        <ele>2770.3</ele>
        <time>2013-08-18T09:17:16.000Z</time>
      </trkpt>
      <trkpt lat="44.55274" lon="6.7295">
        <ele>2772.2</ele>
        <time>2013-08-18T09:19:51.000Z</time>
      </trkpt>
      <trkpt lat="44.55287" lon="6.72926">
        <ele>2777.6</ele>
        <time>2013-08-18T09:20:13.000Z</time>
      </trkpt>
      <trkpt lat="44.55302" lon="6.72904">
        <ele>2794.4</ele>
        <time>2013-08-18T09:20:47.000Z</time>
      </trkpt>
      <trkpt lat="44.5532" lon="6.72887">
        <ele>2799.6</ele>
        <time>2013-08-18T09:21:11.000Z</time>
      </trkpt>
      <trkpt lat="44.5534" lon="6.72875">
        <ele>2790.1</ele>
        <time>2013-08-18T09:24:23.000Z</time>
      </trkpt>
      <trkpt lat="44.55337" lon="6.72874">
        <ele>2781.9</ele>
        <time>2013-08-18T09:29:58.000Z</time>
      </trkpt>
      <trkpt lat="44.55318" lon="6.72893">
        <ele>2783.4</ele>
        <time>2013-08-18T09:30:07.000Z</time>
      </trkpt>
      <trkpt lat="44.55298" lon="6.72919">
        <ele>2781.6</ele>
        <time>2013-08-18T09:30:12.000Z</time>
      </trkpt>
      <trkpt lat="44.5528" lon="6.7294">
        <ele>2777.3</ele>
        <time>2013-08-18T09:30:18.000Z</time>
      </trkpt>
      <trkpt lat="44.5527" lon="6.72966">
        <ele>2771.9</ele>
        <time>2013-08-18T09:34:15.000Z</time>
      </trkpt>
      <trkpt lat="44.55265" lon="6.72995">
        <ele>2772.2</ele>
        <time>2013-08-18T09:34:28.000Z</time>
      </trkpt>
      <trkpt lat="44.55254" lon="6.73024">
        <ele>2774.6</ele>
        <time>2013-08-18T09:34:41.000Z</time>
      </trkpt>
      <trkpt lat="44.55241" lon="6.73049">
        <ele>2776.7</ele>
        <time>2013-08-18T09:34:55.000Z</time>
      </trkpt>
      <trkpt lat="44.55225" lon="6.73075">
        <ele>2775.2</ele>
        <time>2013-08-18T09:35:01.000Z</time>
      </trkpt>
      <trkpt lat="44.55206" lon="6.73098">
        <ele>2772.5</ele>
        <time>2013-08-18T09:35:05.000Z</time>
      </trkpt>
      <trkpt lat="44.55195" lon="6.73132">
        <ele>2769.4</ele>
        <time>2013-08-18T09:35:09.000Z</time>
      </trkpt>
      <trkpt lat="44.55188" lon="6.73163">
        <ele>2770</ele>
        <time>2013-08-18T09:35:18.000Z</time>
      </trkpt>
      <trkpt lat="44.55178" lon="6.73192">
        <ele>2774.3</ele>
        <time>2013-08-18T09:35:31.000Z</time>
      </trkpt>
      <trkpt lat="44.55174" lon="6.73222">
        <ele>2775.5</ele>
        <time>2013-08-18T09:35:42.000Z</time>
      </trkpt>
      <trkpt lat="44.55174" lon="6.73258">
        <ele>2774.3</ele>
        <time>2013-08-18T09:35:50.000Z</time>
      </trkpt>
      <trkpt lat="44.55175" lon="6.73293">
        <ele>2772.5</ele>
        <time>2013-08-18T09:35:54.000Z</time>
      </trkpt>
      <trkpt lat="44.55185" lon="6.73322">
        <ele>2776.7</ele>
        <time>2013-08-18T09:36:09.000Z</time>
      </trkpt>
      <trkpt lat="44.55182" lon="6.73353">
        <ele>2779.5</ele>
        <time>2013-08-18T09:36:26.000Z</time>
      </trkpt>
      <trkpt lat="44.55178" lon="6.73367">
        <ele>2780.4</ele>
        <time>2013-08-18T09:37:30.000Z</time>
      </trkpt>
      <trkpt lat="44.55175" lon="6.7338">
        <ele>2778.9</ele>
        <time>2013-08-18T09:37:53.000Z</time>
      </trkpt>
      <trkpt lat="44.5517" lon="6.73412">
        <ele>2768.5</ele>
        <time>2013-08-18T09:38:01.000Z</time>
      </trkpt>
      <trkpt lat="44.55172" lon="6.73443">
        <ele>2755.4</ele>
        <time>2013-08-18T09:38:09.000Z</time>
      </trkpt>
      <trkpt lat="44.55181" lon="6.73472">
        <ele>2742.3</ele>
        <time>2013-08-18T09:38:18.000Z</time>
      </trkpt>
      <trkpt lat="44.55187" lon="6.73501">
        <ele>2729.8</ele>
        <time>2013-08-18T09:38:29.000Z</time>
      </trkpt>
      <trkpt lat="44.552" lon="6.73526">
        <ele>2723.4</ele>
        <time>2013-08-18T09:39:10.000Z</time>
      </trkpt>
      <trkpt lat="44.55208" lon="6.73553">
        <ele>2708.5</ele>
        <time>2013-08-18T09:39:26.000Z</time>
      </trkpt>
      <trkpt lat="44.55217" lon="6.73581">
        <ele>2691.4</ele>
        <time>2013-08-18T09:39:42.000Z</time>
      </trkpt>
      <trkpt lat="44.55228" lon="6.7359">
        <ele>2679.5</ele>
        <time>2013-08-18T09:40:36.000Z</time>
      </trkpt>
      <trkpt lat="44.55235" lon="6.73619">
        <ele>2669.1</ele>
        <time>2013-08-18T09:40:48.000Z</time>
      </trkpt>
      <trkpt lat="44.5524" lon="6.73651">
        <ele>2662.4</ele>
        <time>2013-08-18T09:40:54.000Z</time>
      </trkpt>
      <trkpt lat="44.55246" lon="6.73679">
        <ele>2670.7</ele>
        <time>2013-08-18T09:43:06.000Z</time>
      </trkpt>
      <trkpt lat="44.55254" lon="6.73704">
        <ele>2676.1</ele>
        <time>2013-08-18T09:44:15.000Z</time>
      </trkpt>
      <trkpt lat="44.55257" lon="6.73731">
        <ele>2685.6</ele>
        <time>2013-08-18T09:45:06.000Z</time>
      </trkpt>
      <trkpt lat="44.55267" lon="6.73756">
        <ele>2692</ele>
        <time>2013-08-18T09:45:49.000Z</time>
      </trkpt>
      <trkpt lat="44.55277" lon="6.73783">
        <ele>2695.7</ele>
        <time>2013-08-18T09:46:27.000Z</time>
      </trkpt>
      <trkpt lat="44.55287" lon="6.7381">
        <ele>2704.2</ele>
        <time>2013-08-18T09:47:05.000Z</time>
      </trkpt>
      <trkpt lat="44.55303" lon="6.7383">
        <ele>2710.9</ele>
        <time>2013-08-18T09:47:49.000Z</time>
      </trkpt>
      <trkpt lat="44.55318" lon="6.73847">
        <ele>2719.7</ele>
        <time>2013-08-18T09:48:38.000Z</time>
      </trkpt>
      <trkpt lat="44.55338" lon="6.73859">
        <ele>2728</ele>
        <time>2013-08-18T09:49:25.000Z</time>
      </trkpt>
      <trkpt lat="44.55347" lon="6.7388">
        <ele>2732.2</ele>
        <time>2013-08-18T09:50:07.000Z</time>
      </trkpt>
      <trkpt lat="44.55364" lon="6.73899">
        <ele>2735.9</ele>
        <time>2013-08-18T09:50:41.000Z</time>
      </trkpt>
      <trkpt lat="44.5538" lon="6.73908">
        <ele>2734.4</ele>
        <time>2013-08-18T09:53:58.000Z</time>
      </trkpt>
      <trkpt lat="44.55397" lon="6.73926">
        <ele>2727.7</ele>
        <time>2013-08-18T09:54:06.000Z</time>
      </trkpt>
      <trkpt lat="44.55407" lon="6.73956">
        <ele>2722.2</ele>
        <time>2013-08-18T09:54:12.000Z</time>
      </trkpt>
      <trkpt lat="44.55421" lon="6.73982">
        <ele>2719.1</ele>
        <time>2013-08-18T09:54:14.000Z</time>
      </trkpt>
      <trkpt lat="44.55436" lon="6.74004">
        <ele>2719.4</ele>
        <time>2013-08-18T09:54:25.000Z</time>
      </trkpt>
      <trkpt lat="44.55451" lon="6.74025">
        <ele>2726.7</ele>
        <time>2013-08-18T09:54:55.000Z</time>
      </trkpt>
      <trkpt lat="44.55472" lon="6.74034">
        <ele>2730.1</ele>
        <time>2013-08-18T09:55:12.000Z</time>
      </trkpt>
      <trkpt lat="44.55493" lon="6.74047">
        <ele>2732.5</ele>
        <time>2013-08-18T09:55:31.000Z</time>
      </trkpt>
      <trkpt lat="44.55514" lon="6.7406">
        <ele>2734.7</ele>
        <time>2013-08-18T09:55:49.000Z</time>
      </trkpt>
      <trkpt lat="44.55537" lon="6.74069">
        <ele>2736.5</ele>
        <time>2013-08-18T09:56:05.000Z</time>
      </trkpt>
      <trkpt lat="44.55558" lon="6.74078">
        <ele>2738.9</ele>
        <time>2013-08-18T09:56:21.000Z</time>
      </trkpt>
      <trkpt lat="44.55576" lon="6.74096">
        <ele>2742.9</ele>
        <time>2013-08-18T09:56:40.000Z</time>
      </trkpt>
      <trkpt lat="44.55586" lon="6.74127">
        <ele>2739.8</ele>
        <time>2013-08-18T09:56:55.000Z</time>
      </trkpt>
      <trkpt lat="44.55604" lon="6.74144">
        <ele>2736.5</ele>
        <time>2013-08-18T09:57:03.000Z</time>
      </trkpt>
      <trkpt lat="44.55624" lon="6.74162">
        <ele>2738</ele>
        <time>2013-08-18T09:57:15.000Z</time>
      </trkpt>
      <trkpt lat="44.55644" lon="6.74172">
        <ele>2739.8</ele>
        <time>2013-08-18T09:57:30.000Z</time>
      </trkpt>
      <trkpt lat="44.55647" lon="6.74192">
        <ele>2736.8</ele>
        <time>2013-08-18T10:00:51.000Z</time>
      </trkpt>
      <trkpt lat="44.55656" lon="6.74205">
        <ele>2733.1</ele>
        <time>2013-08-18T10:02:23.000Z</time>
      </trkpt>
      <trkpt lat="44.55671" lon="6.74216">
        <ele>2736.2</ele>
        <time>2013-08-18T10:04:15.000Z</time>
      </trkpt>
      <trkpt lat="44.55692" lon="6.74222">
        <ele>2735.6</ele>
        <time>2013-08-18T10:04:23.000Z</time>
      </trkpt>
      <trkpt lat="44.55715" lon="6.74226">
        <ele>2737.7</ele>
        <time>2013-08-18T10:04:34.000Z</time>
      </trkpt>
      <trkpt lat="44.55737" lon="6.74234">
        <ele>2738.6</ele>
        <time>2013-08-18T10:04:45.000Z</time>
      </trkpt>
      <trkpt lat="44.5576" lon="6.74243">
        <ele>2737.1</ele>
        <time>2013-08-18T10:04:53.000Z</time>
      </trkpt>
      <trkpt lat="44.55782" lon="6.74251">
        <ele>2734.7</ele>
        <time>2013-08-18T10:04:57.000Z</time>
      </trkpt>
      <trkpt lat="44.55803" lon="6.74266">
        <ele>2732.8</ele>
        <time>2013-08-18T10:05:04.000Z</time>
      </trkpt>
      <trkpt lat="44.55822" lon="6.74283">
        <ele>2735.9</ele>
        <time>2013-08-18T10:05:21.000Z</time>
      </trkpt>
      <trkpt lat="44.55838" lon="6.74302">
        <ele>2739.2</ele>
        <time>2013-08-18T10:05:47.000Z</time>
      </trkpt>
      <trkpt lat="44.55854" lon="6.74318">
        <ele>2741.7</ele>
        <time>2013-08-18T10:06:30.000Z</time>
      </trkpt>
      <trkpt lat="44.55852" lon="6.74316">
        <ele>2742.9</ele>
        <time>2013-08-18T10:13:02.000Z</time>
      </trkpt>
      <trkpt lat="44.5585" lon="6.74312">
        <ele>2741.7</ele>
        <time>2013-08-18T10:17:14.000Z</time>
      </trkpt>
      <trkpt lat="44.55864" lon="6.74323">
        <ele>2745</ele>
        <time>2013-08-18T10:20:59.000Z</time>
      </trkpt>
      <trkpt lat="44.55881" lon="6.74343">
        <ele>2746.6</ele>
        <time>2013-08-18T10:21:13.000Z</time>
      </trkpt>
      <trkpt lat="44.55893" lon="6.74382">
        <ele>2743.5</ele>
        <time>2013-08-18T10:21:20.000Z</time>
      </trkpt>
      <trkpt lat="44.55901" lon="6.74411">
        <ele>2740.8</ele>
        <time>2013-08-18T10:21:24.000Z</time>
      </trkpt>
      <trkpt lat="44.55911" lon="6.74441">
        <ele>2735.6</ele>
        <time>2013-08-18T10:21:34.000Z</time>
      </trkpt>
      <trkpt lat="44.55921" lon="6.74477">
        <ele>2729.5</ele>
        <time>2013-08-18T10:21:40.000Z</time>
      </trkpt>
      <trkpt lat="44.5594" lon="6.74497">
        <ele>2724.9</ele>
        <time>2013-08-18T10:21:48.000Z</time>
      </trkpt>
      <trkpt lat="44.55955" lon="6.74524">
        <ele>2723.7</ele>
        <time>2013-08-18T10:21:56.000Z</time>
      </trkpt>
      <trkpt lat="44.55965" lon="6.74549">
        <ele>2724.9</ele>
        <time>2013-08-18T10:23:09.000Z</time>
      </trkpt>
      <trkpt lat="44.55974" lon="6.74579">
        <ele>2723.1</ele>
        <time>2013-08-18T10:23:24.000Z</time>
      </trkpt>
      <trkpt lat="44.55997" lon="6.74651">
        <ele>2707.8</ele>
        <time>2013-08-18T10:23:36.000Z</time>
      </trkpt>
      <trkpt lat="44.56011" lon="6.74678">
        <ele>2703</ele>
        <time>2013-08-18T10:23:40.000Z</time>
      </trkpt>
      <trkpt lat="44.56012" lon="6.74673">
        <ele>2688.9</ele>
        <time>2013-08-18T10:23:51.000Z</time>
      </trkpt>
      <trkpt lat="44.56004" lon="6.74663">
        <ele>2692.3</ele>
        <time>2013-08-18T10:24:45.000Z</time>
      </trkpt>
      <trkpt lat="44.5602" lon="6.74678">
        <ele>2691.1</ele>
        <time>2013-08-18T10:25:16.000Z</time>
      </trkpt>
      <trkpt lat="44.56039" lon="6.74688">
        <ele>2703.3</ele>
        <time>2013-08-18T10:26:06.000Z</time>
      </trkpt>
      <trkpt lat="44.56059" lon="6.74698">
        <ele>2706.9</ele>
        <time>2013-08-18T10:26:41.000Z</time>
      </trkpt>
      <trkpt lat="44.56079" lon="6.7471">
        <ele>2710.6</ele>
        <time>2013-08-18T10:27:16.000Z</time>
      </trkpt>
      <trkpt lat="44.56101" lon="6.74717">
        <ele>2715.5</ele>
        <time>2013-08-18T10:27:47.000Z</time>
      </trkpt>
      <trkpt lat="44.56121" lon="6.74716">
        <ele>2716.4</ele>
        <time>2013-08-18T10:28:21.000Z</time>
      </trkpt>
      <trkpt lat="44.56141" lon="6.74703">
        <ele>2714.2</ele>
        <time>2013-08-18T10:28:36.000Z</time>
      </trkpt>
      <trkpt lat="44.56164" lon="6.74697">
        <ele>2711.8</ele>
        <time>2013-08-18T10:28:45.000Z</time>
      </trkpt>
      <trkpt lat="44.56188" lon="6.74688">
        <ele>2708.5</ele>
        <time>2013-08-18T10:28:53.000Z</time>
      </trkpt>
      <trkpt lat="44.56211" lon="6.74684">
        <ele>2705.1</ele>
        <time>2013-08-18T10:29:04.000Z</time>
      </trkpt>
      <trkpt lat="44.56233" lon="6.74685">
        <ele>2700.5</ele>
        <time>2013-08-18T10:29:15.000Z</time>
      </trkpt>
      <trkpt lat="44.56253" lon="6.74693">
        <ele>2697.2</ele>
        <time>2013-08-18T10:29:35.000Z</time>
      </trkpt>
      <trkpt lat="44.56241" lon="6.74714">
        <ele>2699.3</ele>
        <time>2013-08-18T10:30:29.000Z</time>
      </trkpt>
      <trkpt lat="44.56229" lon="6.7473">
        <ele>2699</ele>
        <time>2013-08-18T10:31:14.000Z</time>
      </trkpt>
      <trkpt lat="44.56216" lon="6.74752">
        <ele>2700.5</ele>
        <time>2013-08-18T10:31:50.000Z</time>
      </trkpt>
      <trkpt lat="44.56229" lon="6.74772">
        <ele>2703</ele>
        <time>2013-08-18T10:32:35.000Z</time>
      </trkpt>
      <trkpt lat="44.56231" lon="6.74794">
        <ele>2719.7</ele>
        <time>2013-08-18T10:33:17.000Z</time>
      </trkpt>
      <trkpt lat="44.56225" lon="6.7482">
        <ele>2755.1</ele>
        <time>2013-08-18T10:33:45.000Z</time>
      </trkpt>
      <trkpt lat="44.5623" lon="6.7484">
        <ele>2759.7</ele>
        <time>2013-08-18T10:34:32.000Z</time>
      </trkpt>
      <trkpt lat="44.56212" lon="6.74854">
        <ele>2760</ele>
        <time>2013-08-18T10:34:55.000Z</time>
      </trkpt>
      <trkpt lat="44.56189" lon="6.74869">
        <ele>2759</ele>
        <time>2013-08-18T10:35:09.000Z</time>
      </trkpt>
      <trkpt lat="44.56197" lon="6.74886">
        <ele>2756</ele>
        <time>2013-08-18T10:35:18.000Z</time>
      </trkpt>
      <trkpt lat="44.5622" lon="6.74898">
        <ele>2755.4</ele>
        <time>2013-08-18T10:35:29.000Z</time>
      </trkpt>
      <trkpt lat="44.56236" lon="6.74918">
        <ele>2758.7</ele>
        <time>2013-08-18T10:35:41.000Z</time>
      </trkpt>
      <trkpt lat="44.56259" lon="6.74922">
        <ele>2761.2</ele>
        <time>2013-08-18T10:35:52.000Z</time>
      </trkpt>
      <trkpt lat="44.56276" lon="6.74923">
        <ele>2763.6</ele>
        <time>2013-08-18T10:36:12.000Z</time>
      </trkpt>
      <trkpt lat="44.56282" lon="6.74929">
        <ele>2774.6</ele>
        <time>2013-08-18T10:56:18.000Z</time>
      </trkpt>
      <trkpt lat="44.56286" lon="6.74922">
        <ele>2770.3</ele>
        <time>2013-08-18T10:58:53.000Z</time>
      </trkpt>
      <trkpt lat="44.56306" lon="6.74929">
        <ele>2780.7</ele>
        <time>2013-08-18T10:59:29.000Z</time>
      </trkpt>
      <trkpt lat="44.56315" lon="6.74946">
        <ele>2781.9</ele>
        <time>2013-08-18T11:00:06.000Z</time>
      </trkpt>
      <trkpt lat="44.56337" lon="6.7495">
        <ele>2786.5</ele>
        <time>2013-08-18T11:00:29.000Z</time>
      </trkpt>
      <trkpt lat="44.5636" lon="6.74956">
        <ele>2787.4</ele>
        <time>2013-08-18T11:00:45.000Z</time>
      </trkpt>
      <trkpt lat="44.56384" lon="6.74958">
        <ele>2790.4</ele>
        <time>2013-08-18T11:01:02.000Z</time>
      </trkpt>
      <trkpt lat="44.56406" lon="6.74962">
        <ele>2792.3</ele>
        <time>2013-08-18T11:01:20.000Z</time>
      </trkpt>
      <trkpt lat="44.56426" lon="6.74953">
        <ele>2793.5</ele>
        <time>2013-08-18T11:01:38.000Z</time>
      </trkpt>
      <trkpt lat="44.56448" lon="6.74941">
        <ele>2796.5</ele>
        <time>2013-08-18T11:01:56.000Z</time>
      </trkpt>
      <trkpt lat="44.56467" lon="6.74926">
        <ele>2799.3</ele>
        <time>2013-08-18T11:02:18.000Z</time>
      </trkpt>
      <trkpt lat="44.56486" lon="6.74916">
        <ele>2803.6</ele>
        <time>2013-08-18T11:02:57.000Z</time>
      </trkpt>
      <trkpt lat="44.56508" lon="6.74913">
        <ele>2807.2</ele>
        <time>2013-08-18T11:03:19.000Z</time>
      </trkpt>
      <trkpt lat="44.56531" lon="6.74913">
        <ele>2810.6</ele>
        <time>2013-08-18T11:03:39.000Z</time>
      </trkpt>
      <trkpt lat="44.56552" lon="6.74915">
        <ele>2816</ele>
        <time>2013-08-18T11:04:01.000Z</time>
      </trkpt>
      <trkpt lat="44.56575" lon="6.74921">
        <ele>2821.2</ele>
        <time>2013-08-18T11:04:21.000Z</time>
      </trkpt>
      <trkpt lat="44.56597" lon="6.74924">
        <ele>2825.5</ele>
        <time>2013-08-18T11:04:45.000Z</time>
      </trkpt>
      <trkpt lat="44.56619" lon="6.74925">
        <ele>2828.2</ele>
        <time>2013-08-18T11:05:07.000Z</time>
      </trkpt>
      <trkpt lat="44.56633" lon="6.74915">
        <ele>2833.1</ele>
        <time>2013-08-18T11:07:30.000Z</time>
      </trkpt>
      <trkpt lat="44.56642" lon="6.7493">
        <ele>2829.5</ele>
        <time>2013-08-18T11:12:32.000Z</time>
      </trkpt>
      <trkpt lat="44.56659" lon="6.7495">
        <ele>2828.5</ele>
        <time>2013-08-18T11:12:36.000Z</time>
      </trkpt>
      <trkpt lat="44.56677" lon="6.74969">
        <ele>2827.6</ele>
        <time>2013-08-18T11:12:44.000Z</time>
      </trkpt>
      <trkpt lat="44.56702" lon="6.74978">
        <ele>2826.1</ele>
        <time>2013-08-18T11:12:53.000Z</time>
      </trkpt>
      <trkpt lat="44.56722" lon="6.74996">
        <ele>2819.1</ele>
        <time>2013-08-18T11:12:59.000Z</time>
      </trkpt>
      <trkpt lat="44.56743" lon="6.75019">
        <ele>2813</ele>
        <time>2013-08-18T11:13:05.000Z</time>
      </trkpt>
      <trkpt lat="44.56761" lon="6.75039">
        <ele>2810.3</ele>
        <time>2013-08-18T11:13:10.000Z</time>
      </trkpt>
      <trkpt lat="44.56784" lon="6.75042">
        <ele>2810.3</ele>
        <time>2013-08-18T11:13:29.000Z</time>
      </trkpt>
      <trkpt lat="44.56807" lon="6.75058">
        <ele>2806.9</ele>
        <time>2013-08-18T11:13:34.000Z</time>
      </trkpt>
      <trkpt lat="44.56827" lon="6.75083">
        <ele>2803.6</ele>
        <time>2013-08-18T11:13:40.000Z</time>
      </trkpt>
      <trkpt lat="44.56844" lon="6.75106">
        <ele>2802.6</ele>
        <time>2013-08-18T11:13:47.000Z</time>
      </trkpt>
      <trkpt lat="44.56864" lon="6.7512">
        <ele>2802.3</ele>
        <time>2013-08-18T11:13:56.000Z</time>
      </trkpt>
      <trkpt lat="44.56887" lon="6.75124">
        <ele>2802</ele>
        <time>2013-08-18T11:14:31.000Z</time>
      </trkpt>
      <trkpt lat="44.56907" lon="6.75133">
        <ele>2805.4</ele>
        <time>2013-08-18T11:14:42.000Z</time>
      </trkpt>
      <trkpt lat="44.56928" lon="6.75147">
        <ele>2804.5</ele>
        <time>2013-08-18T11:14:54.000Z</time>
      </trkpt>
      <trkpt lat="44.56947" lon="6.75172">
        <ele>2802.6</ele>
        <time>2013-08-18T11:15:03.000Z</time>
      </trkpt>
      <trkpt lat="44.56968" lon="6.75182">
        <ele>2798.7</ele>
        <time>2013-08-18T11:15:09.000Z</time>
      </trkpt>
      <trkpt lat="44.56993" lon="6.75186">
        <ele>2795</ele>
        <time>2013-08-18T11:15:14.000Z</time>
      </trkpt>
      <trkpt lat="44.57016" lon="6.75191">
        <ele>2793.5</ele>
        <time>2013-08-18T11:15:44.000Z</time>
      </trkpt>
      <trkpt lat="44.57032" lon="6.75209">
        <ele>2792.3</ele>
        <time>2013-08-18T11:16:08.000Z</time>
      </trkpt>
      <trkpt lat="44.57032" lon="6.75208">
        <ele>2792.9</ele>
        <time>2013-08-18T11:17:36.000Z</time>
      </trkpt>
      <trkpt lat="44.57042" lon="6.75235">
        <ele>2784</ele>
        <time>2013-08-18T11:18:30.000Z</time>
      </trkpt>
      <trkpt lat="44.57046" lon="6.75258">
        <ele>2771.2</ele>
        <time>2013-08-18T11:19:16.000Z</time>
      </trkpt>
      <trkpt lat="44.57049" lon="6.75287">
        <ele>2757.8</ele>
        <time>2013-08-18T11:19:32.000Z</time>
      </trkpt>
      <trkpt lat="44.57054" lon="6.75317">
        <ele>2747.5</ele>
        <time>2013-08-18T11:20:19.000Z</time>
      </trkpt>
      <trkpt lat="44.57056" lon="6.75347">
        <ele>2735.9</ele>
        <time>2013-08-18T11:20:34.000Z</time>
      </trkpt>
      <trkpt lat="44.57068" lon="6.7537">
        <ele>2723.4</ele>
        <time>2013-08-18T11:20:56.000Z</time>
      </trkpt>
      <trkpt lat="44.57077" lon="6.75396">
        <ele>2711.5</ele>
        <time>2013-08-18T11:21:12.000Z</time>
      </trkpt>
      <trkpt lat="44.5708" lon="6.7539">
        <ele>2714.9</ele>
        <time>2013-08-18T11:23:46.000Z</time>
      </trkpt>
      <trkpt lat="44.5708" lon="6.75398">
        <ele>2709.7</ele>
        <time>2013-08-18T11:25:18.000Z</time>
      </trkpt>
      <trkpt lat="44.57093" lon="6.75421">
        <ele>2699</ele>
        <time>2013-08-18T11:25:33.000Z</time>
      </trkpt>
      <trkpt lat="44.57111" lon="6.75439">
        <ele>2692.3</ele>
        <time>2013-08-18T11:25:45.000Z</time>
      </trkpt>
      <trkpt lat="44.5704" lon="6.75206">
        <ele>2778</ele>
      </trkpt>
      <trkpt lat="44.5704" lon="6.75206">
        <ele>2778</ele>
      </trkpt>
      <trkpt lat="44.57038" lon="6.75216">
        <ele>2775.4</ele>
      </trkpt>
      <trkpt lat="44.57039" lon="6.75221">
        <ele>2773.8</ele>
      </trkpt>
      <trkpt lat="44.5704" lon="6.75231">
        <ele>2769.5</ele>
      </trkpt>
      <trkpt lat="44.57042" lon="6.75237">
        <ele>2766.9</ele>
      </trkpt>
      <trkpt lat="44.57045" lon="6.75239">
        <ele>2765.8</ele>
      </trkpt>
      <trkpt lat="44.57042" lon="6.75245">
        <ele>2763.6</ele>
      </trkpt>
      <trkpt lat="44.57047" lon="6.75246">
        <ele>2762.9</ele>
      </trkpt>
      <trkpt lat="44.57044" lon="6.75259">
        <ele>2757.4</ele>
      </trkpt>
      <trkpt lat="44.57048" lon="6.75272">
        <ele>2751.6</ele>
      </trkpt>
      <trkpt lat="44.5705" lon="6.75301">
        <ele>2740.8</ele>
      </trkpt>
      <trkpt lat="44.57055" lon="6.75323">
        <ele>2733.6</ele>
      </trkpt>
      <trkpt lat="44.57054" lon="6.75335">
        <ele>2728.8</ele>
      </trkpt>
      <trkpt lat="44.57058" lon="6.75338">
        <ele>2726.7</ele>
      </trkpt>
      <trkpt lat="44.57059" lon="6.7535">
        <ele>2721</ele>
      </trkpt>
      <trkpt lat="44.57064" lon="6.75359">
        <ele>2715.4</ele>
      </trkpt>
      <trkpt lat="44.5707" lon="6.75374">
        <ele>2708</ele>
      </trkpt>
      <trkpt lat="44.57071" lon="6.75384">
        <ele>2704.2</ele>
      </trkpt>
      <trkpt lat="44.57073" lon="6.75391">
        <ele>2701.5</ele>
      </trkpt>
      <trkpt lat="44.57075" lon="6.75393">
        <ele>2700.7</ele>
      </trkpt>
      <trkpt lat="44.57081" lon="6.75396">
        <ele>2699.7</ele>
      </trkpt>
      <trkpt lat="44.57084" lon="6.75399">
        <ele>2698.4</ele>
      </trkpt>
      <trkpt lat="44.57085" lon="6.75406">
        <ele>2695.8</ele>
      </trkpt>
      <trkpt lat="44.57089" lon="6.75408">
        <ele>2693.8</ele>
      </trkpt>
      <trkpt lat="44.5709" lon="6.75411">
        <ele>2692.6</ele>
      </trkpt>
      <trkpt lat="44.5709" lon="6.75415">
        <ele>2691.5</ele>
      </trkpt>
      <trkpt lat="44.57094" lon="6.75418">
        <ele>2689.5</ele>
      </trkpt>
      <trkpt lat="44.57096" lon="6.75431">
        <ele>2685.3</ele>
      </trkpt>
      <trkpt lat="44.57101" lon="6.75433">
        <ele>2684.1</ele>
      </trkpt>
      <trkpt lat="44.57104" lon="6.75437">
        <ele>2682.8</ele>
      </trkpt>
      <trkpt lat="44.57106" lon="6.75439">
        <ele>2682.2</ele>
      </trkpt>
      <trkpt lat="44.57115" lon="6.7544">
        <ele>2680.4</ele>
      </trkpt>
      <trkpt lat="44.5712" lon="6.75444">
        <ele>2678.5</ele>
      </trkpt>
      <trkpt lat="44.57128" lon="6.75454">
        <ele>2675.5</ele>
      </trkpt>
      <trkpt lat="44.57132" lon="6.75463">
        <ele>2674.7</ele>
      </trkpt>
      <trkpt lat="44.57137" lon="6.75469">
        <ele>2674.7</ele>
      </trkpt>
      <trkpt lat="44.57142" lon="6.75477">
        <ele>2676.6</ele>
      </trkpt>
      <trkpt lat="44.57143" lon="6.75489">
        <ele>2678.6</ele>
      </trkpt>
      <trkpt lat="44.57144" lon="6.75504">
        <ele>2681.6</ele>
      </trkpt>
      <trkpt lat="44.57143" lon="6.75512">
        <ele>2683.1</ele>
      </trkpt>
      <trkpt lat="44.57141" lon="6.75522">
        <ele>2684.6</ele>
      </trkpt>
      <trkpt lat="44.57139" lon="6.75531">
        <ele>2686.1</ele>
      </trkpt>
      <trkpt lat="44.5714" lon="6.75539">
        <ele>2689.2</ele>
      </trkpt>
      <trkpt lat="44.57141" lon="6.75542">
        <ele>2690.6</ele>
      </trkpt>
      <trkpt lat="44.57144" lon="6.75541">
        <ele>2691.7</ele>
      </trkpt>
      <trkpt lat="44.57154" lon="6.75532">
        <ele>2693.8</ele>
      </trkpt>
      <trkpt lat="44.57159" lon="6.75525">
        <ele>2694.4</ele>
      </trkpt>
      <trkpt lat="44.57166" lon="6.75522">
        <ele>2697.2</ele>
      </trkpt>
      <trkpt lat="44.57164" lon="6.75532">
        <ele>2698.7</ele>
      </trkpt>
      <trkpt lat="44.57162" lon="6.75543">
        <ele>2700.7</ele>
      </trkpt>
      <trkpt lat="44.57161" lon="6.75552">
        <ele>2702.6</ele>
      </trkpt>
      <trkpt lat="44.57158" lon="6.75558">
        <ele>2702.9</ele>
      </trkpt>
      <trkpt lat="44.57157" lon="6.75562">
        <ele>2703.5</ele>
      </trkpt>
      <trkpt lat="44.57155" lon="6.75575">
        <ele>2706.2</ele>
      </trkpt>
      <trkpt lat="44.57155" lon="6.75588">
        <ele>2709.2</ele>
      </trkpt>
      <trkpt lat="44.57155" lon="6.75602">
        <ele>2711.6</ele>
      </trkpt>
      <trkpt lat="44.57156" lon="6.75617">
        <ele>2714</ele>
      </trkpt>
      <trkpt lat="44.57157" lon="6.75624">
        <ele>2714.8</ele>
      </trkpt>
      <trkpt lat="44.5716" lon="6.75632">
        <ele>2715.9</ele>
      </trkpt>
      <trkpt lat="44.57166" lon="6.75645">
        <ele>2716.5</ele>
      </trkpt>
      <trkpt lat="44.57169" lon="6.75652">
        <ele>2716.8</ele>
      </trkpt>
      <trkpt lat="44.57169" lon="6.75658">
        <ele>2716.3</ele>
      </trkpt>
      <trkpt lat="44.5717" lon="6.75661">
        <ele>2716.3</ele>
      </trkpt>
      <trkpt lat="44.57171" lon="6.75663">
        <ele>2716.3</ele>
      </trkpt>
      <trkpt lat="44.57178" lon="6.75667">
        <ele>2717.4</ele>
      </trkpt>
      <trkpt lat="44.57182" lon="6.7567">
        <ele>2717.7</ele>
      </trkpt>
      <trkpt lat="44.57192" lon="6.75684">
        <ele>2716.8</ele>
      </trkpt>
      <trkpt lat="44.57201" lon="6.75696">
        <ele>2717.4</ele>
      </trkpt>
      <trkpt lat="44.57203" lon="6.757">
        <ele>2718.1</ele>
      </trkpt>
      <trkpt lat="44.57206" lon="6.75702">
        <ele>2719.2</ele>
      </trkpt>
      <trkpt lat="44.57207" lon="6.75707">
        <ele>2719.5</ele>
      </trkpt>
      <trkpt lat="44.57208" lon="6.75709">
        <ele>2719.9</ele>
      </trkpt>
      <trkpt lat="44.5721" lon="6.75709">
        <ele>2720.6</ele>
      </trkpt>
      <trkpt lat="44.57211" lon="6.75711">
        <ele>2721</ele>
      </trkpt>
      <trkpt lat="44.57212" lon="6.75715">
        <ele>2721.3</ele>
      </trkpt>
      <trkpt lat="44.57213" lon="6.75717">
        <ele>2721.7</ele>
      </trkpt>
      <trkpt lat="44.57214" lon="6.75719">
        <ele>2722</ele>
      </trkpt>
      <trkpt lat="44.57215" lon="6.75722">
        <ele>2722.4</ele>
      </trkpt>
      <trkpt lat="44.57216" lon="6.75725">
        <ele>2723.4</ele>
      </trkpt>
      <trkpt lat="44.57218" lon="6.75726">
        <ele>2724.3</ele>
      </trkpt>
      <trkpt lat="44.5722" lon="6.75728">
        <ele>2725.4</ele>
      </trkpt>
      <trkpt lat="44.57223" lon="6.75729">
        <ele>2726.9</ele>
      </trkpt>
      <trkpt lat="44.57226" lon="6.7573">
        <ele>2728.8</ele>
      </trkpt>
      <trkpt lat="44.57228" lon="6.75731">
        <ele>2730.2</ele>
      </trkpt>
      <trkpt lat="44.5723" lon="6.75733">
        <ele>2731.7</ele>
      </trkpt>
      <trkpt lat="44.57231" lon="6.75736">
        <ele>2732.9</ele>
      </trkpt>
      <trkpt lat="44.57232" lon="6.7574">
        <ele>2734.2</ele>
      </trkpt>
      <trkpt lat="44.57234" lon="6.75746">
        <ele>2736.6</ele>
      </trkpt>
      <trkpt lat="44.57236" lon="6.75751">
        <ele>2738.7</ele>
      </trkpt>
      <trkpt lat="44.5724" lon="6.75761">
        <ele>2743.2</ele>
      </trkpt>
      <trkpt lat="44.57242" lon="6.75769">
        <ele>2746.3</ele>
      </trkpt>
      <trkpt lat="44.57244" lon="6.75772">
        <ele>2748.1</ele>
      </trkpt>
      <trkpt lat="44.57247" lon="6.75778">
        <ele>2751.3</ele>
      </trkpt>
      <trkpt lat="44.5725" lon="6.75783">
        <ele>2753.9</ele>
      </trkpt>
      <trkpt lat="44.57253" lon="6.75789">
        <ele>2756.9</ele>
      </trkpt>
      <trkpt lat="44.57257" lon="6.75796">
        <ele>2761</ele>
      </trkpt>
      <trkpt lat="44.57261" lon="6.75803">
        <ele>2765.3</ele>
      </trkpt>
      <trkpt lat="44.57263" lon="6.75807">
        <ele>2767.6</ele>
      </trkpt>
      <trkpt lat="44.57265" lon="6.75811">
        <ele>2769.9</ele>
      </trkpt>
      <trkpt lat="44.57268" lon="6.75815">
        <ele>2772.8</ele>
      </trkpt>
      <trkpt lat="44.57271" lon="6.75816">
        <ele>2775.1</ele>
      </trkpt>
      <trkpt lat="44.57272" lon="6.75817">
        <ele>2776</ele>
      </trkpt>
      <trkpt lat="44.57274" lon="6.7582">
        <ele>2778</ele>
      </trkpt>
      <trkpt lat="44.57275" lon="6.75825">
        <ele>2779.6</ele>
      </trkpt>
      <trkpt lat="44.57275" lon="6.75827">
        <ele>2779.9</ele>
      </trkpt>
      <trkpt lat="44.57275" lon="6.7583">
        <ele>2780.5</ele>
      </trkpt>
      <trkpt lat="44.57274" lon="6.75834">
        <ele>2780.5</ele>
      </trkpt>
      <trkpt lat="44.57274" lon="6.75842">
        <ele>2782.1</ele>
      </trkpt>
      <trkpt lat="44.57275" lon="6.75848">
        <ele>2783.9</ele>
      </trkpt>
      <trkpt lat="44.57276" lon="6.75849">
        <ele>2784.7</ele>
      </trkpt>
      <trkpt lat="44.57279" lon="6.75852">
        <ele>2787.2</ele>
      </trkpt>
      <trkpt lat="44.57281" lon="6.75859">
        <ele>2789.6</ele>
      </trkpt>
      <trkpt lat="44.57281" lon="6.75863">
        <ele>2790.2</ele>
      </trkpt>
      <trkpt lat="44.57282" lon="6.75868">
        <ele>2791.5</ele>
      </trkpt>
      <trkpt lat="44.57282" lon="6.75872">
        <ele>2792</ele>
      </trkpt>
      <trkpt lat="44.57283" lon="6.75876">
        <ele>2793</ele>
      </trkpt>
      <trkpt lat="44.57285" lon="6.75876">
        <ele>2794.1</ele>
      </trkpt>
      <trkpt lat="44.57289" lon="6.75876">
        <ele>2796.4</ele>
      </trkpt>
      <trkpt lat="44.57292" lon="6.75877">
        <ele>2798.1</ele>
      </trkpt>
      <trkpt lat="44.57296" lon="6.7588">
        <ele>2800.5</ele>
      </trkpt>
      <trkpt lat="44.57298" lon="6.75885">
        <ele>2801.9</ele>
      </trkpt>
      <trkpt lat="44.57299" lon="6.75892">
        <ele>2803.4</ele>
      </trkpt>
      <trkpt lat="44.57301" lon="6.759">
        <ele>2806</ele>
      </trkpt>
      <trkpt lat="44.57301" lon="6.75911">
        <ele>2808.2</ele>
      </trkpt>
      <trkpt lat="44.57302" lon="6.7592">
        <ele>2810.8</ele>
      </trkpt>
      <trkpt lat="44.57303" lon="6.75925">
        <ele>2812.6</ele>
      </trkpt>
      <trkpt lat="44.57305" lon="6.75928">
        <ele>2814.1</ele>
      </trkpt>
      <trkpt lat="44.57308" lon="6.75931">
        <ele>2816.2</ele>
      </trkpt>
      <trkpt lat="44.57309" lon="6.75936">
        <ele>2817.9</ele>
      </trkpt>
      <trkpt lat="44.57314" lon="6.75945">
        <ele>2821.6</ele>
      </trkpt>
      <trkpt lat="44.57319" lon="6.75947">
        <ele>2823.4</ele>
      </trkpt>
      <trkpt lat="44.57323" lon="6.75949">
        <ele>2824.9</ele>
      </trkpt>
      <trkpt lat="44.57326" lon="6.75951">
        <ele>2826.1</ele>
      </trkpt>
      <trkpt lat="44.57328" lon="6.75954">
        <ele>2827.1</ele>
      </trkpt>
      <trkpt lat="44.5733" lon="6.75958">
        <ele>2828.2</ele>
      </trkpt>
      <trkpt lat="44.57332" lon="6.75963">
        <ele>2829.4</ele>
      </trkpt>
      <trkpt lat="44.57333" lon="6.75965">
        <ele>2829.9</ele>
      </trkpt>
      <trkpt lat="44.57336" lon="6.75967">
        <ele>2830.7</ele>
      </trkpt>
      <trkpt lat="44.57338" lon="6.7597">
        <ele>2831.4</ele>
      </trkpt>
      <trkpt lat="44.57341" lon="6.75975">
        <ele>2832.8</ele>
      </trkpt>
      <trkpt lat="44.57347" lon="6.75977">
        <ele>2834</ele>
      </trkpt>
      <trkpt lat="44.57354" lon="6.75979">
        <ele>2835.1</ele>
      </trkpt>
      <trkpt lat="44.57361" lon="6.7598">
        <ele>2835.8</ele>
      </trkpt>
      <trkpt lat="44.57371" lon="6.75981">
        <ele>2837.1</ele>
      </trkpt>
      <trkpt lat="44.57378" lon="6.75987">
        <ele>2837.7</ele>
      </trkpt>
      <trkpt lat="44.57382" lon="6.75992">
        <ele>2837.7</ele>
      </trkpt>
      <trkpt lat="44.57389" lon="6.75999">
        <ele>2837.1</ele>
      </trkpt>
      <trkpt lat="44.57394" lon="6.76007">
        <ele>2837.5</ele>
      </trkpt>
      <trkpt lat="44.57405" lon="6.76015">
        <ele>2837.1</ele>
      </trkpt>
      <trkpt lat="44.5741" lon="6.76021">
        <ele>2836.4</ele>
      </trkpt>
      <trkpt lat="44.57415" lon="6.76028">
        <ele>2835.3</ele>
      </trkpt>
      <trkpt lat="44.57421" lon="6.76032">
        <ele>2834.6</ele>
      </trkpt>
      <trkpt lat="44.57427" lon="6.76036">
        <ele>2833.6</ele>
      </trkpt>
      <trkpt lat="44.57434" lon="6.76038">
        <ele>2832.1</ele>
      </trkpt>
      <trkpt lat="44.5744" lon="6.76044">
        <ele>2830.4</ele>
      </trkpt>
      <trkpt lat="44.57449" lon="6.76046">
        <ele>2828.4</ele>
      </trkpt>
      <trkpt lat="44.57456" lon="6.76047">
        <ele>2827.4</ele>
      </trkpt>
      <trkpt lat="44.57463" lon="6.76048">
        <ele>2826.3</ele>
      </trkpt>
      <trkpt lat="44.57468" lon="6.76052">
        <ele>2825.1</ele>
      </trkpt>
      <trkpt lat="44.57475" lon="6.76055">
        <ele>2824.1</ele>
      </trkpt>
      <trkpt lat="44.57483" lon="6.76058">
        <ele>2823.9</ele>
      </trkpt>
      <trkpt lat="44.57489" lon="6.76061">
        <ele>2823.8</ele>
      </trkpt>
      <trkpt lat="44.57499" lon="6.76065">
        <ele>2823.3</ele>
      </trkpt>
      <trkpt lat="44.57504" lon="6.76067">
        <ele>2823.3</ele>
      </trkpt>
      <trkpt lat="44.57513" lon="6.76076">
        <ele>2822.7</ele>
      </trkpt>
      <trkpt lat="44.57523" lon="6.7609">
        <ele>2821.8</ele>
      </trkpt>
      <trkpt lat="44.5753" lon="6.76101">
        <ele>2821.8</ele>
      </trkpt>
      <trkpt lat="44.57531" lon="6.76108">
        <ele>2821.8</ele>
      </trkpt>
      <trkpt lat="44.57532" lon="6.76113">
        <ele>2822</ele>
      </trkpt>
      <trkpt lat="44.57535" lon="6.76131">
        <ele>2824</ele>
      </trkpt>
      <trkpt lat="44.57536" lon="6.76139">
        <ele>2824.8</ele>
      </trkpt>
      <trkpt lat="44.57536" lon="6.76147">
        <ele>2825.4</ele>
      </trkpt>
      <trkpt lat="44.57537" lon="6.76155">
        <ele>2826.2</ele>
      </trkpt>
      <trkpt lat="44.57539" lon="6.7616">
        <ele>2826.9</ele>
      </trkpt>
      <trkpt lat="44.57543" lon="6.76169">
        <ele>2828.6</ele>
      </trkpt>
      <trkpt lat="44.57547" lon="6.76176">
        <ele>2830.4</ele>
      </trkpt>
      <trkpt lat="44.57554" lon="6.76179">
        <ele>2832</ele>
      </trkpt>
      <trkpt lat="44.57558" lon="6.76183">
        <ele>2834</ele>
      </trkpt>
      <trkpt lat="44.57563" lon="6.76184">
        <ele>2836.6</ele>
      </trkpt>
      <trkpt lat="44.57567" lon="6.76183">
        <ele>2838.5</ele>
      </trkpt>
      <trkpt lat="44.57568" lon="6.76184">
        <ele>2839</ele>
      </trkpt>
      <trkpt lat="44.57569" lon="6.76186">
        <ele>2839.7</ele>
      </trkpt>
      <trkpt lat="44.5757" lon="6.76189">
        <ele>2840.4</ele>
      </trkpt>
      <trkpt lat="44.57572" lon="6.76191">
        <ele>2841.5</ele>
      </trkpt>
      <trkpt lat="44.57575" lon="6.76191">
        <ele>2842.9</ele>
      </trkpt>
      <trkpt lat="44.57576" lon="6.76193">
        <ele>2843.5</ele>
      </trkpt>
      <trkpt lat="44.5758" lon="6.76202">
        <ele>2845.8</ele>
      </trkpt>
      <trkpt lat="44.57585" lon="6.76215">
        <ele>2848.7</ele>
      </trkpt>
      <trkpt lat="44.57586" lon="6.76219">
        <ele>2849.4</ele>
      </trkpt>
      <trkpt lat="44.57586" lon="6.76223">
        <ele>2849.7</ele>
      </trkpt>
      <trkpt lat="44.57588" lon="6.76227">
        <ele>2851.6</ele>
      </trkpt>
      <trkpt lat="44.5759" lon="6.76231">
        <ele>2853.4</ele>
      </trkpt>
      <trkpt lat="44.57594" lon="6.76235">
        <ele>2856</ele>
      </trkpt>
      <trkpt lat="44.57597" lon="6.76238">
        <ele>2857.9</ele>
      </trkpt>
      <trkpt lat="44.57597" lon="6.76241">
        <ele>2858.3</ele>
      </trkpt>
      <trkpt lat="44.57598" lon="6.7625">
        <ele>2859.8</ele>
      </trkpt>
      <trkpt lat="44.57598" lon="6.76253">
        <ele>2860.2</ele>
      </trkpt>
      <trkpt lat="44.57601" lon="6.76255">
        <ele>2861.6</ele>
      </trkpt>
      <trkpt lat="44.57602" lon="6.76255">
        <ele>2861.9</ele>
      </trkpt>
      <trkpt lat="44.57603" lon="6.76257">
        <ele>2862.5</ele>
      </trkpt>
      <trkpt lat="44.57605" lon="6.7626">
        <ele>2863.5</ele>
      </trkpt>
      <trkpt lat="44.57607" lon="6.76263">
        <ele>2864.5</ele>
      </trkpt>
      <trkpt lat="44.57608" lon="6.76265">
        <ele>2865</ele>
      </trkpt>
      <trkpt lat="44.57609" lon="6.76267">
        <ele>2865.5</ele>
      </trkpt>
      <trkpt lat="44.57613" lon="6.76268">
        <ele>2867.1</ele>
      </trkpt>
      <trkpt lat="44.57614" lon="6.76269">
        <ele>2867.6</ele>
      </trkpt>
      <trkpt lat="44.57615" lon="6.76271">
        <ele>2868.2</ele>
      </trkpt>
      <trkpt lat="44.57615" lon="6.76276">
        <ele>2868.4</ele>
      </trkpt>
      <trkpt lat="44.57617" lon="6.76282">
        <ele>2869.8</ele>
      </trkpt>
      <trkpt lat="44.57619" lon="6.76283">
        <ele>2870.7</ele>
      </trkpt>
      <trkpt lat="44.5762" lon="6.76283">
        <ele>2871.1</ele>
      </trkpt>
      <trkpt lat="44.57622" lon="6.76281">
        <ele>2871.7</ele>
      </trkpt>
      <trkpt lat="44.57624" lon="6.76281">
        <ele>2872.5</ele>
      </trkpt>
      <trkpt lat="44.57625" lon="6.76283">
        <ele>2873.1</ele>
      </trkpt>
      <trkpt lat="44.57625" lon="6.76285">
        <ele>2873.3</ele>
      </trkpt>
      <trkpt lat="44.57626" lon="6.76289">
        <ele>2874.1</ele>
      </trkpt>
      <trkpt lat="44.57628" lon="6.763">
        <ele>2876.1</ele>
      </trkpt>
      <trkpt lat="44.57631" lon="6.76305">
        <ele>2877.8</ele>
      </trkpt>
      <trkpt lat="44.57631" lon="6.76308">
        <ele>2878.2</ele>
      </trkpt>
      <trkpt lat="44.57633" lon="6.7631">
        <ele>2879.2</ele>
      </trkpt>
      <trkpt lat="44.57634" lon="6.76311">
        <ele>2879.7</ele>
      </trkpt>
      <trkpt lat="44.57636" lon="6.76311">
        <ele>2880.5</ele>
      </trkpt>
      <trkpt lat="44.57637" lon="6.76314">
        <ele>2881.2</ele>
      </trkpt>
      <trkpt lat="44.57639" lon="6.76314">
        <ele>2882</ele>
      </trkpt>
      <trkpt lat="44.5764" lon="6.76316">
        <ele>2882.7</ele>
      </trkpt>
      <trkpt lat="44.57641" lon="6.7632">
        <ele>2883.7</ele>
      </trkpt>
      <trkpt lat="44.57643" lon="6.76322">
        <ele>2885</ele>
      </trkpt>
      <trkpt lat="44.57644" lon="6.76326">
        <ele>2886</ele>
      </trkpt>
      <trkpt lat="44.57644" lon="6.76333">
        <ele>2886.7</ele>
      </trkpt>
      <trkpt lat="44.57646" lon="6.76334">
        <ele>2888</ele>
      </trkpt>
      <trkpt lat="44.57648" lon="6.76338">
        <ele>2889.7</ele>
      </trkpt>
      <trkpt lat="44.57652" lon="6.76338">
        <ele>2891.8</ele>
      </trkpt>
      <trkpt lat="44.57652" lon="6.76344">
        <ele>2892.8</ele>
      </trkpt>
      <trkpt lat="44.57654" lon="6.76344">
        <ele>2893.9</ele>
      </trkpt>
      <trkpt lat="44.57656" lon="6.76348">
        <ele>2895.6</ele>
      </trkpt>
      <trkpt lat="44.57661" lon="6.76348">
        <ele>2898.2</ele>
      </trkpt>
      <trkpt lat="44.57662" lon="6.76353">
        <ele>2899.4</ele>
      </trkpt>
      <trkpt lat="44.57665" lon="6.76355">
        <ele>2901.3</ele>
      </trkpt>
      <trkpt lat="44.57667" lon="6.76358">
        <ele>2902.8</ele>
      </trkpt>
      <trkpt lat="44.57672" lon="6.7636">
        <ele>2906.1</ele>
      </trkpt>
      <trkpt lat="44.57678" lon="6.76359">
        <ele>2909.8</ele>
      </trkpt>
      <trkpt lat="44.57682" lon="6.76361">
        <ele>2912.4</ele>
      </trkpt>
      <trkpt lat="44.57685" lon="6.76364">
        <ele>2914.6</ele>
      </trkpt>
      <trkpt lat="44.57689" lon="6.76371">
        <ele>2917.8</ele>
      </trkpt>
      <trkpt lat="44.57691" lon="6.76378">
        <ele>2919.8</ele>
      </trkpt>
      <trkpt lat="44.57691" lon="6.76385">
        <ele>2920.6</ele>
      </trkpt>
      <trkpt lat="44.57692" lon="6.7639">
        <ele>2921.8</ele>
      </trkpt>
      <trkpt lat="44.57692" lon="6.76394">
        <ele>2922.7</ele>
      </trkpt>
      <trkpt lat="44.57691" lon="6.764">
        <ele>2923.5</ele>
      </trkpt>
      <trkpt lat="44.5769" lon="6.76405">
        <ele>2924.1</ele>
      </trkpt>
      <trkpt lat="44.5769" lon="6.7641">
        <ele>2925.2</ele>
      </trkpt>
      <trkpt lat="44.57689" lon="6.76416">
        <ele>2926.1</ele>
      </trkpt>
      <trkpt lat="44.57689" lon="6.76422">
        <ele>2927.3</ele>
      </trkpt>
      <trkpt lat="44.57687" lon="6.76425">
        <ele>2927</ele>
      </trkpt>
      <trkpt lat="44.57685" lon="6.76428">
        <ele>2926.7</ele>
      </trkpt>
      <trkpt lat="44.57684" lon="6.7644">
        <ele>2928.9</ele>
      </trkpt>
      <trkpt lat="44.57685" lon="6.76444">
        <ele>2930.2</ele>
      </trkpt>
      <trkpt lat="44.57686" lon="6.76448">
        <ele>2931.6</ele>
      </trkpt>
      <trkpt lat="44.57687" lon="6.7645">
        <ele>2932.5</ele>
      </trkpt>
      <trkpt lat="44.57688" lon="6.76452">
        <ele>2933.4</ele>
      </trkpt>
      <trkpt lat="44.57689" lon="6.76453">
        <ele>2934</ele>
      </trkpt>
      <trkpt lat="44.57691" lon="6.76453">
        <ele>2934.8</ele>
      </trkpt>
      <trkpt lat="44.57693" lon="6.76451">
        <ele>2935.1</ele>
      </trkpt>
      <trkpt lat="44.57695" lon="6.7645">
        <ele>2935.7</ele>
      </trkpt>
      <trkpt lat="44.57697" lon="6.7645">
        <ele>2936.8</ele>
      </trkpt>
      <trkpt lat="44.577" lon="6.7645">
        <ele>2938.4</ele>
      </trkpt>
      <trkpt lat="44.57703" lon="6.76451">
        <ele>2940.2</ele>
      </trkpt>
      <trkpt lat="44.57704" lon="6.76453">
        <ele>2941.2</ele>
      </trkpt>
      <trkpt lat="44.57706" lon="6.76455">
        <ele>2942.7</ele>
      </trkpt>
      <trkpt lat="44.57708" lon="6.76459">
        <ele>2944.7</ele>
      </trkpt>
      <trkpt lat="44.5771" lon="6.76461">
        <ele>2946.2</ele>
      </trkpt>
      <trkpt lat="44.5771" lon="6.76466">
        <ele>2947.4</ele>
      </trkpt>
      <trkpt lat="44.57709" lon="6.76471">
        <ele>2948.1</ele>
      </trkpt>
      <trkpt lat="44.57706" lon="6.76477">
        <ele>2948.1</ele>
      </trkpt>
      <trkpt lat="44.57706" lon="6.76482">
        <ele>2949.5</ele>
      </trkpt>
      <trkpt lat="44.57706" lon="6.76488">
        <ele>2951.1</ele>
      </trkpt>
      <trkpt lat="44.57708" lon="6.76488">
        <ele>2952.1</ele>
      </trkpt>
      <trkpt lat="44.57712" lon="6.76489">
        <ele>2954.3</ele>
      </trkpt>
      <trkpt lat="44.57714" lon="6.76489">
        <ele>2955.3</ele>
      </trkpt>
      <trkpt lat="44.57715" lon="6.76492">
        <ele>2956.5</ele>
      </trkpt>
      <trkpt lat="44.57715" lon="6.76495">
        <ele>2957.3</ele>
      </trkpt>
      <trkpt lat="44.57714" lon="6.76497">
        <ele>2957.4</ele>
      </trkpt>
      <trkpt lat="44.57717" lon="6.76508">
        <ele>2961.2</ele>
      </trkpt>
      <trkpt lat="44.57719" lon="6.76515">
        <ele>2963.7</ele>
      </trkpt>
      <trkpt lat="44.57723" lon="6.76521">
        <ele>2967</ele>
      </trkpt>
      <trkpt lat="44.57727" lon="6.76527">
        <ele>2970.4</ele>
      </trkpt>
      <trkpt lat="44.57729" lon="6.76531">
        <ele>2972.1</ele>
      </trkpt>
      <trkpt lat="44.57729" lon="6.76533">
        <ele>2972.3</ele>
      </trkpt>
      <trkpt lat="44.57731" lon="6.76534">
        <ele>2973.5</ele>
      </trkpt>
      <trkpt lat="44.57732" lon="6.76535">
        <ele>2974.1</ele>
      </trkpt>
      <trkpt lat="44.57735" lon="6.76536">
        <ele>2975.8</ele>
      </trkpt>
      <trkpt lat="44.57735" lon="6.76539">
        <ele>2976.1</ele>
      </trkpt>
      <trkpt lat="44.57734" lon="6.76542">
        <ele>2976</ele>
      </trkpt>
      <trkpt lat="44.57734" lon="6.76545">
        <ele>2976.3</ele>
      </trkpt>
      <trkpt lat="44.57735" lon="6.76551">
        <ele>2977.5</ele>
      </trkpt>
      <trkpt lat="44.57733" lon="6.76556">
        <ele>2977.1</ele>
      </trkpt>
      <trkpt lat="44.57732" lon="6.76561">
        <ele>2977</ele>
      </trkpt>
      <trkpt lat="44.57733" lon="6.76566">
        <ele>2977.8</ele>
      </trkpt>
      <trkpt lat="44.57736" lon="6.7657">
        <ele>2979.5</ele>
      </trkpt>
      <trkpt lat="44.5774" lon="6.76571">
        <ele>2981.4</ele>
      </trkpt>
      <trkpt lat="44.57744" lon="6.76573">
        <ele>2983.4</ele>
      </trkpt>
      <trkpt lat="44.57746" lon="6.76576">
        <ele>2984.6</ele>
      </trkpt>
      <trkpt lat="44.57747" lon="6.76578">
        <ele>2985.2</ele>
      </trkpt>
      <trkpt lat="44.57749" lon="6.7658">
        <ele>2986.3</ele>
      </trkpt>
      <trkpt lat="44.57751" lon="6.76582">
        <ele>2987.5</ele>
      </trkpt>
      <trkpt lat="44.57752" lon="6.76585">
        <ele>2988.2</ele>
      </trkpt>
      <trkpt lat="44.57754" lon="6.76586">
        <ele>2989.4</ele>
      </trkpt>
      <trkpt lat="44.57763" lon="6.76589">
        <ele>2994.9</ele>
      </trkpt>
      <trkpt lat="44.57767" lon="6.76592">
        <ele>2997.2</ele>
      </trkpt>
      <trkpt lat="44.57768" lon="6.76595">
        <ele>2997.7</ele>
      </trkpt>
      <trkpt lat="44.57769" lon="6.766">
        <ele>2998.2</ele>
      </trkpt>
      <trkpt lat="44.5777" lon="6.76602">
        <ele>2998.8</ele>
      </trkpt>
      <trkpt lat="44.57772" lon="6.76604">
        <ele>2999.9</ele>
      </trkpt>
      <trkpt lat="44.57774" lon="6.76608">
        <ele>3000.9</ele>
      </trkpt>
      <trkpt lat="44.57776" lon="6.76611">
        <ele>3002</ele>
      </trkpt>
      <trkpt lat="44.57779" lon="6.76612">
        <ele>3003.5</ele>
      </trkpt>
      <trkpt lat="44.57782" lon="6.76612">
        <ele>3004.9</ele>
      </trkpt>
      <trkpt lat="44.57785" lon="6.7661">
        <ele>3006.5</ele>
      </trkpt>
      <trkpt lat="44.57787" lon="6.76611">
        <ele>3007.3</ele>
      </trkpt>
      <trkpt lat="44.5779" lon="6.76612">
        <ele>3008.7</ele>
      </trkpt>
      <trkpt lat="44.57792" lon="6.76611">
        <ele>3009.7</ele>
      </trkpt>
      <trkpt lat="44.57796" lon="6.76611">
        <ele>3011.5</ele>
      </trkpt>
      <trkpt lat="44.57798" lon="6.76613">
        <ele>3012.4</ele>
      </trkpt>
      <trkpt lat="44.57801" lon="6.76614">
        <ele>3013.9</ele>
      </trkpt>
      <trkpt lat="44.57805" lon="6.76612">
        <ele>3015.7</ele>
      </trkpt>
      <trkpt lat="44.57809" lon="6.76609">
        <ele>3017.5</ele>
      </trkpt>
      <trkpt lat="44.57813" lon="6.76609">
        <ele>3019</ele>
      </trkpt>
      <trkpt lat="44.57816" lon="6.7661">
        <ele>3019.9</ele>
      </trkpt>
      <trkpt lat="44.57823" lon="6.76616">
        <ele>3022.1</ele>
      </trkpt>
      <trkpt lat="44.57829" lon="6.76622">
        <ele>3023.8</ele>
      </trkpt>
      <trkpt lat="44.57833" lon="6.7663">
        <ele>3024.5</ele>
      </trkpt>
      <trkpt lat="44.57836" lon="6.76634">
        <ele>3025.5</ele>
      </trkpt>
      <trkpt lat="44.57837" lon="6.76635">
        <ele>3025.9</ele>
      </trkpt>
      <trkpt lat="44.57838" lon="6.76639">
        <ele>3026</ele>
      </trkpt>
      <trkpt lat="44.5784" lon="6.76645">
        <ele>3027.2</ele>
      </trkpt>
      <trkpt lat="44.57842" lon="6.76651">
        <ele>3028.2</ele>
      </trkpt>
      <trkpt lat="44.57842" lon="6.76655">
        <ele>3028.4</ele>
      </trkpt>
      <trkpt lat="44.57844" lon="6.76657">
        <ele>3029.2</ele>
      </trkpt>
      <trkpt lat="44.57847" lon="6.76657">
        <ele>3030.2</ele>
      </trkpt>
      <trkpt lat="44.57848" lon="6.76657">
        <ele>3030.6</ele>
      </trkpt>
      <trkpt lat="44.57849" lon="6.76659">
        <ele>3031</ele>
      </trkpt>
      <trkpt lat="44.57846" lon="6.76664">
        <ele>3030</ele>
      </trkpt>
      <trkpt lat="44.57845" lon="6.76667">
        <ele>3029.8</ele>
      </trkpt>
      <trkpt lat="44.57846" lon="6.76674">
        <ele>3031.1</ele>
      </trkpt>
      <trkpt lat="44.57848" lon="6.76678">
        <ele>3032.1</ele>
      </trkpt>
      <trkpt lat="44.57851" lon="6.76684">
        <ele>3033.7</ele>
      </trkpt>
      <trkpt lat="44.57853" lon="6.7669">
        <ele>3034.8</ele>
      </trkpt>
      <trkpt lat="44.57855" lon="6.76695">
        <ele>3035.7</ele>
      </trkpt>
      <trkpt lat="44.57855" lon="6.76704">
        <ele>3036.6</ele>
      </trkpt>
      <trkpt lat="44.57855" lon="6.76713">
        <ele>3037.5</ele>
      </trkpt>
      <trkpt lat="44.57856" lon="6.76719">
        <ele>3038.2</ele>
      </trkpt>
      <trkpt lat="44.57857" lon="6.76727">
        <ele>3039.3</ele>
      </trkpt>
      <trkpt lat="44.57857" lon="6.76741">
        <ele>3041.7</ele>
      </trkpt>
      <trkpt lat="44.57857" lon="6.76749">
        <ele>3043</ele>
      </trkpt>
      <trkpt lat="44.5786" lon="6.76754">
        <ele>3043.8</ele>
      </trkpt>
      <trkpt lat="44.57862" lon="6.76758">
        <ele>3044.5</ele>
      </trkpt>
      <trkpt lat="44.57863" lon="6.76762">
        <ele>3045.2</ele>
      </trkpt>
      <trkpt lat="44.57861" lon="6.76769">
        <ele>3046.4</ele>
      </trkpt>
      <trkpt lat="44.57856" lon="6.76774">
        <ele>3047.3</ele>
      </trkpt>
      <trkpt lat="44.57846" lon="6.76778">
        <ele>3048.1</ele>
      </trkpt>
      <trkpt lat="44.57839" lon="6.76782">
        <ele>3048.9</ele>
      </trkpt>
      <trkpt lat="44.5783" lon="6.76793">
        <ele>3051.1</ele>
      </trkpt>
      <trkpt lat="44.57827" lon="6.768">
        <ele>3052.4</ele>
      </trkpt>
      <trkpt lat="44.57827" lon="6.76809">
        <ele>3054.6</ele>
      </trkpt>
      <trkpt lat="44.57826" lon="6.76815">
        <ele>3056.6</ele>
      </trkpt>
      <trkpt lat="44.57825" lon="6.76822">
        <ele>3058.8</ele>
      </trkpt>
      <trkpt lat="44.57823" lon="6.76829">
        <ele>3061.3</ele>
      </trkpt>
      <trkpt lat="44.57819" lon="6.76834">
        <ele>3063.2</ele>
      </trkpt>
      <trkpt lat="44.57813" lon="6.7684">
        <ele>3065.6</ele>
      </trkpt>
      <trkpt lat="44.57804" lon="6.76846">
        <ele>3068.1</ele>
      </trkpt>
      <trkpt lat="44.57796" lon="6.76852">
        <ele>3069.8</ele>
      </trkpt>
      <trkpt lat="44.57792" lon="6.7686">
        <ele>3072.2</ele>
      </trkpt>
      <trkpt lat="44.57787" lon="6.76864">
        <ele>3072.9</ele>
      </trkpt>
      <trkpt lat="44.57783" lon="6.76866">
        <ele>3073.2</ele>
      </trkpt>
      <trkpt lat="44.57779" lon="6.76872">
        <ele>3074.4</ele>
      </trkpt>
      <trkpt lat="44.57775" lon="6.76874">
        <ele>3074.8</ele>
      </trkpt>
      <trkpt lat="44.57771" lon="6.76874">
        <ele>3074.9</ele>
      </trkpt>
      <trkpt lat="44.57766" lon="6.76878">
        <ele>3076.1</ele>
      </trkpt>
      <trkpt lat="44.57761" lon="6.76884">
        <ele>3078.2</ele>
      </trkpt>
      <trkpt lat="44.57753" lon="6.76889">
        <ele>3080.7</ele>
      </trkpt>
      <trkpt lat="44.5775" lon="6.76894">
        <ele>3081.7</ele>
      </trkpt>
      <trkpt lat="44.57746" lon="6.76902">
        <ele>3082.8</ele>
      </trkpt>
      <trkpt lat="44.57743" lon="6.7691">
        <ele>3084</ele>
      </trkpt>
      <trkpt lat="44.57739" lon="6.76926">
        <ele>3086.1</ele>
      </trkpt>
      <trkpt lat="44.57734" lon="6.76936">
        <ele>3087.6</ele>
      </trkpt>
      <trkpt lat="44.57731" lon="6.76943">
        <ele>3088.8</ele>
      </trkpt>
      <trkpt lat="44.57728" lon="6.76953">
        <ele>3090.7</ele>
      </trkpt>
      <trkpt lat="44.57727" lon="6.76961">
        <ele>3092</ele>
      </trkpt>
      <trkpt lat="44.57726" lon="6.76975">
        <ele>3094.5</ele>
      </trkpt>
      <trkpt lat="44.57723" lon="6.76985">
        <ele>3097.6</ele>
      </trkpt>
      <trkpt lat="44.57718" lon="6.76993">
        <ele>3100</ele>
      </trkpt>
      <trkpt lat="44.5771" lon="6.76996">
        <ele>3100.9</ele>
      </trkpt>
      <trkpt lat="44.577" lon="6.76997">
        <ele>3101.2</ele>
      </trkpt>
      <trkpt lat="44.57693" lon="6.77005">
        <ele>3102.7</ele>
      </trkpt>
      <trkpt lat="44.57687" lon="6.77019">
        <ele>3104.3</ele>
      </trkpt>
      <trkpt lat="44.57679" lon="6.77026">
        <ele>3104.7</ele>
      </trkpt>
      <trkpt lat="44.57653" lon="6.77047">
        <ele>3107.2</ele>
      </trkpt>
      <trkpt lat="44.57636" lon="6.7706">
        <ele>3109.4</ele>
      </trkpt>
      <trkpt lat="44.57632" lon="6.77061">
        <ele>3109.8</ele>
      </trkpt>
      <trkpt lat="44.57629" lon="6.77062">
        <ele>3110.2</ele>
      </trkpt>
      <trkpt lat="44.57622" lon="6.77068">
        <ele>3112.2</ele>
      </trkpt>
      <trkpt lat="44.57614" lon="6.77073">
        <ele>3113.9</ele>
      </trkpt>
      <trkpt lat="44.57609" lon="6.77073">
        <ele>3114.5</ele>
      </trkpt>
      <trkpt lat="44.57604" lon="6.77076">
        <ele>3116.4</ele>
      </trkpt>
      <trkpt lat="44.57589" lon="6.77079">
        <ele>3120.4</ele>
      </trkpt>
      <trkpt lat="44.57582" lon="6.77078">
        <ele>3121.6</ele>
      </trkpt>
      <trkpt lat="44.57569" lon="6.77077">
        <ele>3124.8</ele>
      </trkpt>
      <trkpt lat="44.57556" lon="6.77074">
        <ele>3127.5</ele>
      </trkpt>
      <trkpt lat="44.57548" lon="6.77069">
        <ele>3129.5</ele>
      </trkpt>
      <trkpt lat="44.57539" lon="6.77064">
        <ele>3131.9</ele>
      </trkpt>
      <trkpt lat="44.57531" lon="6.77062">
        <ele>3134.6</ele>
      </trkpt>
      <trkpt lat="44.57528" lon="6.77064">
        <ele>3136.3</ele>
      </trkpt>
      <trkpt lat="44.57524" lon="6.77061">
        <ele>3136.8</ele>
      </trkpt>
      <trkpt lat="44.57516" lon="6.77057">
        <ele>3138.2</ele>
      </trkpt>
      <trkpt lat="44.57499" lon="6.77045">
        <ele>3140.7</ele>
      </trkpt>
      <trkpt lat="44.57492" lon="6.77039">
        <ele>3141.6</ele>
      </trkpt>
      <trkpt lat="44.5748" lon="6.7703">
        <ele>3144.3</ele>
      </trkpt>
      <trkpt lat="44.57464" lon="6.7702">
        <ele>3147.4</ele>
      </trkpt>
      <trkpt lat="44.57448" lon="6.77003">
        <ele>3151.5</ele>
      </trkpt>
      <trkpt lat="44.57437" lon="6.76997">
        <ele>3152.4</ele>
      </trkpt>
      <trkpt lat="44.57436" lon="6.76996">
        <ele>3152.4</ele>
      </trkpt>
      <trkpt lat="44.57427" lon="6.76992">
        <ele>3152.8</ele>
      </trkpt>
      <trkpt lat="44.57414" lon="6.76978">
        <ele>3156.9</ele>
      </trkpt>
      <trkpt lat="44.57404" lon="6.76965">
        <ele>3156.9</ele>
      </trkpt>
      <trkpt lat="44.57393" lon="6.76953">
        <ele>3158.6</ele>
      </trkpt>
      <trkpt lat="44.57391" lon="6.76951">
        <ele>3159.2</ele>
      </trkpt>
      <trkpt lat="44.57388" lon="6.76948">
        <ele>3160.2</ele>
      </trkpt>
      <trkpt lat="44.57391" lon="6.76951">
        <ele>3159.2</ele>
      </trkpt>
      <trkpt lat="44.57393" lon="6.76953">
        <ele>3158.6</ele>
      </trkpt>
      <trkpt lat="44.57404" lon="6.76965">
        <ele>3156.9</ele>
      </trkpt>
      <trkpt lat="44.57414" lon="6.76978">
        <ele>3156.9</ele>
      </trkpt>
      <trkpt lat="44.57427" lon="6.76992">
        <ele>3152.8</ele>
      </trkpt>
      <trkpt lat="44.57436" lon="6.76996">
        <ele>3152.4</ele>
      </trkpt>
      <trkpt lat="44.57437" lon="6.76997">
        <ele>3152.4</ele>
      </trkpt>
      <trkpt lat="44.57448" lon="6.77003">
        <ele>3151.5</ele>
      </trkpt>
      <trkpt lat="44.57464" lon="6.7702">
        <ele>3147.4</ele>
      </trkpt>
      <trkpt lat="44.5748" lon="6.7703">
        <ele>3144.3</ele>
      </trkpt>
      <trkpt lat="44.57492" lon="6.77039">
        <ele>3141.6</ele>
      </trkpt>
      <trkpt lat="44.57499" lon="6.77045">
        <ele>3140.7</ele>
      </trkpt>
      <trkpt lat="44.57516" lon="6.77057">
        <ele>3138.2</ele>
      </trkpt>
      <trkpt lat="44.57524" lon="6.77061">
        <ele>3136.8</ele>
      </trkpt>
      <trkpt lat="44.57528" lon="6.77064">
        <ele>3136.3</ele>
      </trkpt>
      <trkpt lat="44.57531" lon="6.77062">
        <ele>3134.6</ele>
      </trkpt>
      <trkpt lat="44.57539" lon="6.77064">
        <ele>3131.9</ele>
      </trkpt>
      <trkpt lat="44.57548" lon="6.77069">
        <ele>3129.5</ele>
      </trkpt>
      <trkpt lat="44.57556" lon="6.77074">
        <ele>3127.5</ele>
      </trkpt>
      <trkpt lat="44.57569" lon="6.77077">
        <ele>3124.8</ele>
      </trkpt>
      <trkpt lat="44.57582" lon="6.77078">
        <ele>3121.6</ele>
      </trkpt>
      <trkpt lat="44.57589" lon="6.77079">
        <ele>3120.4</ele>
      </trkpt>
      <trkpt lat="44.57604" lon="6.77076">
        <ele>3116.4</ele>
      </trkpt>
      <trkpt lat="44.57609" lon="6.77073">
        <ele>3114.5</ele>
      </trkpt>
      <trkpt lat="44.57614" lon="6.77073">
        <ele>3113.9</ele>
      </trkpt>
      <trkpt lat="44.57622" lon="6.77068">
        <ele>3112.2</ele>
      </trkpt>
      <trkpt lat="44.57629" lon="6.77062">
        <ele>3110.2</ele>
      </trkpt>
      <trkpt lat="44.57632" lon="6.77061">
        <ele>3109.8</ele>
      </trkpt>
      <trkpt lat="44.57636" lon="6.7706">
        <ele>3109.4</ele>
      </trkpt>
      <trkpt lat="44.57653" lon="6.77047">
        <ele>3107.2</ele>
      </trkpt>
      <trkpt lat="44.57679" lon="6.77026">
        <ele>3104.7</ele>
      </trkpt>
      <trkpt lat="44.57687" lon="6.77019">
        <ele>3104.3</ele>
      </trkpt>
      <trkpt lat="44.57693" lon="6.77005">
        <ele>3102.7</ele>
      </trkpt>
      <trkpt lat="44.577" lon="6.76997">
        <ele>3101.2</ele>
      </trkpt>
      <trkpt lat="44.5771" lon="6.76996">
        <ele>3100.9</ele>
      </trkpt>
      <trkpt lat="44.57718" lon="6.76993">
        <ele>3100</ele>
      </trkpt>
      <trkpt lat="44.57723" lon="6.76985">
        <ele>3097.6</ele>
      </trkpt>
      <trkpt lat="44.57726" lon="6.76975">
        <ele>3094.5</ele>
      </trkpt>
      <trkpt lat="44.57727" lon="6.76961">
        <ele>3092</ele>
      </trkpt>
      <trkpt lat="44.57728" lon="6.76953">
        <ele>3090.7</ele>
      </trkpt>
      <trkpt lat="44.57731" lon="6.76943">
        <ele>3088.8</ele>
      </trkpt>
      <trkpt lat="44.57734" lon="6.76936">
        <ele>3087.6</ele>
      </trkpt>
      <trkpt lat="44.57739" lon="6.76926">
        <ele>3086.1</ele>
      </trkpt>
      <trkpt lat="44.57743" lon="6.7691">
        <ele>3084</ele>
      </trkpt>
      <trkpt lat="44.57746" lon="6.76902">
        <ele>3082.8</ele>
      </trkpt>
      <trkpt lat="44.5775" lon="6.76894">
        <ele>3081.7</ele>
      </trkpt>
      <trkpt lat="44.57753" lon="6.76889">
        <ele>3080.7</ele>
      </trkpt>
      <trkpt lat="44.57761" lon="6.76884">
        <ele>3078.2</ele>
      </trkpt>
      <trkpt lat="44.57766" lon="6.76878">
        <ele>3076.1</ele>
      </trkpt>
      <trkpt lat="44.57771" lon="6.76874">
        <ele>3074.9</ele>
      </trkpt>
      <trkpt lat="44.57775" lon="6.76874">
        <ele>3074.8</ele>
      </trkpt>
      <trkpt lat="44.57779" lon="6.76872">
        <ele>3074.4</ele>
      </trkpt>
      <trkpt lat="44.57783" lon="6.76866">
        <ele>3073.2</ele>
      </trkpt>
      <trkpt lat="44.57787" lon="6.76864">
        <ele>3072.9</ele>
      </trkpt>
      <trkpt lat="44.57792" lon="6.7686">
        <ele>3072.2</ele>
      </trkpt>
      <trkpt lat="44.57796" lon="6.76852">
        <ele>3069.8</ele>
      </trkpt>
      <trkpt lat="44.57804" lon="6.76846">
        <ele>3068.1</ele>
      </trkpt>
      <trkpt lat="44.57813" lon="6.7684">
        <ele>3065.6</ele>
      </trkpt>
      <trkpt lat="44.57819" lon="6.76834">
        <ele>3063.2</ele>
      </trkpt>
      <trkpt lat="44.57823" lon="6.76829">
        <ele>3061.3</ele>
      </trkpt>
      <trkpt lat="44.57825" lon="6.76822">
        <ele>3058.8</ele>
      </trkpt>
      <trkpt lat="44.57826" lon="6.76815">
        <ele>3056.6</ele>
      </trkpt>
      <trkpt lat="44.57827" lon="6.76809">
        <ele>3054.6</ele>
      </trkpt>
      <trkpt lat="44.57827" lon="6.768">
        <ele>3052.4</ele>
      </trkpt>
      <trkpt lat="44.5783" lon="6.76793">
        <ele>3051.1</ele>
      </trkpt>
      <trkpt lat="44.57839" lon="6.76782">
        <ele>3048.9</ele>
      </trkpt>
      <trkpt lat="44.57846" lon="6.76778">
        <ele>3048.1</ele>
      </trkpt>
      <trkpt lat="44.57856" lon="6.76774">
        <ele>3047.3</ele>
      </trkpt>
      <trkpt lat="44.57861" lon="6.76769">
        <ele>3046.4</ele>
      </trkpt>
      <trkpt lat="44.57863" lon="6.76762">
        <ele>3045.2</ele>
      </trkpt>
      <trkpt lat="44.57862" lon="6.76758">
        <ele>3044.5</ele>
      </trkpt>
      <trkpt lat="44.5786" lon="6.76754">
        <ele>3043.8</ele>
      </trkpt>
      <trkpt lat="44.57857" lon="6.76749">
        <ele>3043</ele>
      </trkpt>
      <trkpt lat="44.57857" lon="6.76741">
        <ele>3041.7</ele>
      </trkpt>
      <trkpt lat="44.57857" lon="6.76727">
        <ele>3039.3</ele>
      </trkpt>
      <trkpt lat="44.57856" lon="6.76719">
        <ele>3038.2</ele>
      </trkpt>
      <trkpt lat="44.57855" lon="6.76713">
        <ele>3037.5</ele>
      </trkpt>
      <trkpt lat="44.57855" lon="6.76704">
        <ele>3036.6</ele>
      </trkpt>
      <trkpt lat="44.57855" lon="6.76695">
        <ele>3035.7</ele>
      </trkpt>
      <trkpt lat="44.57853" lon="6.7669">
        <ele>3034.8</ele>
      </trkpt>
      <trkpt lat="44.57851" lon="6.76684">
        <ele>3033.7</ele>
      </trkpt>
      <trkpt lat="44.57848" lon="6.76678">
        <ele>3032.1</ele>
      </trkpt>
      <trkpt lat="44.57846" lon="6.76674">
        <ele>3031.1</ele>
      </trkpt>
      <trkpt lat="44.57845" lon="6.76667">
        <ele>3029.8</ele>
      </trkpt>
      <trkpt lat="44.57846" lon="6.76664">
        <ele>3030</ele>
      </trkpt>
      <trkpt lat="44.57849" lon="6.76659">
        <ele>3031</ele>
      </trkpt>
      <trkpt lat="44.57848" lon="6.76657">
        <ele>3030.6</ele>
      </trkpt>
      <trkpt lat="44.57847" lon="6.76657">
        <ele>3030.2</ele>
      </trkpt>
      <trkpt lat="44.57844" lon="6.76657">
        <ele>3029.2</ele>
      </trkpt>
      <trkpt lat="44.57842" lon="6.76655">
        <ele>3028.4</ele>
      </trkpt>
      <trkpt lat="44.57842" lon="6.76651">
        <ele>3028.2</ele>
      </trkpt>
      <trkpt lat="44.5784" lon="6.76645">
        <ele>3027.2</ele>
      </trkpt>
      <trkpt lat="44.57838" lon="6.76639">
        <ele>3026</ele>
      </trkpt>
      <trkpt lat="44.57837" lon="6.76635">
        <ele>3025.9</ele>
      </trkpt>
      <trkpt lat="44.57836" lon="6.76634">
        <ele>3025.5</ele>
      </trkpt>
      <trkpt lat="44.57833" lon="6.7663">
        <ele>3024.5</ele>
      </trkpt>
      <trkpt lat="44.57829" lon="6.76622">
        <ele>3023.8</ele>
      </trkpt>
      <trkpt lat="44.57823" lon="6.76616">
        <ele>3022.1</ele>
      </trkpt>
      <trkpt lat="44.57816" lon="6.7661">
        <ele>3019.9</ele>
      </trkpt>
      <trkpt lat="44.57813" lon="6.76609">
        <ele>3019</ele>
      </trkpt>
      <trkpt lat="44.57809" lon="6.76609">
        <ele>3017.5</ele>
      </trkpt>
      <trkpt lat="44.57805" lon="6.76612">
        <ele>3015.7</ele>
      </trkpt>
      <trkpt lat="44.57801" lon="6.76614">
        <ele>3013.9</ele>
      </trkpt>
      <trkpt lat="44.57798" lon="6.76613">
        <ele>3012.4</ele>
      </trkpt>
      <trkpt lat="44.57796" lon="6.76611">
        <ele>3011.5</ele>
      </trkpt>
      <trkpt lat="44.57792" lon="6.76611">
        <ele>3009.7</ele>
      </trkpt>
      <trkpt lat="44.5779" lon="6.76612">
        <ele>3008.7</ele>
      </trkpt>
      <trkpt lat="44.57787" lon="6.76611">
        <ele>3007.3</ele>
      </trkpt>
      <trkpt lat="44.57785" lon="6.7661">
        <ele>3006.5</ele>
      </trkpt>
      <trkpt lat="44.57782" lon="6.76612">
        <ele>3004.9</ele>
      </trkpt>
      <trkpt lat="44.57779" lon="6.76612">
        <ele>3003.5</ele>
      </trkpt>
      <trkpt lat="44.57776" lon="6.76611">
        <ele>3002</ele>
      </trkpt>
      <trkpt lat="44.57774" lon="6.76608">
        <ele>3000.9</ele>
      </trkpt>
      <trkpt lat="44.57772" lon="6.76604">
        <ele>2999.9</ele>
      </trkpt>
      <trkpt lat="44.5777" lon="6.76602">
        <ele>2998.8</ele>
      </trkpt>
      <trkpt lat="44.57769" lon="6.766">
        <ele>2998.2</ele>
      </trkpt>
      <trkpt lat="44.57768" lon="6.76595">
        <ele>2997.7</ele>
      </trkpt>
      <trkpt lat="44.57767" lon="6.76592">
        <ele>2997.2</ele>
      </trkpt>
      <trkpt lat="44.57763" lon="6.76589">
        <ele>2994.9</ele>
      </trkpt>
      <trkpt lat="44.57754" lon="6.76586">
        <ele>2989.4</ele>
      </trkpt>
      <trkpt lat="44.57752" lon="6.76585">
        <ele>2988.2</ele>
      </trkpt>
      <trkpt lat="44.57751" lon="6.76582">
        <ele>2987.5</ele>
      </trkpt>
      <trkpt lat="44.57749" lon="6.7658">
        <ele>2986.3</ele>
      </trkpt>
      <trkpt lat="44.57747" lon="6.76578">
        <ele>2985.2</ele>
      </trkpt>
      <trkpt lat="44.57746" lon="6.76576">
        <ele>2984.6</ele>
      </trkpt>
      <trkpt lat="44.57744" lon="6.76573">
        <ele>2983.4</ele>
      </trkpt>
      <trkpt lat="44.5774" lon="6.76571">
        <ele>2981.4</ele>
      </trkpt>
      <trkpt lat="44.57736" lon="6.7657">
        <ele>2979.5</ele>
      </trkpt>
      <trkpt lat="44.57733" lon="6.76566">
        <ele>2977.8</ele>
      </trkpt>
      <trkpt lat="44.57732" lon="6.76561">
        <ele>2977</ele>
      </trkpt>
      <trkpt lat="44.57733" lon="6.76556">
        <ele>2977.1</ele>
      </trkpt>
      <trkpt lat="44.57735" lon="6.76551">
        <ele>2977.5</ele>
      </trkpt>
      <trkpt lat="44.57734" lon="6.76545">
        <ele>2976.3</ele>
      </trkpt>
      <trkpt lat="44.57734" lon="6.76542">
        <ele>2976</ele>
      </trkpt>
      <trkpt lat="44.57735" lon="6.76539">
        <ele>2976.1</ele>
      </trkpt>
      <trkpt lat="44.57735" lon="6.76536">
        <ele>2975.8</ele>
      </trkpt>
      <trkpt lat="44.57732" lon="6.76535">
        <ele>2974.1</ele>
      </trkpt>
      <trkpt lat="44.57731" lon="6.76534">
        <ele>2973.5</ele>
      </trkpt>
      <trkpt lat="44.57729" lon="6.76533">
        <ele>2972.3</ele>
      </trkpt>
      <trkpt lat="44.57729" lon="6.76531">
        <ele>2972.1</ele>
      </trkpt>
      <trkpt lat="44.57727" lon="6.76527">
        <ele>2970.4</ele>
      </trkpt>
      <trkpt lat="44.57723" lon="6.76521">
        <ele>2967</ele>
      </trkpt>
      <trkpt lat="44.57719" lon="6.76515">
        <ele>2963.7</ele>
      </trkpt>
      <trkpt lat="44.57717" lon="6.76508">
        <ele>2961.2</ele>
      </trkpt>
      <trkpt lat="44.57714" lon="6.76497">
        <ele>2957.4</ele>
      </trkpt>
      <trkpt lat="44.57715" lon="6.76495">
        <ele>2957.3</ele>
      </trkpt>
      <trkpt lat="44.57715" lon="6.76492">
        <ele>2956.5</ele>
      </trkpt>
      <trkpt lat="44.57714" lon="6.76489">
        <ele>2955.3</ele>
      </trkpt>
      <trkpt lat="44.57712" lon="6.76489">
        <ele>2954.3</ele>
      </trkpt>
      <trkpt lat="44.57708" lon="6.76488">
        <ele>2952.1</ele>
      </trkpt>
      <trkpt lat="44.57706" lon="6.76488">
        <ele>2951.1</ele>
      </trkpt>
      <trkpt lat="44.57706" lon="6.76482">
        <ele>2949.5</ele>
      </trkpt>
      <trkpt lat="44.57706" lon="6.76477">
        <ele>2948.1</ele>
      </trkpt>
      <trkpt lat="44.57709" lon="6.76471">
        <ele>2948.1</ele>
      </trkpt>
      <trkpt lat="44.5771" lon="6.76466">
        <ele>2947.4</ele>
      </trkpt>
      <trkpt lat="44.5771" lon="6.76461">
        <ele>2946.2</ele>
      </trkpt>
      <trkpt lat="44.57708" lon="6.76459">
        <ele>2944.7</ele>
      </trkpt>
      <trkpt lat="44.57706" lon="6.76455">
        <ele>2942.7</ele>
      </trkpt>
      <trkpt lat="44.57704" lon="6.76453">
        <ele>2941.2</ele>
      </trkpt>
      <trkpt lat="44.57703" lon="6.76451">
        <ele>2940.2</ele>
      </trkpt>
      <trkpt lat="44.577" lon="6.7645">
        <ele>2938.4</ele>
      </trkpt>
      <trkpt lat="44.57697" lon="6.7645">
        <ele>2936.8</ele>
      </trkpt>
      <trkpt lat="44.57695" lon="6.7645">
        <ele>2935.7</ele>
      </trkpt>
      <trkpt lat="44.57693" lon="6.76451">
        <ele>2935.1</ele>
      </trkpt>
      <trkpt lat="44.57691" lon="6.76453">
        <ele>2934.8</ele>
      </trkpt>
      <trkpt lat="44.57689" lon="6.76453">
        <ele>2934</ele>
      </trkpt>
      <trkpt lat="44.57688" lon="6.76452">
        <ele>2933.4</ele>
      </trkpt>
      <trkpt lat="44.57687" lon="6.7645">
        <ele>2932.5</ele>
      </trkpt>
      <trkpt lat="44.57686" lon="6.76448">
        <ele>2931.6</ele>
      </trkpt>
      <trkpt lat="44.57685" lon="6.76444">
        <ele>2930.2</ele>
      </trkpt>
      <trkpt lat="44.57684" lon="6.7644">
        <ele>2928.9</ele>
      </trkpt>
      <trkpt lat="44.57685" lon="6.76428">
        <ele>2926.7</ele>
      </trkpt>
      <trkpt lat="44.57687" lon="6.76425">
        <ele>2927</ele>
      </trkpt>
      <trkpt lat="44.57689" lon="6.76422">
        <ele>2927.3</ele>
      </trkpt>
      <trkpt lat="44.57689" lon="6.76416">
        <ele>2926.1</ele>
      </trkpt>
      <trkpt lat="44.5769" lon="6.7641">
        <ele>2925.2</ele>
      </trkpt>
      <trkpt lat="44.5769" lon="6.76405">
        <ele>2924.1</ele>
      </trkpt>
      <trkpt lat="44.57691" lon="6.764">
        <ele>2923.5</ele>
      </trkpt>
      <trkpt lat="44.57692" lon="6.76394">
        <ele>2922.7</ele>
      </trkpt>
      <trkpt lat="44.57692" lon="6.7639">
        <ele>2921.8</ele>
      </trkpt>
      <trkpt lat="44.57691" lon="6.76385">
        <ele>2920.6</ele>
      </trkpt>
      <trkpt lat="44.57691" lon="6.76378">
        <ele>2919.8</ele>
      </trkpt>
      <trkpt lat="44.57689" lon="6.76371">
        <ele>2917.8</ele>
      </trkpt>
      <trkpt lat="44.57685" lon="6.76364">
        <ele>2914.6</ele>
      </trkpt>
      <trkpt lat="44.57682" lon="6.76361">
        <ele>2912.4</ele>
      </trkpt>
      <trkpt lat="44.57678" lon="6.76359">
        <ele>2909.8</ele>
      </trkpt>
      <trkpt lat="44.57672" lon="6.7636">
        <ele>2906.1</ele>
      </trkpt>
      <trkpt lat="44.57667" lon="6.76358">
        <ele>2902.8</ele>
      </trkpt>
      <trkpt lat="44.57665" lon="6.76355">
        <ele>2901.3</ele>
      </trkpt>
      <trkpt lat="44.57662" lon="6.76353">
        <ele>2899.4</ele>
      </trkpt>
      <trkpt lat="44.57661" lon="6.76348">
        <ele>2898.2</ele>
      </trkpt>
      <trkpt lat="44.57656" lon="6.76348">
        <ele>2895.6</ele>
      </trkpt>
      <trkpt lat="44.57654" lon="6.76344">
        <ele>2893.9</ele>
      </trkpt>
      <trkpt lat="44.57652" lon="6.76344">
        <ele>2892.8</ele>
      </trkpt>
      <trkpt lat="44.57652" lon="6.76338">
        <ele>2891.8</ele>
      </trkpt>
      <trkpt lat="44.57648" lon="6.76338">
        <ele>2889.7</ele>
      </trkpt>
      <trkpt lat="44.57646" lon="6.76334">
        <ele>2888</ele>
      </trkpt>
      <trkpt lat="44.57644" lon="6.76333">
        <ele>2886.7</ele>
      </trkpt>
      <trkpt lat="44.57644" lon="6.76326">
        <ele>2886</ele>
      </trkpt>
      <trkpt lat="44.57643" lon="6.76322">
        <ele>2885</ele>
      </trkpt>
      <trkpt lat="44.57641" lon="6.7632">
        <ele>2883.7</ele>
      </trkpt>
      <trkpt lat="44.5764" lon="6.76316">
        <ele>2882.7</ele>
      </trkpt>
      <trkpt lat="44.57639" lon="6.76314">
        <ele>2882</ele>
      </trkpt>
      <trkpt lat="44.57637" lon="6.76314">
        <ele>2881.2</ele>
      </trkpt>
      <trkpt lat="44.57636" lon="6.76311">
        <ele>2880.5</ele>
      </trkpt>
      <trkpt lat="44.57634" lon="6.76311">
        <ele>2879.7</ele>
      </trkpt>
      <trkpt lat="44.57633" lon="6.7631">
        <ele>2879.2</ele>
      </trkpt>
      <trkpt lat="44.57631" lon="6.76308">
        <ele>2878.2</ele>
      </trkpt>
      <trkpt lat="44.57631" lon="6.76305">
        <ele>2877.8</ele>
      </trkpt>
      <trkpt lat="44.57628" lon="6.763">
        <ele>2876.1</ele>
      </trkpt>
      <trkpt lat="44.57626" lon="6.76289">
        <ele>2874.1</ele>
      </trkpt>
      <trkpt lat="44.57625" lon="6.76285">
        <ele>2873.3</ele>
      </trkpt>
      <trkpt lat="44.57625" lon="6.76283">
        <ele>2873.1</ele>
      </trkpt>
      <trkpt lat="44.57624" lon="6.76281">
        <ele>2872.5</ele>
      </trkpt>
      <trkpt lat="44.57622" lon="6.76281">
        <ele>2871.7</ele>
      </trkpt>
      <trkpt lat="44.5762" lon="6.76283">
        <ele>2871.1</ele>
      </trkpt>
      <trkpt lat="44.57619" lon="6.76283">
        <ele>2870.7</ele>
      </trkpt>
      <trkpt lat="44.57617" lon="6.76282">
        <ele>2869.8</ele>
      </trkpt>
      <trkpt lat="44.57615" lon="6.76276">
        <ele>2868.4</ele>
      </trkpt>
      <trkpt lat="44.57615" lon="6.76271">
        <ele>2868.2</ele>
      </trkpt>
      <trkpt lat="44.57614" lon="6.76269">
        <ele>2867.6</ele>
      </trkpt>
      <trkpt lat="44.57613" lon="6.76268">
        <ele>2867.1</ele>
      </trkpt>
      <trkpt lat="44.57609" lon="6.76267">
        <ele>2865.5</ele>
      </trkpt>
      <trkpt lat="44.57608" lon="6.76265">
        <ele>2865</ele>
      </trkpt>
      <trkpt lat="44.57607" lon="6.76263">
        <ele>2864.5</ele>
      </trkpt>
      <trkpt lat="44.57605" lon="6.7626">
        <ele>2863.5</ele>
      </trkpt>
      <trkpt lat="44.57603" lon="6.76257">
        <ele>2862.5</ele>
      </trkpt>
      <trkpt lat="44.57602" lon="6.76255">
        <ele>2861.9</ele>
      </trkpt>
      <trkpt lat="44.57601" lon="6.76255">
        <ele>2861.6</ele>
      </trkpt>
      <trkpt lat="44.57598" lon="6.76253">
        <ele>2860.2</ele>
      </trkpt>
      <trkpt lat="44.57598" lon="6.7625">
        <ele>2859.8</ele>
      </trkpt>
      <trkpt lat="44.57597" lon="6.76241">
        <ele>2858.3</ele>
      </trkpt>
      <trkpt lat="44.57597" lon="6.76238">
        <ele>2857.9</ele>
      </trkpt>
      <trkpt lat="44.57594" lon="6.76235">
        <ele>2856</ele>
      </trkpt>
      <trkpt lat="44.5759" lon="6.76231">
        <ele>2853.4</ele>
      </trkpt>
      <trkpt lat="44.57588" lon="6.76227">
        <ele>2851.6</ele>
      </trkpt>
      <trkpt lat="44.57586" lon="6.76223">
        <ele>2849.7</ele>
      </trkpt>
      <trkpt lat="44.57586" lon="6.76219">
        <ele>2849.4</ele>
      </trkpt>
      <trkpt lat="44.57585" lon="6.76215">
        <ele>2848.7</ele>
      </trkpt>
      <trkpt lat="44.5758" lon="6.76202">
        <ele>2845.8</ele>
      </trkpt>
      <trkpt lat="44.57576" lon="6.76193">
        <ele>2843.5</ele>
      </trkpt>
      <trkpt lat="44.57575" lon="6.76191">
        <ele>2842.9</ele>
      </trkpt>
      <trkpt lat="44.57572" lon="6.76191">
        <ele>2841.5</ele>
      </trkpt>
      <trkpt lat="44.5757" lon="6.76189">
        <ele>2840.4</ele>
      </trkpt>
      <trkpt lat="44.57569" lon="6.76186">
        <ele>2839.7</ele>
      </trkpt>
      <trkpt lat="44.57568" lon="6.76184">
        <ele>2839</ele>
      </trkpt>
      <trkpt lat="44.57567" lon="6.76183">
        <ele>2838.5</ele>
      </trkpt>
      <trkpt lat="44.57563" lon="6.76184">
        <ele>2836.6</ele>
      </trkpt>
      <trkpt lat="44.57558" lon="6.76183">
        <ele>2834</ele>
      </trkpt>
      <trkpt lat="44.57554" lon="6.76179">
        <ele>2832</ele>
      </trkpt>
      <trkpt lat="44.57547" lon="6.76176">
        <ele>2830.4</ele>
      </trkpt>
      <trkpt lat="44.57543" lon="6.76169">
        <ele>2828.6</ele>
      </trkpt>
      <trkpt lat="44.57539" lon="6.7616">
        <ele>2826.9</ele>
      </trkpt>
      <trkpt lat="44.57537" lon="6.76155">
        <ele>2826.2</ele>
      </trkpt>
      <trkpt lat="44.57536" lon="6.76147">
        <ele>2825.4</ele>
      </trkpt>
      <trkpt lat="44.57536" lon="6.76139">
        <ele>2824.8</ele>
      </trkpt>
      <trkpt lat="44.57535" lon="6.76131">
        <ele>2824</ele>
      </trkpt>
      <trkpt lat="44.57532" lon="6.76113">
        <ele>2822</ele>
      </trkpt>
      <trkpt lat="44.57531" lon="6.76108">
        <ele>2821.8</ele>
      </trkpt>
      <trkpt lat="44.5753" lon="6.76101">
        <ele>2821.8</ele>
      </trkpt>
      <trkpt lat="44.57523" lon="6.7609">
        <ele>2821.8</ele>
      </trkpt>
      <trkpt lat="44.57513" lon="6.76076">
        <ele>2822.7</ele>
      </trkpt>
      <trkpt lat="44.57504" lon="6.76067">
        <ele>2823.3</ele>
      </trkpt>
      <trkpt lat="44.57499" lon="6.76065">
        <ele>2823.3</ele>
      </trkpt>
      <trkpt lat="44.57489" lon="6.76061">
        <ele>2823.8</ele>
      </trkpt>
      <trkpt lat="44.57483" lon="6.76058">
        <ele>2823.9</ele>
      </trkpt>
      <trkpt lat="44.57475" lon="6.76055">
        <ele>2824.1</ele>
      </trkpt>
      <trkpt lat="44.57468" lon="6.76052">
        <ele>2825.1</ele>
      </trkpt>
      <trkpt lat="44.57463" lon="6.76048">
        <ele>2826.3</ele>
      </trkpt>
      <trkpt lat="44.57456" lon="6.76047">
        <ele>2827.4</ele>
      </trkpt>
      <trkpt lat="44.57449" lon="6.76046">
        <ele>2828.4</ele>
      </trkpt>
      <trkpt lat="44.5744" lon="6.76044">
        <ele>2830.4</ele>
      </trkpt>
      <trkpt lat="44.57434" lon="6.76038">
        <ele>2832.1</ele>
      </trkpt>
      <trkpt lat="44.57427" lon="6.76036">
        <ele>2833.6</ele>
      </trkpt>
      <trkpt lat="44.57421" lon="6.76032">
        <ele>2834.6</ele>
      </trkpt>
      <trkpt lat="44.57415" lon="6.76028">
        <ele>2835.3</ele>
      </trkpt>
      <trkpt lat="44.5741" lon="6.76021">
        <ele>2836.4</ele>
      </trkpt>
      <trkpt lat="44.57405" lon="6.76015">
        <ele>2837.1</ele>
      </trkpt>
      <trkpt lat="44.57394" lon="6.76007">
        <ele>2837.5</ele>
      </trkpt>
      <trkpt lat="44.57389" lon="6.75999">
        <ele>2837.1</ele>
      </trkpt>
      <trkpt lat="44.57382" lon="6.75992">
        <ele>2837.7</ele>
      </trkpt>
      <trkpt lat="44.57378" lon="6.75987">
        <ele>2837.7</ele>
      </trkpt>
      <trkpt lat="44.57371" lon="6.75981">
        <ele>2837.1</ele>
      </trkpt>
      <trkpt lat="44.57361" lon="6.7598">
        <ele>2835.8</ele>
      </trkpt>
      <trkpt lat="44.57354" lon="6.75979">
        <ele>2835.1</ele>
      </trkpt>
      <trkpt lat="44.57347" lon="6.75977">
        <ele>2834</ele>
      </trkpt>
      <trkpt lat="44.57341" lon="6.75975">
        <ele>2832.8</ele>
      </trkpt>
      <trkpt lat="44.57338" lon="6.7597">
        <ele>2831.4</ele>
      </trkpt>
      <trkpt lat="44.57336" lon="6.75967">
        <ele>2830.7</ele>
      </trkpt>
      <trkpt lat="44.57333" lon="6.75965">
        <ele>2829.9</ele>
      </trkpt>
      <trkpt lat="44.57332" lon="6.75963">
        <ele>2829.4</ele>
      </trkpt>
      <trkpt lat="44.5733" lon="6.75958">
        <ele>2828.2</ele>
      </trkpt>
      <trkpt lat="44.57328" lon="6.75954">
        <ele>2827.1</ele>
      </trkpt>
      <trkpt lat="44.57326" lon="6.75951">
        <ele>2826.1</ele>
      </trkpt>
      <trkpt lat="44.57323" lon="6.75949">
        <ele>2824.9</ele>
      </trkpt>
      <trkpt lat="44.57319" lon="6.75947">
        <ele>2823.4</ele>
      </trkpt>
      <trkpt lat="44.57314" lon="6.75945">
        <ele>2821.6</ele>
      </trkpt>
      <trkpt lat="44.57309" lon="6.75936">
        <ele>2817.9</ele>
      </trkpt>
      <trkpt lat="44.57308" lon="6.75931">
        <ele>2816.2</ele>
      </trkpt>
      <trkpt lat="44.57305" lon="6.75928">
        <ele>2814.1</ele>
      </trkpt>
      <trkpt lat="44.57303" lon="6.75925">
        <ele>2812.6</ele>
      </trkpt>
      <trkpt lat="44.57302" lon="6.7592">
        <ele>2810.8</ele>
      </trkpt>
      <trkpt lat="44.57301" lon="6.75911">
        <ele>2808.2</ele>
      </trkpt>
      <trkpt lat="44.57301" lon="6.759">
        <ele>2806</ele>
      </trkpt>
      <trkpt lat="44.57299" lon="6.75892">
        <ele>2803.4</ele>
      </trkpt>
      <trkpt lat="44.57298" lon="6.75885">
        <ele>2801.9</ele>
      </trkpt>
      <trkpt lat="44.57296" lon="6.7588">
        <ele>2800.5</ele>
      </trkpt>
      <trkpt lat="44.57292" lon="6.75877">
        <ele>2798.1</ele>
      </trkpt>
      <trkpt lat="44.57289" lon="6.75876">
        <ele>2796.4</ele>
      </trkpt>
      <trkpt lat="44.57285" lon="6.75876">
        <ele>2794.1</ele>
      </trkpt>
      <trkpt lat="44.57283" lon="6.75876">
        <ele>2793</ele>
      </trkpt>
      <trkpt lat="44.57282" lon="6.75872">
        <ele>2792</ele>
      </trkpt>
      <trkpt lat="44.57282" lon="6.75868">
        <ele>2791.5</ele>
      </trkpt>
      <trkpt lat="44.57281" lon="6.75863">
        <ele>2790.2</ele>
      </trkpt>
      <trkpt lat="44.57281" lon="6.75859">
        <ele>2789.6</ele>
      </trkpt>
      <trkpt lat="44.57279" lon="6.75852">
        <ele>2787.2</ele>
      </trkpt>
      <trkpt lat="44.57276" lon="6.75849">
        <ele>2784.7</ele>
      </trkpt>
      <trkpt lat="44.57275" lon="6.75848">
        <ele>2783.9</ele>
      </trkpt>
      <trkpt lat="44.57274" lon="6.75842">
        <ele>2782.1</ele>
      </trkpt>
      <trkpt lat="44.57274" lon="6.75834">
        <ele>2780.5</ele>
      </trkpt>
      <trkpt lat="44.57275" lon="6.7583">
        <ele>2780.5</ele>
      </trkpt>
      <trkpt lat="44.57275" lon="6.75827">
        <ele>2779.9</ele>
      </trkpt>
      <trkpt lat="44.57275" lon="6.75825">
        <ele>2779.6</ele>
      </trkpt>
      <trkpt lat="44.57274" lon="6.7582">
        <ele>2778</ele>
      </trkpt>
      <trkpt lat="44.57272" lon="6.75817">
        <ele>2776</ele>
      </trkpt>
      <trkpt lat="44.57271" lon="6.75816">
        <ele>2775.1</ele>
      </trkpt>
      <trkpt lat="44.57268" lon="6.75815">
        <ele>2772.8</ele>
      </trkpt>
      <trkpt lat="44.57265" lon="6.75811">
        <ele>2769.9</ele>
      </trkpt>
      <trkpt lat="44.57263" lon="6.75807">
        <ele>2767.6</ele>
      </trkpt>
      <trkpt lat="44.57261" lon="6.75803">
        <ele>2765.3</ele>
      </trkpt>
      <trkpt lat="44.57257" lon="6.75796">
        <ele>2761</ele>
      </trkpt>
      <trkpt lat="44.57253" lon="6.75789">
        <ele>2756.9</ele>
      </trkpt>
      <trkpt lat="44.5725" lon="6.75783">
        <ele>2753.9</ele>
      </trkpt>
      <trkpt lat="44.57247" lon="6.75778">
        <ele>2751.3</ele>
      </trkpt>
      <trkpt lat="44.57244" lon="6.75772">
        <ele>2748.1</ele>
      </trkpt>
      <trkpt lat="44.57242" lon="6.75769">
        <ele>2746.3</ele>
      </trkpt>
      <trkpt lat="44.5724" lon="6.75761">
        <ele>2743.2</ele>
      </trkpt>
      <trkpt lat="44.57236" lon="6.75751">
        <ele>2738.7</ele>
      </trkpt>
      <trkpt lat="44.57234" lon="6.75746">
        <ele>2736.6</ele>
      </trkpt>
      <trkpt lat="44.57232" lon="6.7574">
        <ele>2734.2</ele>
      </trkpt>
      <trkpt lat="44.57231" lon="6.75736">
        <ele>2732.9</ele>
      </trkpt>
      <trkpt lat="44.5723" lon="6.75733">
        <ele>2731.7</ele>
      </trkpt>
      <trkpt lat="44.57228" lon="6.75731">
        <ele>2730.2</ele>
      </trkpt>
      <trkpt lat="44.57226" lon="6.7573">
        <ele>2728.8</ele>
      </trkpt>
      <trkpt lat="44.57223" lon="6.75729">
        <ele>2726.9</ele>
      </trkpt>
      <trkpt lat="44.5722" lon="6.75728">
        <ele>2725.4</ele>
      </trkpt>
      <trkpt lat="44.57218" lon="6.75726">
        <ele>2724.3</ele>
      </trkpt>
      <trkpt lat="44.57216" lon="6.75725">
        <ele>2723.4</ele>
      </trkpt>
      <trkpt lat="44.57215" lon="6.75722">
        <ele>2722.4</ele>
      </trkpt>
      <trkpt lat="44.57214" lon="6.75719">
        <ele>2722</ele>
      </trkpt>
      <trkpt lat="44.57213" lon="6.75717">
        <ele>2721.7</ele>
      </trkpt>
      <trkpt lat="44.57212" lon="6.75715">
        <ele>2721.3</ele>
      </trkpt>
      <trkpt lat="44.57211" lon="6.75711">
        <ele>2721</ele>
      </trkpt>
      <trkpt lat="44.5721" lon="6.75709">
        <ele>2720.6</ele>
      </trkpt>
      <trkpt lat="44.57208" lon="6.75709">
        <ele>2719.9</ele>
      </trkpt>
      <trkpt lat="44.57207" lon="6.75707">
        <ele>2719.5</ele>
      </trkpt>
      <trkpt lat="44.57206" lon="6.75702">
        <ele>2719.2</ele>
      </trkpt>
      <trkpt lat="44.57203" lon="6.757">
        <ele>2718.1</ele>
      </trkpt>
      <trkpt lat="44.57201" lon="6.75696">
        <ele>2717.4</ele>
      </trkpt>
      <trkpt lat="44.57192" lon="6.75684">
        <ele>2716.8</ele>
      </trkpt>
      <trkpt lat="44.57182" lon="6.7567">
        <ele>2717.7</ele>
      </trkpt>
      <trkpt lat="44.57178" lon="6.75667">
        <ele>2717.4</ele>
      </trkpt>
      <trkpt lat="44.57171" lon="6.75663">
        <ele>2716.3</ele>
      </trkpt>
      <trkpt lat="44.5717" lon="6.75661">
        <ele>2716.3</ele>
      </trkpt>
      <trkpt lat="44.57169" lon="6.75658">
        <ele>2716.3</ele>
      </trkpt>
      <trkpt lat="44.57169" lon="6.75652">
        <ele>2716.8</ele>
      </trkpt>
      <trkpt lat="44.57166" lon="6.75645">
        <ele>2716.5</ele>
      </trkpt>
      <trkpt lat="44.5716" lon="6.75632">
        <ele>2715.9</ele>
      </trkpt>
      <trkpt lat="44.57157" lon="6.75624">
        <ele>2714.8</ele>
      </trkpt>
      <trkpt lat="44.57156" lon="6.75617">
        <ele>2714</ele>
      </trkpt>
      <trkpt lat="44.57155" lon="6.75602">
        <ele>2711.6</ele>
      </trkpt>
      <trkpt lat="44.57155" lon="6.75588">
        <ele>2709.2</ele>
      </trkpt>
      <trkpt lat="44.57155" lon="6.75575">
        <ele>2706.2</ele>
      </trkpt>
      <trkpt lat="44.57157" lon="6.75562">
        <ele>2703.5</ele>
      </trkpt>
      <trkpt lat="44.57158" lon="6.75558">
        <ele>2702.9</ele>
      </trkpt>
      <trkpt lat="44.57161" lon="6.75552">
        <ele>2702.6</ele>
      </trkpt>
      <trkpt lat="44.57162" lon="6.75543">
        <ele>2700.7</ele>
      </trkpt>
      <trkpt lat="44.57164" lon="6.75532">
        <ele>2698.7</ele>
      </trkpt>
      <trkpt lat="44.57166" lon="6.75522">
        <ele>2697.2</ele>
      </trkpt>
      <trkpt lat="44.57159" lon="6.75525">
        <ele>2694.4</ele>
      </trkpt>
      <trkpt lat="44.57154" lon="6.75532">
        <ele>2693.8</ele>
      </trkpt>
      <trkpt lat="44.57144" lon="6.75541">
        <ele>2691.7</ele>
      </trkpt>
      <trkpt lat="44.57141" lon="6.75542">
        <ele>2690.6</ele>
      </trkpt>
      <trkpt lat="44.5714" lon="6.75539">
        <ele>2689.2</ele>
      </trkpt>
      <trkpt lat="44.57139" lon="6.75531">
        <ele>2686.1</ele>
      </trkpt>
      <trkpt lat="44.57141" lon="6.75522">
        <ele>2684.6</ele>
      </trkpt>
      <trkpt lat="44.57143" lon="6.75512">
        <ele>2683.1</ele>
      </trkpt>
      <trkpt lat="44.57144" lon="6.75504">
        <ele>2681.6</ele>
      </trkpt>
      <trkpt lat="44.57143" lon="6.75489">
        <ele>2678.6</ele>
      </trkpt>
      <trkpt lat="44.57142" lon="6.75477">
        <ele>2676.6</ele>
      </trkpt>
      <trkpt lat="44.57137" lon="6.75469">
        <ele>2674.7</ele>
      </trkpt>
      <trkpt lat="44.57134" lon="6.75474">
        <ele>2674.8</ele>
      </trkpt>
      <trkpt lat="44.57131" lon="6.7548">
        <ele>2674.7</ele>
      </trkpt>
      <trkpt lat="44.57128" lon="6.75483">
        <ele>2674.3</ele>
      </trkpt>
      <trkpt lat="44.57122" lon="6.75483">
        <ele>2673.3</ele>
      </trkpt>
      <trkpt lat="44.57107" lon="6.75494">
        <ele>2675.5</ele>
        <time>2013-08-18T06:03:47.250Z</time>
      </trkpt>
      <trkpt lat="44.57089" lon="6.75509">
        <ele>2669.4</ele>
        <time>2013-08-18T06:03:54.250Z</time>
      </trkpt>
      <trkpt lat="44.57066" lon="6.75523">
        <ele>2664</ele>
        <time>2013-08-18T06:04:01.250Z</time>
      </trkpt>
      <trkpt lat="44.57045" lon="6.75533">
        <ele>2656.3</ele>
        <time>2013-08-18T06:04:12.250Z</time>
      </trkpt>
      <trkpt lat="44.57023" lon="6.75538">
        <ele>2649.6</ele>
        <time>2013-08-18T06:04:18.250Z</time>
      </trkpt>
      <trkpt lat="44.57004" lon="6.7556">
        <ele>2642</ele>
        <time>2013-08-18T06:04:24.250Z</time>
      </trkpt>
      <trkpt lat="44.56986" lon="6.75578">
        <ele>2636.2</ele>
        <time>2013-08-18T06:04:28.250Z</time>
      </trkpt>
      <trkpt lat="44.56964" lon="6.75592">
        <ele>2630.7</ele>
        <time>2013-08-18T06:04:32.250Z</time>
      </trkpt>
      <trkpt lat="44.56942" lon="6.75601">
        <ele>2627.1</ele>
        <time>2013-08-18T06:05:23.250Z</time>
      </trkpt>
      <trkpt lat="44.56921" lon="6.75595">
        <ele>2622.8</ele>
        <time>2013-08-18T06:05:30.250Z</time>
      </trkpt>
      <trkpt lat="44.56897" lon="6.75601">
        <ele>2614.3</ele>
        <time>2013-08-18T06:05:38.250Z</time>
      </trkpt>
      <trkpt lat="44.56872" lon="6.75601">
        <ele>2607.3</ele>
        <time>2013-08-18T06:05:46.250Z</time>
      </trkpt>
      <trkpt lat="44.56848" lon="6.75612">
        <ele>2602.7</ele>
        <time>2013-08-18T06:05:50.250Z</time>
      </trkpt>
      <trkpt lat="44.56829" lon="6.7563">
        <ele>2598.4</ele>
        <time>2013-08-18T06:05:54.250Z</time>
      </trkpt>
      <trkpt lat="44.56807" lon="6.75643">
        <ele>2593.2</ele>
        <time>2013-08-18T06:05:58.250Z</time>
      </trkpt>
      <trkpt lat="44.56787" lon="6.7565">
        <ele>2589.3</ele>
        <time>2013-08-18T06:06:05.250Z</time>
      </trkpt>
      <trkpt lat="44.56794" lon="6.75644">
        <ele>2589.9</ele>
        <time>2013-08-18T06:06:46.250Z</time>
      </trkpt>
      <trkpt lat="44.56774" lon="6.75651">
        <ele>2587.1</ele>
        <time>2013-08-18T06:07:03.250Z</time>
      </trkpt>
      <trkpt lat="44.56753" lon="6.75659">
        <ele>2581.7</ele>
        <time>2013-08-18T06:07:11.250Z</time>
      </trkpt>
      <trkpt lat="44.56735" lon="6.75672">
        <ele>2573.1</ele>
        <time>2013-08-18T06:07:38.250Z</time>
      </trkpt>
      <trkpt lat="44.56714" lon="6.75685">
        <ele>2566.4</ele>
        <time>2013-08-18T06:07:45.250Z</time>
      </trkpt>
      <trkpt lat="44.56698" lon="6.75699">
        <ele>2560</ele>
        <time>2013-08-18T06:09:02.250Z</time>
      </trkpt>
      <trkpt lat="44.56678" lon="6.75699">
        <ele>2550</ele>
        <time>2013-08-18T06:09:22.250Z</time>
      </trkpt>
      <trkpt lat="44.56666" lon="6.75702">
        <ele>2544.2</ele>
        <time>2013-08-18T06:09:37.250Z</time>
      </trkpt>
      <trkpt lat="44.56645" lon="6.75705">
        <ele>2536.9</ele>
        <time>2013-08-18T06:09:46.250Z</time>
      </trkpt>
      <trkpt lat="44.56628" lon="6.75722">
        <ele>2530.4</ele>
        <time>2013-08-18T06:09:54.250Z</time>
      </trkpt>
      <trkpt lat="44.56627" lon="6.7572">
        <ele>2532.3</ele>
        <time>2013-08-18T06:11:33.250Z</time>
      </trkpt>
      <trkpt lat="44.56608" lon="6.75743">
        <ele>2528.9</ele>
        <time>2013-08-18T06:11:41.250Z</time>
      </trkpt>
      <trkpt lat="44.56582" lon="6.75762">
        <ele>2522.2</ele>
        <time>2013-08-18T06:11:45.250Z</time>
      </trkpt>
      <trkpt lat="44.56562" lon="6.75765">
        <ele>2517</ele>
        <time>2013-08-18T06:11:49.250Z</time>
      </trkpt>
      <trkpt lat="44.56546" lon="6.75772">
        <ele>2507.3</ele>
        <time>2013-08-18T06:12:05.250Z</time>
      </trkpt>
      <trkpt lat="44.56533" lon="6.75785">
        <ele>2506.1</ele>
        <time>2013-08-18T06:12:55.250Z</time>
      </trkpt>
      <trkpt lat="44.56524" lon="6.75771">
        <ele>2507</ele>
        <time>2013-08-18T06:14:22.250Z</time>
      </trkpt>
      <trkpt lat="44.56508" lon="6.75789">
        <ele>2500.3</ele>
        <time>2013-08-18T06:14:34.250Z</time>
      </trkpt>
      <trkpt lat="44.56483" lon="6.75805">
        <ele>2493.6</ele>
        <time>2013-08-18T06:14:42.250Z</time>
      </trkpt>
      <trkpt lat="44.56463" lon="6.75805">
        <ele>2487.8</ele>
        <time>2013-08-18T06:14:50.250Z</time>
      </trkpt>
      <trkpt lat="44.56434" lon="6.75816">
        <ele>2482</ele>
        <time>2013-08-18T06:14:57.250Z</time>
      </trkpt>
      <trkpt lat="44.56415" lon="6.75824">
        <ele>2477.1</ele>
        <time>2013-08-18T06:15:01.250Z</time>
      </trkpt>
      <trkpt lat="44.56398" lon="6.75838">
        <ele>2470.4</ele>
        <time>2013-08-18T06:15:10.250Z</time>
      </trkpt>
      <trkpt lat="44.56371" lon="6.75853">
        <ele>2465.8</ele>
        <time>2013-08-18T06:15:17.250Z</time>
      </trkpt>
      <trkpt lat="44.56341" lon="6.7587">
        <ele>2461</ele>
        <time>2013-08-18T06:15:21.250Z</time>
      </trkpt>
      <trkpt lat="44.56314" lon="6.75883">
        <ele>2456.7</ele>
        <time>2013-08-18T06:15:24.250Z</time>
      </trkpt>
      <trkpt lat="44.56286" lon="6.75894">
        <ele>2453</ele>
        <time>2013-08-18T06:15:28.250Z</time>
      </trkpt>
      <trkpt lat="44.56262" lon="6.75903">
        <ele>2449.1</ele>
        <time>2013-08-18T06:15:31.250Z</time>
      </trkpt>
      <trkpt lat="44.56238" lon="6.75912">
        <ele>2445.4</ele>
        <time>2013-08-18T06:15:33.250Z</time>
      </trkpt>
      <trkpt lat="44.56221" lon="6.75919">
        <ele>2441.4</ele>
        <time>2013-08-18T06:15:37.250Z</time>
      </trkpt>
      <trkpt lat="44.5623" lon="6.75913">
        <ele>2443</ele>
        <time>2013-08-18T06:16:11.250Z</time>
      </trkpt>
      <trkpt lat="44.56221" lon="6.75928">
        <ele>2442.1</ele>
        <time>2013-08-18T06:16:44.250Z</time>
      </trkpt>
      <trkpt lat="44.56203" lon="6.75939">
        <ele>2438.4</ele>
        <time>2013-08-18T06:16:52.250Z</time>
      </trkpt>
      <trkpt lat="44.56181" lon="6.75948">
        <ele>2431.7</ele>
        <time>2013-08-18T06:16:57.250Z</time>
      </trkpt>
      <trkpt lat="44.56165" lon="6.75955">
        <ele>2423.2</ele>
        <time>2013-08-18T06:17:19.250Z</time>
      </trkpt>
      <trkpt lat="44.56141" lon="6.75958">
        <ele>2417.4</ele>
        <time>2013-08-18T06:17:39.250Z</time>
      </trkpt>
      <trkpt lat="44.56119" lon="6.75948">
        <ele>2410.7</ele>
        <time>2013-08-18T06:17:44.250Z</time>
      </trkpt>
      <trkpt lat="44.561" lon="6.75953">
        <ele>2404</ele>
        <time>2013-08-18T06:17:51.250Z</time>
      </trkpt>
      <trkpt lat="44.56077" lon="6.75959">
        <ele>2396.3</ele>
        <time>2013-08-18T06:18:01.250Z</time>
      </trkpt>
      <trkpt lat="44.56052" lon="6.75958">
        <ele>2388.7</ele>
        <time>2013-08-18T06:18:07.250Z</time>
      </trkpt>
      <trkpt lat="44.5603" lon="6.75963">
        <ele>2382.9</ele>
        <time>2013-08-18T06:18:13.250Z</time>
      </trkpt>
      <trkpt lat="44.56007" lon="6.75964">
        <ele>2378.7</ele>
        <time>2013-08-18T06:18:19.250Z</time>
      </trkpt>
      <trkpt lat="44.55988" lon="6.75965">
        <ele>2374.4</ele>
        <time>2013-08-18T06:18:29.250Z</time>
      </trkpt>
      <trkpt lat="44.55972" lon="6.75978">
        <ele>2369.2</ele>
        <time>2013-08-18T06:19:04.250Z</time>
      </trkpt>
      <trkpt lat="44.55951" lon="6.75991">
        <ele>2367.1</ele>
        <time>2013-08-18T06:19:26.250Z</time>
      </trkpt>
      <trkpt lat="44.55927" lon="6.75995">
        <ele>2363.7</ele>
        <time>2013-08-18T06:19:34.250Z</time>
      </trkpt>
      <trkpt lat="44.55906" lon="6.75999">
        <ele>2358.5</ele>
        <time>2013-08-18T06:19:39.250Z</time>
      </trkpt>
      <trkpt lat="44.55879" lon="6.76014">
        <ele>2353.4</ele>
        <time>2013-08-18T06:19:49.250Z</time>
      </trkpt>
      <trkpt lat="44.55854" lon="6.76025">
        <ele>2349.1</ele>
        <time>2013-08-18T06:19:54.250Z</time>
      </trkpt>
      <trkpt lat="44.55829" lon="6.76042">
        <ele>2343.3</ele>
        <time>2013-08-18T06:19:58.250Z</time>
      </trkpt>
      <trkpt lat="44.5581" lon="6.76056">
        <ele>2336.9</ele>
        <time>2013-08-18T06:20:03.250Z</time>
      </trkpt>
      <trkpt lat="44.55797" lon="6.7607">
        <ele>2331.4</ele>
        <time>2013-08-18T06:20:25.250Z</time>
      </trkpt>
      <trkpt lat="44.55788" lon="6.76072">
        <ele>2330.2</ele>
        <time>2013-08-18T06:21:09.250Z</time>
      </trkpt>
      <trkpt lat="44.55763" lon="6.7608">
        <ele>2325.9</ele>
        <time>2013-08-18T06:21:14.250Z</time>
      </trkpt>
      <trkpt lat="44.55745" lon="6.76097">
        <ele>2322</ele>
        <time>2013-08-18T06:21:16.250Z</time>
      </trkpt>
      <trkpt lat="44.55721" lon="6.76111">
        <ele>2316.5</ele>
        <time>2013-08-18T06:21:20.250Z</time>
      </trkpt>
      <trkpt lat="44.55706" lon="6.76133">
        <ele>2312.5</ele>
        <time>2013-08-18T06:21:26.250Z</time>
      </trkpt>
      <trkpt lat="44.55687" lon="6.76149">
        <ele>2309.2</ele>
        <time>2013-08-18T06:21:31.250Z</time>
      </trkpt>
      <trkpt lat="44.5566" lon="6.76169">
        <ele>2305.5</ele>
        <time>2013-08-18T06:21:50.250Z</time>
      </trkpt>
      <trkpt lat="44.55637" lon="6.76184">
        <ele>2302.5</ele>
        <time>2013-08-18T06:21:54.250Z</time>
      </trkpt>
      <trkpt lat="44.55619" lon="6.76207">
        <ele>2299.1</ele>
        <time>2013-08-18T06:21:57.250Z</time>
      </trkpt>
      <trkpt lat="44.55602" lon="6.76222">
        <ele>2296.4</ele>
        <time>2013-08-18T06:21:59.250Z</time>
      </trkpt>
      <trkpt lat="44.55579" lon="6.76223">
        <ele>2290.9</ele>
        <time>2013-08-18T06:22:05.250Z</time>
      </trkpt>
      <trkpt lat="44.55555" lon="6.76232">
        <ele>2284.8</ele>
        <time>2013-08-18T06:22:13.250Z</time>
      </trkpt>
      <trkpt lat="44.55536" lon="6.76247">
        <ele>2280.2</ele>
        <time>2013-08-18T06:22:20.250Z</time>
      </trkpt>
      <trkpt lat="44.55521" lon="6.76274">
        <ele>2276.2</ele>
        <time>2013-08-18T06:22:26.250Z</time>
      </trkpt>
      <trkpt lat="44.55504" lon="6.76293">
        <ele>2273.2</ele>
        <time>2013-08-18T06:22:32.250Z</time>
      </trkpt>
      <trkpt lat="44.55496" lon="6.76301">
        <ele>2270.2</ele>
        <time>2013-08-18T06:23:23.250Z</time>
      </trkpt>
      <trkpt lat="44.55476" lon="6.76321">
        <ele>2266.8</ele>
        <time>2013-08-18T06:23:34.250Z</time>
      </trkpt>
      <trkpt lat="44.5546" lon="6.76345">
        <ele>2263.1</ele>
        <time>2013-08-18T06:23:42.250Z</time>
      </trkpt>
      <trkpt lat="44.55439" lon="6.76365">
        <ele>2259.8</ele>
        <time>2013-08-18T06:23:50.250Z</time>
      </trkpt>
      <trkpt lat="44.55427" lon="6.76391">
        <ele>2256.7</ele>
        <time>2013-08-18T06:23:57.250Z</time>
      </trkpt>
      <trkpt lat="44.55401" lon="6.76409">
        <ele>2252.8</ele>
        <time>2013-08-18T06:24:02.250Z</time>
      </trkpt>
      <trkpt lat="44.55382" lon="6.76429">
        <ele>2249.7</ele>
        <time>2013-08-18T06:24:05.250Z</time>
      </trkpt>
      <trkpt lat="44.55359" lon="6.7645">
        <ele>2245.8</ele>
        <time>2013-08-18T06:24:09.250Z</time>
      </trkpt>
      <trkpt lat="44.55336" lon="6.7647">
        <ele>2241.8</ele>
        <time>2013-08-18T06:24:12.250Z</time>
      </trkpt>
      <trkpt lat="44.55312" lon="6.76488">
        <ele>2237.8</ele>
        <time>2013-08-18T06:24:16.250Z</time>
      </trkpt>
      <trkpt lat="44.55286" lon="6.765">
        <ele>2233.9</ele>
        <time>2013-08-18T06:24:20.250Z</time>
      </trkpt>
      <trkpt lat="44.55267" lon="6.76515">
        <ele>2229.6</ele>
        <time>2013-08-18T06:24:25.250Z</time>
      </trkpt>
      <trkpt lat="44.55242" lon="6.7653">
        <ele>2227.5</ele>
        <time>2013-08-18T06:24:31.250Z</time>
      </trkpt>
      <trkpt lat="44.55221" lon="6.76548">
        <ele>2225.3</ele>
        <time>2013-08-18T06:24:36.250Z</time>
      </trkpt>
      <trkpt lat="44.55201" lon="6.76576">
        <ele>2221.4</ele>
        <time>2013-08-18T06:25:26.250Z</time>
      </trkpt>
      <trkpt lat="44.55179" lon="6.76598">
        <ele>2217.7</ele>
        <time>2013-08-18T06:25:30.250Z</time>
      </trkpt>
      <trkpt lat="44.55162" lon="6.7663">
        <ele>2214.4</ele>
        <time>2013-08-18T06:25:34.250Z</time>
      </trkpt>
      <trkpt lat="44.55145" lon="6.76662">
        <ele>2211</ele>
        <time>2013-08-18T06:25:38.250Z</time>
      </trkpt>
      <trkpt lat="44.55137" lon="6.7669">
        <ele>2209.2</ele>
        <time>2013-08-18T06:25:41.250Z</time>
      </trkpt>
      <trkpt lat="44.55123" lon="6.76725">
        <ele>2206.8</ele>
        <time>2013-08-18T06:25:45.250Z</time>
      </trkpt>
      <trkpt lat="44.55114" lon="6.76754">
        <ele>2204.3</ele>
        <time>2013-08-18T06:25:49.250Z</time>
      </trkpt>
      <trkpt lat="44.55106" lon="6.76789">
        <ele>2201</ele>
        <time>2013-08-18T06:25:53.250Z</time>
      </trkpt>
      <trkpt lat="44.55102" lon="6.76823">
        <ele>2197.6</ele>
        <time>2013-08-18T06:25:58.250Z</time>
      </trkpt>
      <trkpt lat="44.55097" lon="6.7685">
        <ele>2196.7</ele>
        <time>2013-08-18T06:26:05.250Z</time>
      </trkpt>
      <trkpt lat="44.55093" lon="6.76846">
        <ele>2197.6</ele>
        <time>2013-08-18T06:26:48.250Z</time>
      </trkpt>
      <trkpt lat="44.5509" lon="6.76817">
        <ele>2198.8</ele>
        <time>2013-08-18T06:27:11.250Z</time>
      </trkpt>
      <trkpt lat="44.55084" lon="6.7679">
        <ele>2202.5</ele>
        <time>2013-08-18T06:27:37.250Z</time>
      </trkpt>
      <trkpt lat="44.55075" lon="6.76761">
        <ele>2203.4</ele>
        <time>2013-08-18T06:28:03.250Z</time>
      </trkpt>
      <trkpt lat="44.55064" lon="6.76734">
        <ele>2203.1</ele>
        <time>2013-08-18T06:28:23.250Z</time>
      </trkpt>
      <trkpt lat="44.55051" lon="6.76709">
        <ele>2203.7</ele>
        <time>2013-08-18T06:28:43.250Z</time>
      </trkpt>
      <trkpt lat="44.55034" lon="6.7671">
        <ele>2203.7</ele>
        <time>2013-08-18T06:29:05.250Z</time>
      </trkpt>
      <trkpt lat="44.55012" lon="6.76726">
        <ele>2198.5</ele>
        <time>2013-08-18T06:29:17.250Z</time>
      </trkpt>
      <trkpt lat="44.54992" lon="6.76733">
        <ele>2194.6</ele>
        <time>2013-08-18T06:29:26.250Z</time>
      </trkpt>
      <trkpt lat="44.54972" lon="6.76748">
        <ele>2193</ele>
        <time>2013-08-18T06:29:38.250Z</time>
      </trkpt>
      <trkpt lat="44.54959" lon="6.76777">
        <ele>2184.5</ele>
        <time>2013-08-18T06:29:44.250Z</time>
      </trkpt>
      <trkpt lat="44.54937" lon="6.76777">
        <ele>2176.9</ele>
        <time>2013-08-18T06:29:52.250Z</time>
      </trkpt>
      <trkpt lat="44.54921" lon="6.76805">
        <ele>2169</ele>
        <time>2013-08-18T06:30:00.250Z</time>
      </trkpt>
      <trkpt lat="44.54905" lon="6.76824">
        <ele>2162.3</ele>
        <time>2013-08-18T06:30:05.250Z</time>
      </trkpt>
      <trkpt lat="44.54889" lon="6.76839">
        <ele>2155.9</ele>
        <time>2013-08-18T06:31:22.250Z</time>
      </trkpt>
      <trkpt lat="44.54868" lon="6.76847">
        <ele>2154.3</ele>
        <time>2013-08-18T06:31:30.250Z</time>
      </trkpt>
      <trkpt lat="44.54849" lon="6.76835">
        <ele>2151.6</ele>
        <time>2013-08-18T06:31:44.250Z</time>
      </trkpt>
      <trkpt lat="44.5483" lon="6.76842">
        <ele>2147.6</ele>
        <time>2013-08-18T06:32:06.250Z</time>
      </trkpt>
      <trkpt lat="44.54818" lon="6.76876">
        <ele>2140.9</ele>
        <time>2013-08-18T06:32:11.250Z</time>
      </trkpt>
      <trkpt lat="44.54799" lon="6.76894">
        <ele>2132.4</ele>
        <time>2013-08-18T06:32:15.250Z</time>
      </trkpt>
      <trkpt lat="44.54776" lon="6.7691">
        <ele>2125.7</ele>
        <time>2013-08-18T06:32:19.250Z</time>
      </trkpt>
      <trkpt lat="44.54753" lon="6.7693">
        <ele>2120.8</ele>
        <time>2013-08-18T06:32:23.250Z</time>
      </trkpt>
      <trkpt lat="44.54735" lon="6.76947">
        <ele>2118.4</ele>
        <time>2013-08-18T06:32:26.250Z</time>
      </trkpt>
      <trkpt lat="44.54717" lon="6.76969">
        <ele>2114.4</ele>
        <time>2013-08-18T06:32:30.250Z</time>
      </trkpt>
      <trkpt lat="44.54695" lon="6.76988">
        <ele>2111.3</ele>
        <time>2013-08-18T06:32:34.250Z</time>
      </trkpt>
      <trkpt lat="44.54672" lon="6.77001">
        <ele>2109.2</ele>
        <time>2013-08-18T06:32:38.250Z</time>
      </trkpt>
      <trkpt lat="44.54649" lon="6.77018">
        <ele>2105.6</ele>
        <time>2013-08-18T06:32:42.250Z</time>
      </trkpt>
      <trkpt lat="44.54624" lon="6.77027">
        <ele>2101.9</ele>
        <time>2013-08-18T06:32:46.250Z</time>
      </trkpt>
      <trkpt lat="44.54605" lon="6.77041">
        <ele>2098.2</ele>
        <time>2013-08-18T06:32:50.250Z</time>
      </trkpt>
      <trkpt lat="44.54581" lon="6.77046">
        <ele>2093.7</ele>
        <time>2013-08-18T06:32:57.250Z</time>
      </trkpt>
      <trkpt lat="44.54567" lon="6.77074">
        <ele>2088.2</ele>
        <time>2013-08-18T06:33:05.250Z</time>
      </trkpt>
      <trkpt lat="44.54554" lon="6.77098">
        <ele>2082.7</ele>
        <time>2013-08-18T06:33:10.250Z</time>
      </trkpt>
      <trkpt lat="44.54536" lon="6.77124">
        <ele>2076.6</ele>
        <time>2013-08-18T06:33:16.250Z</time>
      </trkpt>
      <trkpt lat="44.54516" lon="6.77145">
        <ele>2075.4</ele>
        <time>2013-08-18T06:33:20.250Z</time>
      </trkpt>
      <trkpt lat="44.54499" lon="6.77162">
        <ele>2075.4</ele>
        <time>2013-08-18T06:33:27.250Z</time>
      </trkpt>
      <trkpt lat="44.54483" lon="6.77181">
        <ele>2075.4</ele>
        <time>2013-08-18T06:34:48.250Z</time>
      </trkpt>
      <trkpt lat="44.54476" lon="6.77209">
        <ele>2068.1</ele>
        <time>2013-08-18T06:34:57.250Z</time>
      </trkpt>
      <trkpt lat="44.54486" lon="6.77232">
        <ele>2058.6</ele>
        <time>2013-08-18T06:35:08.250Z</time>
      </trkpt>
      <trkpt lat="44.54477" lon="6.77261">
        <ele>2050.7</ele>
        <time>2013-08-18T06:35:15.250Z</time>
      </trkpt>
      <trkpt lat="44.54454" lon="6.7727">
        <ele>2042.8</ele>
        <time>2013-08-18T06:35:20.250Z</time>
      </trkpt>
      <trkpt lat="44.54438" lon="6.77287">
        <ele>2035.5</ele>
        <time>2013-08-18T06:35:28.250Z</time>
      </trkpt>
      <trkpt lat="44.54416" lon="6.77306">
        <ele>2029.4</ele>
        <time>2013-08-18T06:35:34.250Z</time>
      </trkpt>
      <trkpt lat="44.54399" lon="6.7732">
        <ele>2023</ele>
        <time>2013-08-18T06:35:40.250Z</time>
      </trkpt>
      <trkpt lat="44.54376" lon="6.77322">
        <ele>2016.3</ele>
        <time>2013-08-18T06:35:47.250Z</time>
      </trkpt>
      <trkpt lat="44.54356" lon="6.77327">
        <ele>2012.6</ele>
        <time>2013-08-18T06:35:51.250Z</time>
      </trkpt>
      <trkpt lat="44.54337" lon="6.77352">
        <ele>2008.6</ele>
        <time>2013-08-18T06:35:58.250Z</time>
      </trkpt>
      <trkpt lat="44.54317" lon="6.7738">
        <ele>2001.3</ele>
        <time>2013-08-18T06:36:02.250Z</time>
      </trkpt>
      <trkpt lat="44.54303" lon="6.77399">
        <ele>1994</ele>
        <time>2013-08-18T06:36:09.250Z</time>
      </trkpt>
      <trkpt lat="44.54293" lon="6.7743">
        <ele>1989.4</ele>
        <time>2013-08-18T06:36:56.250Z</time>
      </trkpt>
      <trkpt lat="44.54271" lon="6.77453">
        <ele>1980.6</ele>
        <time>2013-08-18T06:37:00.250Z</time>
      </trkpt>
      <trkpt lat="44.5425" lon="6.77468">
        <ele>1975.4</ele>
        <time>2013-08-18T06:37:04.250Z</time>
      </trkpt>
      <trkpt lat="44.54229" lon="6.77485">
        <ele>1971.1</ele>
        <time>2013-08-18T06:37:08.250Z</time>
      </trkpt>
      <trkpt lat="44.54203" lon="6.77492">
        <ele>1967.5</ele>
        <time>2013-08-18T06:37:15.250Z</time>
      </trkpt>
      <trkpt lat="44.54178" lon="6.77507">
        <ele>1961.4</ele>
        <time>2013-08-18T06:37:19.250Z</time>
      </trkpt>
      <trkpt lat="44.54155" lon="6.77524">
        <ele>1957.1</ele>
        <time>2013-08-18T06:37:23.250Z</time>
      </trkpt>
      <trkpt lat="44.54139" lon="6.77534">
        <ele>1954.1</ele>
        <time>2013-08-18T06:37:28.250Z</time>
      </trkpt>
      <trkpt lat="44.54135" lon="6.77514">
        <ele>1952.2</ele>
        <time>2013-08-18T06:38:17.250Z</time>
      </trkpt>
      <trkpt lat="44.5412" lon="6.77486">
        <ele>1946.5</ele>
        <time>2013-08-18T06:38:22.250Z</time>
      </trkpt>
      <trkpt lat="44.54105" lon="6.77463">
        <ele>1944.9</ele>
        <time>2013-08-18T06:38:28.250Z</time>
      </trkpt>
      <trkpt lat="44.54093" lon="6.77438">
        <ele>1943.1</ele>
        <time>2013-08-18T06:38:33.250Z</time>
      </trkpt>
      <trkpt lat="44.54074" lon="6.77417">
        <ele>1939.7</ele>
        <time>2013-08-18T06:38:41.250Z</time>
      </trkpt>
      <trkpt lat="44.54058" lon="6.77401">
        <ele>1938.8</ele>
        <time>2013-08-18T06:39:08.250Z</time>
      </trkpt>
      <trkpt lat="44.54049" lon="6.77391">
        <ele>1937.9</ele>
        <time>2013-08-18T06:41:38.250Z</time>
      </trkpt>
      <trkpt lat="44.5403" lon="6.77391">
        <ele>1930.9</ele>
        <time>2013-08-18T06:41:52.250Z</time>
      </trkpt>
      <trkpt lat="44.54017" lon="6.77413">
        <ele>1923.6</ele>
        <time>2013-08-18T06:42:02.250Z</time>
      </trkpt>
      <trkpt lat="44.53996" lon="6.77418">
        <ele>1916.9</ele>
        <time>2013-08-18T06:42:14.250Z</time>
      </trkpt>
      <trkpt lat="44.53983" lon="6.77447">
        <ele>1905.3</ele>
        <time>2013-08-18T06:42:27.250Z</time>
      </trkpt>
      <trkpt lat="44.53967" lon="6.77471">
        <ele>1896.2</ele>
        <time>2013-08-18T06:42:36.250Z</time>
      </trkpt>
      <trkpt lat="44.53967" lon="6.77491">
        <ele>1887.3</ele>
        <time>2013-08-18T06:42:50.250Z</time>
      </trkpt>
      <trkpt lat="44.53988" lon="6.77504">
        <ele>1887.6</ele>
        <time>2013-08-18T06:42:59.250Z</time>
      </trkpt>
      <trkpt lat="44.54003" lon="6.77531">
        <ele>1889.2</ele>
        <time>2013-08-18T06:43:08.250Z</time>
      </trkpt>
      <trkpt lat="44.54003" lon="6.77561">
        <ele>1888.2</ele>
        <time>2013-08-18T06:43:19.250Z</time>
      </trkpt>
      <trkpt lat="44.53993" lon="6.77587">
        <ele>1882.1</ele>
        <time>2013-08-18T06:44:36.250Z</time>
      </trkpt>
      <trkpt lat="44.53978" lon="6.77611">
        <ele>1874.5</ele>
        <time>2013-08-18T06:44:50.250Z</time>
      </trkpt>
      <trkpt lat="44.53964" lon="6.77637">
        <ele>1868.1</ele>
        <time>2013-08-18T06:45:00.250Z</time>
      </trkpt>
      <trkpt lat="44.53956" lon="6.77636">
        <ele>1861.7</ele>
        <time>2013-08-18T06:45:13.250Z</time>
      </trkpt>
      <trkpt lat="44.53942" lon="6.77612">
        <ele>1855.9</ele>
        <time>2013-08-18T06:45:27.250Z</time>
      </trkpt>
      <trkpt lat="44.53929" lon="6.77611">
        <ele>1845.9</ele>
        <time>2013-08-18T06:46:50.250Z</time>
      </trkpt>
      <trkpt lat="44.53929" lon="6.77627">
        <ele>1848.6</ele>
        <time>2013-08-18T06:48:05.250Z</time>
      </trkpt>
      <trkpt lat="44.53915" lon="6.77645">
        <ele>1841</ele>
        <time>2013-08-18T06:48:11.250Z</time>
      </trkpt>
      <trkpt lat="44.53896" lon="6.77668">
        <ele>1832.8</ele>
        <time>2013-08-18T06:48:16.250Z</time>
      </trkpt>
      <trkpt lat="44.53892" lon="6.7769">
        <ele>1823.3</ele>
        <time>2013-08-18T06:48:57.250Z</time>
      </trkpt>
      <trkpt lat="44.53873" lon="6.77687">
        <ele>1817.8</ele>
        <time>2013-08-18T06:49:17.250Z</time>
      </trkpt>
      <trkpt lat="44.5385" lon="6.77673">
        <ele>1811.4</ele>
        <time>2013-08-18T06:49:26.250Z</time>
      </trkpt>
      <trkpt lat="44.53827" lon="6.77679">
        <ele>1805</ele>
        <time>2013-08-18T06:49:32.250Z</time>
      </trkpt>
      <trkpt lat="44.53802" lon="6.7767">
        <ele>1797.7</ele>
        <time>2013-08-18T06:49:40.250Z</time>
      </trkpt>
      <trkpt lat="44.53781" lon="6.77661">
        <ele>1791</ele>
        <time>2013-08-18T06:49:45.250Z</time>
      </trkpt>
      <trkpt lat="44.53761" lon="6.7765">
        <ele>1782.8</ele>
        <time>2013-08-18T06:49:56.250Z</time>
      </trkpt>
      <trkpt lat="44.53735" lon="6.77646">
        <ele>1774.2</ele>
        <time>2013-08-18T06:50:04.250Z</time>
      </trkpt>
      <trkpt lat="44.53713" lon="6.77671">
        <ele>1764.8</ele>
        <time>2013-08-18T06:50:11.250Z</time>
      </trkpt>
      <trkpt lat="44.53694" lon="6.77684">
        <ele>1759</ele>
        <time>2013-08-18T06:50:15.250Z</time>
      </trkpt>
      <trkpt lat="44.53676" lon="6.77682">
        <ele>1753.5</ele>
        <time>2013-08-18T06:50:23.250Z</time>
      </trkpt>
      <trkpt lat="44.53661" lon="6.77697">
        <ele>1748</ele>
        <time>2013-08-18T06:51:55.250Z</time>
      </trkpt>
      <trkpt lat="44.53663" lon="6.77734">
        <ele>1743.2</ele>
        <time>2013-08-18T06:52:04.250Z</time>
      </trkpt>
      <trkpt lat="44.53661" lon="6.7777">
        <ele>1737.7</ele>
        <time>2013-08-18T06:52:10.250Z</time>
      </trkpt>
      <trkpt lat="44.53676" lon="6.77785">
        <ele>1734.3</ele>
        <time>2013-08-18T06:52:17.250Z</time>
      </trkpt>
      <trkpt lat="44.53688" lon="6.7781">
        <ele>1727.9</ele>
        <time>2013-08-18T06:52:29.250Z</time>
      </trkpt>
      <trkpt lat="44.53678" lon="6.77815">
        <ele>1726.4</ele>
        <time>2013-08-18T06:53:48.250Z</time>
      </trkpt>
      <trkpt lat="44.537" lon="6.77833">
        <ele>1720</ele>
        <time>2013-08-18T06:53:59.250Z</time>
      </trkpt>
      <trkpt lat="44.53722" lon="6.77846">
        <ele>1716.3</ele>
        <time>2013-08-18T06:54:05.250Z</time>
      </trkpt>
      <trkpt lat="44.53739" lon="6.77863">
        <ele>1712.7</ele>
        <time>2013-08-18T06:54:14.250Z</time>
      </trkpt>
      <trkpt lat="44.53745" lon="6.77884">
        <ele>1704.7</ele>
        <time>2013-08-18T06:54:30.250Z</time>
      </trkpt>
      <trkpt lat="44.53724" lon="6.77901">
        <ele>1697.1</ele>
        <time>2013-08-18T06:54:41.250Z</time>
      </trkpt>
      <trkpt lat="44.537" lon="6.77903">
        <ele>1691.6</ele>
        <time>2013-08-18T06:54:46.250Z</time>
      </trkpt>
      <trkpt lat="44.53686" lon="6.77912">
        <ele>1688.3</ele>
        <time>2013-08-18T06:54:57.250Z</time>
      </trkpt>
      <trkpt lat="44.53671" lon="6.77926">
        <ele>1681.9</ele>
        <time>2013-08-18T06:55:13.250Z</time>
      </trkpt>
      <trkpt lat="44.53685" lon="6.77948">
        <ele>1679.8</ele>
        <time>2013-08-18T06:55:38.250Z</time>
      </trkpt>
      <trkpt lat="44.53688" lon="6.77958">
        <ele>1674.6</ele>
        <time>2013-08-18T06:55:58.250Z</time>
      </trkpt>
      <trkpt lat="44.53671" lon="6.77942">
        <ele>1680.1</ele>
        <time>2013-08-18T06:56:37.250Z</time>
      </trkpt>
      <trkpt lat="44.53656" lon="6.7792">
        <ele>1681</ele>
        <time>2013-08-18T06:57:04.250Z</time>
      </trkpt>
      <trkpt lat="44.53636" lon="6.77921">
        <ele>1673.4</ele>
        <time>2013-08-18T06:57:18.250Z</time>
      </trkpt>
      <trkpt lat="44.5363" lon="6.77956">
        <ele>1663.6</ele>
        <time>2013-08-18T06:57:46.250Z</time>
      </trkpt>
      <trkpt lat="44.53611" lon="6.77942">
        <ele>1659.3</ele>
        <time>2013-08-18T06:57:55.250Z</time>
      </trkpt>
      <trkpt lat="44.53587" lon="6.77937">
        <ele>1657.5</ele>
        <time>2013-08-18T06:58:05.250Z</time>
      </trkpt>
      <trkpt lat="44.53564" lon="6.77935">
        <ele>1653.5</ele>
        <time>2013-08-18T06:58:39.250Z</time>
      </trkpt>
      <trkpt lat="44.53545" lon="6.77918">
        <ele>1647.4</ele>
        <time>2013-08-18T06:58:44.250Z</time>
      </trkpt>
      <trkpt lat="44.53523" lon="6.77903">
        <ele>1639.2</ele>
        <time>2013-08-18T06:58:52.250Z</time>
      </trkpt>
      <trkpt lat="44.53506" lon="6.7788">
        <ele>1634</ele>
        <time>2013-08-18T06:58:59.250Z</time>
      </trkpt>
      <trkpt lat="44.53487" lon="6.7786">
        <ele>1631.3</ele>
        <time>2013-08-18T06:59:06.250Z</time>
      </trkpt>
      <trkpt lat="44.5348" lon="6.77834">
        <ele>1630.4</ele>
        <time>2013-08-18T06:59:12.250Z</time>
      </trkpt>
      <trkpt lat="44.53466" lon="6.7781">
        <ele>1629.2</ele>
        <time>2013-08-18T06:59:22.250Z</time>
      </trkpt>
      <trkpt lat="44.53447" lon="6.77792">
        <ele>1627</ele>
        <time>2013-08-18T06:59:30.250Z</time>
      </trkpt>
      <trkpt lat="44.53421" lon="6.7779">
        <ele>1624.3</ele>
        <time>2013-08-18T07:00:01.250Z</time>
      </trkpt>
      <trkpt lat="44.53402" lon="6.77775">
        <ele>1621.5</ele>
        <time>2013-08-18T07:00:06.250Z</time>
      </trkpt>
      <trkpt lat="44.53382" lon="6.77754">
        <ele>1618.5</ele>
        <time>2013-08-18T07:00:21.250Z</time>
      </trkpt>
      <trkpt lat="44.53363" lon="6.77738">
        <ele>1617.3</ele>
        <time>2013-08-18T07:00:31.250Z</time>
      </trkpt>
      <trkpt lat="44.53341" lon="6.7772">
        <ele>1613.6</ele>
        <time>2013-08-18T07:00:40.250Z</time>
      </trkpt>
      <trkpt lat="44.53329" lon="6.77722">
        <ele>1607.5</ele>
        <time>2013-08-18T07:00:51.250Z</time>
      </trkpt>
      <trkpt lat="44.53341" lon="6.7775">
        <ele>1607.8</ele>
        <time>2013-08-18T07:01:03.250Z</time>
      </trkpt>
      <trkpt lat="44.53361" lon="6.77768">
        <ele>1607.2</ele>
        <time>2013-08-18T07:01:11.250Z</time>
      </trkpt>
      <trkpt lat="44.53356" lon="6.77765">
        <ele>1607.8</ele>
        <time>2013-08-18T07:01:41.250Z</time>
      </trkpt>
      <trkpt lat="44.53339" lon="6.77744">
        <ele>1608.4</ele>
        <time>2013-08-18T07:02:21.250Z</time>
      </trkpt>
      <trkpt lat="44.53327" lon="6.77717">
        <ele>1607.8</ele>
        <time>2013-08-18T07:02:39.250Z</time>
      </trkpt>
      <trkpt lat="44.53309" lon="6.77699">
        <ele>1605.4</ele>
        <time>2013-08-18T07:02:47.250Z</time>
      </trkpt>
      <trkpt lat="44.53291" lon="6.77679">
        <ele>1602.3</ele>
        <time>2013-08-18T07:02:52.250Z</time>
      </trkpt>
      <trkpt lat="44.53276" lon="6.77659">
        <ele>1601.4</ele>
        <time>2013-08-18T07:04:04.250Z</time>
      </trkpt>
      <trkpt lat="44.53259" lon="6.7764">
        <ele>1599.6</ele>
        <time>2013-08-18T07:04:31.250Z</time>
      </trkpt>
      <trkpt lat="44.5324" lon="6.77617">
        <ele>1598.7</ele>
        <time>2013-08-18T07:04:39.250Z</time>
      </trkpt>
      <trkpt lat="44.53227" lon="6.77591">
        <ele>1598.4</ele>
        <time>2013-08-18T07:04:50.250Z</time>
      </trkpt>
      <trkpt lat="44.53223" lon="6.77562">
        <ele>1596.8</ele>
        <time>2013-08-18T07:05:06.250Z</time>
      </trkpt>
      <trkpt lat="44.53225" lon="6.77531">
        <ele>1588</ele>
        <time>2013-08-18T07:05:17.250Z</time>
      </trkpt>
      <trkpt lat="44.53203" lon="6.77536">
        <ele>1582.2</ele>
        <time>2013-08-18T07:05:26.250Z</time>
      </trkpt>
      <trkpt lat="44.5319" lon="6.77548">
        <ele>1574.3</ele>
        <time>2013-08-18T07:07:13.250Z</time>
      </trkpt>
      <trkpt lat="44.53162" lon="6.77561">
        <ele>1569.4</ele>
        <time>2013-08-18T07:07:47.250Z</time>
      </trkpt>
      <trkpt lat="44.53144" lon="6.77577">
        <ele>1563</ele>
        <time>2013-08-18T07:07:55.250Z</time>
      </trkpt>
      <trkpt lat="44.53125" lon="6.77582">
        <ele>1555.4</ele>
        <time>2013-08-18T07:08:00.250Z</time>
      </trkpt>
      <trkpt lat="44.5311" lon="6.77565">
        <ele>1543.5</ele>
        <time>2013-08-18T07:08:15.250Z</time>
      </trkpt>
      <trkpt lat="44.53087" lon="6.77573">
        <ele>1544.7</ele>
        <time>2013-08-18T07:08:34.250Z</time>
      </trkpt>
      <trkpt lat="44.53072" lon="6.77577">
        <ele>1542.6</ele>
        <time>2013-08-18T07:09:16.250Z</time>
      </trkpt>
      <trkpt lat="44.53072" lon="6.77579">
        <ele>1533.1</ele>
        <time>2013-08-18T07:10:21.250Z</time>
      </trkpt>
      <trkpt lat="44.53054" lon="6.77599">
        <ele>1537.4</ele>
        <time>2013-08-18T07:10:33.250Z</time>
      </trkpt>
      <trkpt lat="44.53054" lon="6.77631">
        <ele>1541.1</ele>
        <time>2013-08-18T07:10:45.250Z</time>
      </trkpt>
      <trkpt lat="44.53063" lon="6.77655">
        <ele>1542</ele>
        <time>2013-08-18T07:10:53.250Z</time>
      </trkpt>
      <trkpt lat="44.53081" lon="6.7768">
        <ele>1543.5</ele>
        <time>2013-08-18T07:11:01.250Z</time>
      </trkpt>
      <trkpt lat="44.53093" lon="6.77704">
        <ele>1558.4</ele>
        <time>2013-08-18T07:11:12.250Z</time>
      </trkpt>
      <trkpt lat="44.53108" lon="6.7773">
        <ele>1558.7</ele>
        <time>2013-08-18T07:11:19.250Z</time>
      </trkpt>
      <trkpt lat="44.53123" lon="6.77753">
        <ele>1553.9</ele>
        <time>2013-08-18T07:11:28.250Z</time>
      </trkpt>
      <trkpt lat="44.53124" lon="6.77767">
        <ele>1544.1</ele>
        <time>2013-08-18T07:11:47.250Z</time>
      </trkpt>
      <trkpt lat="44.53138" lon="6.77797">
        <ele>1542</ele>
        <time>2013-08-18T07:11:55.250Z</time>
      </trkpt>
      <trkpt lat="44.5315" lon="6.77827">
        <ele>1538</ele>
        <time>2013-08-18T07:11:59.250Z</time>
      </trkpt>
      <trkpt lat="44.53156" lon="6.77859">
        <ele>1532.8</ele>
        <time>2013-08-18T07:12:03.250Z</time>
      </trkpt>
      <trkpt lat="44.53149" lon="6.77891">
        <ele>1527.4</ele>
        <time>2013-08-18T07:12:07.250Z</time>
      </trkpt>
      <trkpt lat="44.53136" lon="6.77926">
        <ele>1521</ele>
        <time>2013-08-18T07:12:11.250Z</time>
      </trkpt>
      <trkpt lat="44.53116" lon="6.77948">
        <ele>1516.4</ele>
        <time>2013-08-18T07:12:15.250Z</time>
      </trkpt>
      <trkpt lat="44.53088" lon="6.77959">
        <ele>1514.9</ele>
        <time>2013-08-18T07:12:22.250Z</time>
      </trkpt>
      <trkpt lat="44.53071" lon="6.7797">
        <ele>1515.5</ele>
        <time>2013-08-18T07:12:26.250Z</time>
      </trkpt>
      <trkpt lat="44.53051" lon="6.7799">
        <ele>1519.7</ele>
        <time>2013-08-18T07:12:34.250Z</time>
      </trkpt>
      <trkpt lat="44.53048" lon="6.77963">
        <ele>1521.3</ele>
        <time>2013-08-18T07:12:46.250Z</time>
      </trkpt>
      <trkpt lat="44.53044" lon="6.77934">
        <ele>1521.9</ele>
        <time>2013-08-18T07:12:59.250Z</time>
      </trkpt>
      <trkpt lat="44.53026" lon="6.77913">
        <ele>1523.7</ele>
        <time>2013-08-18T07:13:12.250Z</time>
      </trkpt>
      <trkpt lat="44.53011" lon="6.77889">
        <ele>1524.6</ele>
        <time>2013-08-18T07:13:22.250Z</time>
      </trkpt>
      <trkpt lat="44.52996" lon="6.77866">
        <ele>1526.7</ele>
        <time>2013-08-18T07:13:31.250Z</time>
      </trkpt>
      <trkpt lat="44.52984" lon="6.77836">
        <ele>1527.4</ele>
        <time>2013-08-18T07:13:39.250Z</time>
      </trkpt>
      <trkpt lat="44.52969" lon="6.77806">
        <ele>1526.7</ele>
        <time>2013-08-18T07:13:44.250Z</time>
      </trkpt>
      <trkpt lat="44.52954" lon="6.77781">
        <ele>1526.4</ele>
        <time>2013-08-18T07:13:50.250Z</time>
      </trkpt>
      <trkpt lat="44.52936" lon="6.77757">
        <ele>1527.4</ele>
        <time>2013-08-18T07:13:54.250Z</time>
      </trkpt>
      <trkpt lat="44.52919" lon="6.77731">
        <ele>1527.7</ele>
        <time>2013-08-18T07:14:01.250Z</time>
      </trkpt>
      <trkpt lat="44.52902" lon="6.77712">
        <ele>1526.7</ele>
        <time>2013-08-18T07:14:05.250Z</time>
      </trkpt>
      <trkpt lat="44.52882" lon="6.77687">
        <ele>1526.1</ele>
        <time>2013-08-18T07:14:09.250Z</time>
      </trkpt>
      <trkpt lat="44.52861" lon="6.77672">
        <ele>1525.2</ele>
        <time>2013-08-18T07:14:13.250Z</time>
      </trkpt>
      <trkpt lat="44.52842" lon="6.77654">
        <ele>1524</ele>
        <time>2013-08-18T07:14:16.250Z</time>
      </trkpt>
      <trkpt lat="44.52821" lon="6.77636">
        <ele>1522.2</ele>
        <time>2013-08-18T07:14:18.250Z</time>
      </trkpt>
      <trkpt lat="44.52799" lon="6.7761">
        <ele>1519.7</ele>
        <time>2013-08-18T07:14:21.250Z</time>
      </trkpt>
      <trkpt lat="44.52781" lon="6.7758">
        <ele>1517</ele>
        <time>2013-08-18T07:14:25.250Z</time>
      </trkpt>
      <trkpt lat="44.52766" lon="6.77558">
        <ele>1513.9</ele>
        <time>2013-08-18T07:14:28.250Z</time>
      </trkpt>
      <trkpt lat="44.52745" lon="6.77539">
        <ele>1509.1</ele>
        <time>2013-08-18T07:14:32.250Z</time>
      </trkpt>
      <trkpt lat="44.52716" lon="6.77535">
        <ele>1502.1</ele>
        <time>2013-08-18T07:14:37.250Z</time>
      </trkpt>
      <trkpt lat="44.52699" lon="6.77526">
        <ele>1499.9</ele>
        <time>2013-08-18T07:14:41.250Z</time>
      </trkpt>
      <trkpt lat="44.52681" lon="6.77508">
        <ele>1498.1</ele>
        <time>2013-08-18T07:14:44.250Z</time>
      </trkpt>
      <trkpt lat="44.52665" lon="6.77485">
        <ele>1497.2</ele>
        <time>2013-08-18T07:14:47.250Z</time>
      </trkpt>
      <trkpt lat="44.52646" lon="6.77456">
        <ele>1495.7</ele>
        <time>2013-08-18T07:14:51.250Z</time>
      </trkpt>
      <trkpt lat="44.52626" lon="6.77427">
        <ele>1494.7</ele>
        <time>2013-08-18T07:14:55.250Z</time>
      </trkpt>
      <trkpt lat="44.52604" lon="6.77411">
        <ele>1494.1</ele>
        <time>2013-08-18T07:14:59.250Z</time>
      </trkpt>
      <trkpt lat="44.52584" lon="6.77388">
        <ele>1495</ele>
        <time>2013-08-18T07:15:03.250Z</time>
      </trkpt>
      <trkpt lat="44.52567" lon="6.77363">
        <ele>1497.5</ele>
        <time>2013-08-18T07:15:07.250Z</time>
      </trkpt>
      <trkpt lat="44.52552" lon="6.77339">
        <ele>1502.4</ele>
        <time>2013-08-18T07:15:12.250Z</time>
      </trkpt>
      <trkpt lat="44.5254" lon="6.77311">
        <ele>1505.1</ele>
        <time>2013-08-18T07:15:22.250Z</time>
      </trkpt>
      <trkpt lat="44.5253" lon="6.77282">
        <ele>1504.8</ele>
        <time>2013-08-18T07:15:32.250Z</time>
      </trkpt>
      <trkpt lat="44.52513" lon="6.77258">
        <ele>1512.4</ele>
        <time>2013-08-18T07:15:51.250Z</time>
      </trkpt>
      <trkpt lat="44.52498" lon="6.77232">
        <ele>1510.6</ele>
        <time>2013-08-18T07:15:55.250Z</time>
      </trkpt>
      <trkpt lat="44.52482" lon="6.77199">
        <ele>1507.8</ele>
        <time>2013-08-18T07:15:59.250Z</time>
      </trkpt>
      <trkpt lat="44.52466" lon="6.77174">
        <ele>1504.5</ele>
        <time>2013-08-18T07:16:02.250Z</time>
      </trkpt>
      <trkpt lat="44.52449" lon="6.77142">
        <ele>1500.5</ele>
        <time>2013-08-18T07:16:05.250Z</time>
      </trkpt>
      <trkpt lat="44.52437" lon="6.77105">
        <ele>1495.3</ele>
        <time>2013-08-18T07:16:09.250Z</time>
      </trkpt>
      <trkpt lat="44.52431" lon="6.77067">
        <ele>1490.2</ele>
        <time>2013-08-18T07:16:12.250Z</time>
      </trkpt>
      <trkpt lat="44.5243" lon="6.77031">
        <ele>1484.7</ele>
        <time>2013-08-18T07:16:14.250Z</time>
      </trkpt>
      <trkpt lat="44.52431" lon="6.76995">
        <ele>1481</ele>
        <time>2013-08-18T07:16:17.250Z</time>
      </trkpt>
      <trkpt lat="44.52428" lon="6.7696">
        <ele>1479.8</ele>
        <time>2013-08-18T07:16:21.250Z</time>
      </trkpt>
      <trkpt lat="44.52419" lon="6.76931">
        <ele>1478.9</ele>
        <time>2013-08-18T07:16:24.250Z</time>
      </trkpt>
      <trkpt lat="44.52406" lon="6.76905">
        <ele>1478</ele>
        <time>2013-08-18T07:16:28.250Z</time>
      </trkpt>
      <trkpt lat="44.52388" lon="6.76879">
        <ele>1476.8</ele>
        <time>2013-08-18T07:16:32.250Z</time>
      </trkpt>
      <trkpt lat="44.52373" lon="6.76857">
        <ele>1481</ele>
        <time>2013-08-18T07:16:47.250Z</time>
      </trkpt>
      <trkpt lat="44.52345" lon="6.76844">
        <ele>1487.1</ele>
        <time>2013-08-18T07:17:16.250Z</time>
      </trkpt>
      <trkpt lat="44.52235" lon="6.76697">
        <ele>1494.1</ele>
        <time>2013-08-18T07:17:51.250Z</time>
      </trkpt>
      <trkpt lat="44.52217" lon="6.76646">
        <ele>1493.8</ele>
        <time>2013-08-18T07:17:57.250Z</time>
      </trkpt>
      <trkpt lat="44.52214" lon="6.76609">
        <ele>1491.7</ele>
        <time>2013-08-18T07:18:01.250Z</time>
      </trkpt>
      <trkpt lat="44.52211" lon="6.76576">
        <ele>1488.6</ele>
        <time>2013-08-18T07:18:04.250Z</time>
      </trkpt>
      <trkpt lat="44.52211" lon="6.7654">
        <ele>1482.9</ele>
        <time>2013-08-18T07:18:09.250Z</time>
      </trkpt>
      <trkpt lat="44.52203" lon="6.7651">
        <ele>1473.4</ele>
        <time>2013-08-18T07:18:20.250Z</time>
      </trkpt>
      <trkpt lat="44.52185" lon="6.76492">
        <ele>1469.7</ele>
        <time>2013-08-18T07:18:32.250Z</time>
      </trkpt>
      <trkpt lat="44.52163" lon="6.76485">
        <ele>1467</ele>
        <time>2013-08-18T07:18:44.250Z</time>
      </trkpt>
      <trkpt lat="44.52142" lon="6.76484">
        <ele>1462.7</ele>
        <time>2013-08-18T07:19:22.250Z</time>
      </trkpt>
      <trkpt lat="44.52118" lon="6.76474">
        <ele>1462.1</ele>
        <time>2013-08-18T07:19:31.250Z</time>
      </trkpt>
      <trkpt lat="44.52112" lon="6.76453">
        <ele>1460.3</ele>
        <time>2013-08-18T07:20:19.250Z</time>
      </trkpt>
      <trkpt lat="44.52117" lon="6.76423">
        <ele>1461.8</ele>
        <time>2013-08-18T07:20:36.250Z</time>
      </trkpt>
      <trkpt lat="44.52106" lon="6.764">
        <ele>1461.2</ele>
        <time>2013-08-18T07:20:47.250Z</time>
      </trkpt>
      <trkpt lat="44.52088" lon="6.76382">
        <ele>1461.2</ele>
        <time>2013-08-18T07:20:55.250Z</time>
      </trkpt>
      <trkpt lat="44.52069" lon="6.76362">
        <ele>1461.8</ele>
        <time>2013-08-18T07:21:02.250Z</time>
      </trkpt>
      <trkpt lat="44.52047" lon="6.76346">
        <ele>1461.2</ele>
        <time>2013-08-18T07:21:10.250Z</time>
      </trkpt>
      <trkpt lat="44.52027" lon="6.76331">
        <ele>1460.9</ele>
        <time>2013-08-18T07:21:17.250Z</time>
      </trkpt>
      <trkpt lat="44.52007" lon="6.76311">
        <ele>1460</ele>
        <time>2013-08-18T07:21:25.250Z</time>
      </trkpt>
      <trkpt lat="44.51993" lon="6.76281">
        <ele>1459.7</ele>
        <time>2013-08-18T07:21:32.250Z</time>
      </trkpt>
      <trkpt lat="44.5198" lon="6.76255">
        <ele>1460.3</ele>
        <time>2013-08-18T07:21:37.250Z</time>
      </trkpt>
      <trkpt lat="44.5197" lon="6.76225">
        <ele>1460.6</ele>
        <time>2013-08-18T07:21:42.250Z</time>
      </trkpt>
      <trkpt lat="44.51968" lon="6.76194">
        <ele>1460.9</ele>
        <time>2013-08-18T07:21:50.250Z</time>
      </trkpt>
      <trkpt lat="44.51971" lon="6.76188">
        <ele>1459.7</ele>
        <time>2013-08-18T07:22:08.250Z</time>
      </trkpt>
      <trkpt lat="44.5195" lon="6.76197">
        <ele>1458.2</ele>
        <time>2013-08-18T07:22:19.250Z</time>
      </trkpt>
      <trkpt lat="44.51931" lon="6.76183">
        <ele>1457.9</ele>
        <time>2013-08-18T07:22:28.250Z</time>
      </trkpt>
      <trkpt lat="44.51914" lon="6.76162">
        <ele>1457.6</ele>
        <time>2013-08-18T07:22:38.250Z</time>
      </trkpt>
      <trkpt lat="44.51901" lon="6.76138">
        <ele>1455.7</ele>
        <time>2013-08-18T07:22:43.250Z</time>
      </trkpt>
      <trkpt lat="44.51877" lon="6.76133">
        <ele>1453.9</ele>
        <time>2013-08-18T07:22:50.250Z</time>
      </trkpt>
      <trkpt lat="44.51852" lon="6.76129">
        <ele>1453.6</ele>
        <time>2013-08-18T07:22:58.250Z</time>
      </trkpt>
      <trkpt lat="44.51831" lon="6.76116">
        <ele>1451.8</ele>
        <time>2013-08-18T07:23:05.250Z</time>
      </trkpt>
      <trkpt lat="44.51812" lon="6.76095">
        <ele>1450.5</ele>
        <time>2013-08-18T07:23:11.250Z</time>
      </trkpt>
      <trkpt lat="44.51793" lon="6.76078">
        <ele>1450.2</ele>
        <time>2013-08-18T07:23:18.250Z</time>
      </trkpt>
      <trkpt lat="44.51772" lon="6.76073">
        <ele>1450.8</ele>
        <time>2013-08-18T07:23:29.250Z</time>
      </trkpt>
      <trkpt lat="44.51752" lon="6.76051">
        <ele>1450.2</ele>
        <time>2013-08-18T07:23:37.250Z</time>
      </trkpt>
      <trkpt lat="44.51738" lon="6.76024">
        <ele>1450.5</ele>
        <time>2013-08-18T07:23:45.250Z</time>
      </trkpt>
      <trkpt lat="44.51726" lon="6.75995">
        <ele>1449.6</ele>
        <time>2013-08-18T07:23:53.250Z</time>
      </trkpt>
      <trkpt lat="44.51713" lon="6.75967">
        <ele>1448.1</ele>
        <time>2013-08-18T07:24:00.250Z</time>
      </trkpt>
      <trkpt lat="44.51696" lon="6.75941">
        <ele>1446</ele>
        <time>2013-08-18T07:24:08.250Z</time>
      </trkpt>
      <trkpt lat="44.51686" lon="6.75911">
        <ele>1445.1</ele>
        <time>2013-08-18T07:24:15.250Z</time>
      </trkpt>
      <trkpt lat="44.51679" lon="6.7588">
        <ele>1444.4</ele>
        <time>2013-08-18T07:24:23.250Z</time>
      </trkpt>
      <trkpt lat="44.51672" lon="6.75849">
        <ele>1444.1</ele>
        <time>2013-08-18T07:24:30.250Z</time>
      </trkpt>
      <trkpt lat="44.51662" lon="6.7582">
        <ele>1444.8</ele>
        <time>2013-08-18T07:24:38.250Z</time>
      </trkpt>
      <trkpt lat="44.51677" lon="6.75795">
        <ele>1445.4</ele>
        <time>2013-08-18T07:24:43.250Z</time>
      </trkpt>
      <trkpt lat="44.51687" lon="6.75765">
        <ele>1445.7</ele>
        <time>2013-08-18T07:24:50.250Z</time>
      </trkpt>
      <trkpt lat="44.51692" lon="6.7575">
        <ele>1447.2</ele>
        <time>2013-08-18T07:24:58.250Z</time>
      </trkpt>
      <trkpt lat="44.51707" lon="6.75777">
        <ele>1449.6</ele>
        <time>2013-08-18T07:25:06.250Z</time>
      </trkpt>
      <trkpt lat="44.51722" lon="6.75802">
        <ele>1452.1</ele>
        <time>2013-08-18T07:25:14.250Z</time>
      </trkpt>
      <trkpt lat="44.51736" lon="6.75827">
        <ele>1453.6</ele>
        <time>2013-08-18T07:25:21.250Z</time>
      </trkpt>
      <trkpt lat="44.51739" lon="6.75814">
        <ele>1456.6</ele>
        <time>2013-08-18T07:25:48.250Z</time>
      </trkpt>
      <trkpt lat="44.51733" lon="6.75809">
        <ele>1464.6</ele>
        <time>2013-08-18T07:26:50.250Z</time>
      </trkpt>
      <trkpt lat="44.51746" lon="6.75816">
        <ele>1452.7</ele>
        <time>2013-08-18T07:27:32.250Z</time>
      </trkpt>
      <trkpt lat="44.51733" lon="6.75821">
        <ele>1461.2</ele>
        <time>2013-08-18T00:14:07.250Z</time>
      </trkpt>
      <trkpt lat="44.5172" lon="6.75793">
        <ele>1451.5</ele>
        <time>2013-08-18T00:15:43.250Z</time>
      </trkpt>
      <trkpt lat="44.51704" lon="6.75777">
        <ele>1457.6</ele>
        <time>2013-08-18T00:23:11.250Z</time>
      </trkpt>
      <trkpt lat="44.51687" lon="6.75753">
        <ele>1455.7</ele>
        <time>2013-08-18T00:23:18.250Z</time>
      </trkpt>
      <trkpt lat="44.51672" lon="6.75726">
        <ele>1454.2</ele>
        <time>2013-08-18T00:23:23.250Z</time>
      </trkpt>
      <trkpt lat="44.51664" lon="6.75697">
        <ele>1453</ele>
        <time>2013-08-18T00:23:27.250Z</time>
      </trkpt>
      <trkpt lat="44.51659" lon="6.75663">
        <ele>1451.8</ele>
        <time>2013-08-18T00:23:35.250Z</time>
      </trkpt>
      <trkpt lat="44.51651" lon="6.75634">
        <ele>1453</ele>
        <time>2013-08-18T00:23:50.250Z</time>
      </trkpt>
      <trkpt lat="44.51645" lon="6.75604">
        <ele>1456.6</ele>
        <time>2013-08-18T00:24:05.250Z</time>
      </trkpt>
      <trkpt lat="44.51641" lon="6.75573">
        <ele>1459.4</ele>
        <time>2013-08-18T00:24:23.250Z</time>
      </trkpt>
      <trkpt lat="44.5164" lon="6.75541">
        <ele>1464.9</ele>
        <time>2013-08-18T00:24:39.250Z</time>
      </trkpt>
      <trkpt lat="44.51652" lon="6.75515">
        <ele>1464</ele>
        <time>2013-08-18T00:24:52.250Z</time>
      </trkpt>
      <trkpt lat="44.51651" lon="6.75488">
        <ele>1464.3</ele>
        <time>2013-08-18T00:25:06.250Z</time>
      </trkpt>
      <trkpt lat="44.51632" lon="6.7547">
        <ele>1467.3</ele>
        <time>2013-08-18T00:25:22.250Z</time>
      </trkpt>
      <trkpt lat="44.51613" lon="6.75455">
        <ele>1470.4</ele>
        <time>2013-08-18T00:25:38.250Z</time>
      </trkpt>
      <trkpt lat="44.51595" lon="6.75436">
        <ele>1472.5</ele>
        <time>2013-08-18T00:25:53.250Z</time>
      </trkpt>
      <trkpt lat="44.51577" lon="6.75418">
        <ele>1475.8</ele>
        <time>2013-08-18T00:26:08.250Z</time>
      </trkpt>
      <trkpt lat="44.51566" lon="6.7539">
        <ele>1473.1</ele>
        <time>2013-08-18T00:26:19.250Z</time>
      </trkpt>
      <trkpt lat="44.5156" lon="6.75358">
        <ele>1472.5</ele>
        <time>2013-08-18T00:26:25.250Z</time>
      </trkpt>
      <trkpt lat="44.5155" lon="6.7533">
        <ele>1476.8</ele>
        <time>2013-08-18T00:26:32.250Z</time>
      </trkpt>
      <trkpt lat="44.51538" lon="6.75301">
        <ele>1478.9</ele>
        <time>2013-08-18T00:26:40.250Z</time>
      </trkpt>
      <trkpt lat="44.5153" lon="6.75271">
        <ele>1477.1</ele>
        <time>2013-08-18T00:26:50.250Z</time>
      </trkpt>
      <trkpt lat="44.51524" lon="6.7524">
        <ele>1470.1</ele>
        <time>2013-08-18T00:27:01.250Z</time>
      </trkpt>
      <trkpt lat="44.51515" lon="6.75211">
        <ele>1471.3</ele>
        <time>2013-08-18T00:27:10.250Z</time>
      </trkpt>
    </trkseg>
  </trk>
</gpx>